<?xml version="1.0" encoding="UTF-8" standalone="no" ?>
<gpx xmlns="http://www.topografix.com/GPX/1/1" xmlns:xsi="http://www.w3.org/2001/XMLSchema-instance" xsi:schemaLocation="http://www.topografix.com/GPX/1/1 http://www.topografix.com/GPX/1/1/gpx.xsd" version="1.1" creator="VisuGPX - https://www.visugpx.com">
  <metadata>
    <name>Marche Matinale</name>
    <desc><![CDATA[Marche matinale au dessus de Roquemengarde surplomb sur la vallée de l'Hérault]]></desc>
  </metadata>
  <trk>
    <name><![CDATA[20190107104142-2BRHM]]></name>
    <trkseg>
      <trkpt lat="43.5338" lon="3.50202">
        <ele>43.7</ele>
        <time>2019-01-07T07:22:25Z</time>
      </trkpt>
      <trkpt lat="43.53383" lon="3.50202">
        <ele>43.7</ele>
        <time>2019-01-07T07:22:29Z</time>
      </trkpt>
      <trkpt lat="43.53387" lon="3.502">
        <ele>43.7</ele>
        <time>2019-01-07T07:22:31Z</time>
      </trkpt>
      <trkpt lat="43.5339" lon="3.50199">
        <ele>43.7</ele>
        <time>2019-01-07T07:22:37Z</time>
      </trkpt>
      <trkpt lat="43.53392" lon="3.50201">
        <ele>43.7</ele>
        <time>2019-01-07T07:22:40Z</time>
      </trkpt>
      <trkpt lat="43.53395" lon="3.50204">
        <ele>43.8</ele>
        <time>2019-01-07T07:22:42Z</time>
      </trkpt>
      <trkpt lat="43.53398" lon="3.50208">
        <ele>44</ele>
        <time>2019-01-07T07:22:44Z</time>
      </trkpt>
      <trkpt lat="43.534" lon="3.50211">
        <ele>44.2</ele>
        <time>2019-01-07T07:22:46Z</time>
      </trkpt>
      <trkpt lat="43.53402" lon="3.50215">
        <ele>44.3</ele>
        <time>2019-01-07T07:22:50Z</time>
      </trkpt>
      <trkpt lat="43.53403" lon="3.50218">
        <ele>44.4</ele>
        <time>2019-01-07T07:22:52Z</time>
      </trkpt>
      <trkpt lat="43.53406" lon="3.50222">
        <ele>44.6</ele>
        <time>2019-01-07T07:22:54Z</time>
      </trkpt>
      <trkpt lat="43.53408" lon="3.50225">
        <ele>44.7</ele>
        <time>2019-01-07T07:22:56Z</time>
      </trkpt>
      <trkpt lat="43.5341" lon="3.50228">
        <ele>44.8</ele>
        <time>2019-01-07T07:22:58Z</time>
      </trkpt>
      <trkpt lat="43.53412" lon="3.50232">
        <ele>44.9</ele>
        <time>2019-01-07T07:23:00Z</time>
      </trkpt>
      <trkpt lat="43.53413" lon="3.50237">
        <ele>45</ele>
        <time>2019-01-07T07:23:03Z</time>
      </trkpt>
      <trkpt lat="43.53413" lon="3.5024">
        <ele>45.1</ele>
        <time>2019-01-07T07:23:05Z</time>
      </trkpt>
      <trkpt lat="43.53414" lon="3.50246">
        <ele>45.3</ele>
        <time>2019-01-07T07:23:08Z</time>
      </trkpt>
      <trkpt lat="43.53415" lon="3.5025">
        <ele>45.4</ele>
        <time>2019-01-07T07:23:10Z</time>
      </trkpt>
      <trkpt lat="43.53416" lon="3.50254">
        <ele>45.5</ele>
        <time>2019-01-07T07:23:12Z</time>
      </trkpt>
      <trkpt lat="43.53418" lon="3.50258">
        <ele>45.7</ele>
        <time>2019-01-07T07:23:15Z</time>
      </trkpt>
      <trkpt lat="43.53419" lon="3.50262">
        <ele>45.9</ele>
        <time>2019-01-07T07:23:18Z</time>
      </trkpt>
      <trkpt lat="43.5342" lon="3.50266">
        <ele>46.1</ele>
        <time>2019-01-07T07:23:21Z</time>
      </trkpt>
      <trkpt lat="43.53422" lon="3.5027">
        <ele>46.3</ele>
        <time>2019-01-07T07:23:24Z</time>
      </trkpt>
      <trkpt lat="43.53422" lon="3.50275">
        <ele>46.5</ele>
        <time>2019-01-07T07:23:27Z</time>
      </trkpt>
      <trkpt lat="43.53422" lon="3.50279">
        <ele>46.6</ele>
        <time>2019-01-07T07:23:29Z</time>
      </trkpt>
      <trkpt lat="43.53421" lon="3.50284">
        <ele>46.8</ele>
        <time>2019-01-07T07:23:31Z</time>
      </trkpt>
      <trkpt lat="43.53418" lon="3.50286">
        <ele>47</ele>
        <time>2019-01-07T07:23:33Z</time>
      </trkpt>
      <trkpt lat="43.53415" lon="3.50289">
        <ele>47.1</ele>
        <time>2019-01-07T07:23:35Z</time>
      </trkpt>
      <trkpt lat="43.53413" lon="3.50292">
        <ele>47.1</ele>
        <time>2019-01-07T07:23:37Z</time>
      </trkpt>
      <trkpt lat="43.53411" lon="3.50295">
        <ele>47.1</ele>
        <time>2019-01-07T07:23:39Z</time>
      </trkpt>
      <trkpt lat="43.53408" lon="3.50297">
        <ele>47.1</ele>
        <time>2019-01-07T07:23:42Z</time>
      </trkpt>
      <trkpt lat="43.53406" lon="3.503">
        <ele>47.1</ele>
        <time>2019-01-07T07:23:45Z</time>
      </trkpt>
      <trkpt lat="43.53403" lon="3.50304">
        <ele>47.1</ele>
        <time>2019-01-07T07:23:48Z</time>
      </trkpt>
      <trkpt lat="43.534" lon="3.50307">
        <ele>47.1</ele>
        <time>2019-01-07T07:23:50Z</time>
      </trkpt>
      <trkpt lat="43.53397" lon="3.50308">
        <ele>47.1</ele>
        <time>2019-01-07T07:23:52Z</time>
      </trkpt>
      <trkpt lat="43.53394" lon="3.50307">
        <ele>47.1</ele>
        <time>2019-01-07T07:23:55Z</time>
      </trkpt>
      <trkpt lat="43.53393" lon="3.50303">
        <ele>47.2</ele>
        <time>2019-01-07T07:23:57Z</time>
      </trkpt>
      <trkpt lat="43.53392" lon="3.50299">
        <ele>47.1</ele>
        <time>2019-01-07T07:23:59Z</time>
      </trkpt>
      <trkpt lat="43.5339" lon="3.50295">
        <ele>46.9</ele>
        <time>2019-01-07T07:24:02Z</time>
      </trkpt>
      <trkpt lat="43.53387" lon="3.50291">
        <ele>46.7</ele>
        <time>2019-01-07T07:24:05Z</time>
      </trkpt>
      <trkpt lat="43.53384" lon="3.50287">
        <ele>46.4</ele>
        <time>2019-01-07T07:24:08Z</time>
      </trkpt>
      <trkpt lat="43.53383" lon="3.50283">
        <ele>46.1</ele>
        <time>2019-01-07T07:24:11Z</time>
      </trkpt>
      <trkpt lat="43.53381" lon="3.50278">
        <ele>45.9</ele>
        <time>2019-01-07T07:24:14Z</time>
      </trkpt>
      <trkpt lat="43.5338" lon="3.50273">
        <ele>45.8</ele>
        <time>2019-01-07T07:24:17Z</time>
      </trkpt>
      <trkpt lat="43.53379" lon="3.50269">
        <ele>45.7</ele>
        <time>2019-01-07T07:24:19Z</time>
      </trkpt>
      <trkpt lat="43.53377" lon="3.50266">
        <ele>45.5</ele>
        <time>2019-01-07T07:24:21Z</time>
      </trkpt>
      <trkpt lat="43.53376" lon="3.50261">
        <ele>45.3</ele>
        <time>2019-01-07T07:24:24Z</time>
      </trkpt>
      <trkpt lat="43.53375" lon="3.50257">
        <ele>45.1</ele>
        <time>2019-01-07T07:24:26Z</time>
      </trkpt>
      <trkpt lat="43.53373" lon="3.50252">
        <ele>44.9</ele>
        <time>2019-01-07T07:24:29Z</time>
      </trkpt>
      <trkpt lat="43.53371" lon="3.50247">
        <ele>44.8</ele>
        <time>2019-01-07T07:24:32Z</time>
      </trkpt>
      <trkpt lat="43.5337" lon="3.50243">
        <ele>44.6</ele>
        <time>2019-01-07T07:24:34Z</time>
      </trkpt>
      <trkpt lat="43.53369" lon="3.5024">
        <ele>44.4</ele>
        <time>2019-01-07T07:24:36Z</time>
      </trkpt>
      <trkpt lat="43.53366" lon="3.50236">
        <ele>44.2</ele>
        <time>2019-01-07T07:24:39Z</time>
      </trkpt>
      <trkpt lat="43.53365" lon="3.50232">
        <ele>44.1</ele>
        <time>2019-01-07T07:24:42Z</time>
      </trkpt>
      <trkpt lat="43.53364" lon="3.50227">
        <ele>43.9</ele>
        <time>2019-01-07T07:24:45Z</time>
      </trkpt>
      <trkpt lat="43.53362" lon="3.50224">
        <ele>43.8</ele>
        <time>2019-01-07T07:24:47Z</time>
      </trkpt>
      <trkpt lat="43.5336" lon="3.5022">
        <ele>43.6</ele>
        <time>2019-01-07T07:24:49Z</time>
      </trkpt>
      <trkpt lat="43.53359" lon="3.50215">
        <ele>43.4</ele>
        <time>2019-01-07T07:24:51Z</time>
      </trkpt>
      <trkpt lat="43.53357" lon="3.50212">
        <ele>43.3</ele>
        <time>2019-01-07T07:24:53Z</time>
      </trkpt>
      <trkpt lat="43.53357" lon="3.50208">
        <ele>43.2</ele>
        <time>2019-01-07T07:24:55Z</time>
      </trkpt>
      <trkpt lat="43.53356" lon="3.50204">
        <ele>43.1</ele>
        <time>2019-01-07T07:24:58Z</time>
      </trkpt>
      <trkpt lat="43.53355" lon="3.50201">
        <ele>43</ele>
        <time>2019-01-07T07:25:00Z</time>
      </trkpt>
      <trkpt lat="43.53353" lon="3.50197">
        <ele>42.8</ele>
        <time>2019-01-07T07:25:02Z</time>
      </trkpt>
      <trkpt lat="43.53351" lon="3.50193">
        <ele>42.7</ele>
        <time>2019-01-07T07:25:04Z</time>
      </trkpt>
      <trkpt lat="43.5335" lon="3.5019">
        <ele>42.6</ele>
        <time>2019-01-07T07:25:06Z</time>
      </trkpt>
      <trkpt lat="43.53349" lon="3.50186">
        <ele>42.5</ele>
        <time>2019-01-07T07:25:08Z</time>
      </trkpt>
      <trkpt lat="43.53349" lon="3.50182">
        <ele>42.4</ele>
        <time>2019-01-07T07:25:10Z</time>
      </trkpt>
      <trkpt lat="43.53346" lon="3.50178">
        <ele>42.2</ele>
        <time>2019-01-07T07:25:13Z</time>
      </trkpt>
      <trkpt lat="43.53344" lon="3.50173">
        <ele>42</ele>
        <time>2019-01-07T07:25:16Z</time>
      </trkpt>
      <trkpt lat="43.53343" lon="3.50169">
        <ele>41.9</ele>
        <time>2019-01-07T07:25:18Z</time>
      </trkpt>
      <trkpt lat="43.53341" lon="3.50165">
        <ele>41.8</ele>
        <time>2019-01-07T07:25:21Z</time>
      </trkpt>
      <trkpt lat="43.53339" lon="3.50161">
        <ele>41.7</ele>
        <time>2019-01-07T07:25:24Z</time>
      </trkpt>
      <trkpt lat="43.53339" lon="3.50157">
        <ele>41.6</ele>
        <time>2019-01-07T07:25:26Z</time>
      </trkpt>
      <trkpt lat="43.5334" lon="3.50153">
        <ele>41.5</ele>
        <time>2019-01-07T07:25:28Z</time>
      </trkpt>
      <trkpt lat="43.53341" lon="3.50149">
        <ele>41.3</ele>
        <time>2019-01-07T07:25:30Z</time>
      </trkpt>
      <trkpt lat="43.53343" lon="3.50146">
        <ele>41.3</ele>
        <time>2019-01-07T07:25:32Z</time>
      </trkpt>
      <trkpt lat="43.53344" lon="3.50142">
        <ele>41.3</ele>
        <time>2019-01-07T07:25:34Z</time>
      </trkpt>
      <trkpt lat="43.53346" lon="3.50138">
        <ele>41.2</ele>
        <time>2019-01-07T07:25:36Z</time>
      </trkpt>
      <trkpt lat="43.53347" lon="3.50134">
        <ele>41.2</ele>
        <time>2019-01-07T07:25:38Z</time>
      </trkpt>
      <trkpt lat="43.53349" lon="3.50129">
        <ele>41.2</ele>
        <time>2019-01-07T07:25:41Z</time>
      </trkpt>
      <trkpt lat="43.53351" lon="3.50126">
        <ele>41.1</ele>
        <time>2019-01-07T07:25:43Z</time>
      </trkpt>
      <trkpt lat="43.53353" lon="3.50123">
        <ele>41.1</ele>
        <time>2019-01-07T07:25:45Z</time>
      </trkpt>
      <trkpt lat="43.53354" lon="3.50119">
        <ele>41</ele>
        <time>2019-01-07T07:25:48Z</time>
      </trkpt>
      <trkpt lat="43.53357" lon="3.50116">
        <ele>40.9</ele>
        <time>2019-01-07T07:25:51Z</time>
      </trkpt>
      <trkpt lat="43.5336" lon="3.50112">
        <ele>40.8</ele>
        <time>2019-01-07T07:25:54Z</time>
      </trkpt>
      <trkpt lat="43.53362" lon="3.50109">
        <ele>40.7</ele>
        <time>2019-01-07T07:25:56Z</time>
      </trkpt>
      <trkpt lat="43.53365" lon="3.50106">
        <ele>40.6</ele>
        <time>2019-01-07T07:25:59Z</time>
      </trkpt>
      <trkpt lat="43.53368" lon="3.50103">
        <ele>40.5</ele>
        <time>2019-01-07T07:26:01Z</time>
      </trkpt>
      <trkpt lat="43.5337" lon="3.501">
        <ele>40.4</ele>
        <time>2019-01-07T07:26:03Z</time>
      </trkpt>
      <trkpt lat="43.53372" lon="3.50097">
        <ele>40.3</ele>
        <time>2019-01-07T07:26:05Z</time>
      </trkpt>
      <trkpt lat="43.53374" lon="3.50095">
        <ele>40.1</ele>
        <time>2019-01-07T07:26:07Z</time>
      </trkpt>
      <trkpt lat="43.53377" lon="3.50091">
        <ele>40</ele>
        <time>2019-01-07T07:26:09Z</time>
      </trkpt>
      <trkpt lat="43.5338" lon="3.50088">
        <ele>39.9</ele>
        <time>2019-01-07T07:26:12Z</time>
      </trkpt>
      <trkpt lat="43.53383" lon="3.50084">
        <ele>39.8</ele>
        <time>2019-01-07T07:26:14Z</time>
      </trkpt>
      <trkpt lat="43.53385" lon="3.5008">
        <ele>39.7</ele>
        <time>2019-01-07T07:26:16Z</time>
      </trkpt>
      <trkpt lat="43.53386" lon="3.50077">
        <ele>39.6</ele>
        <time>2019-01-07T07:26:18Z</time>
      </trkpt>
      <trkpt lat="43.53388" lon="3.50074">
        <ele>39.5</ele>
        <time>2019-01-07T07:26:20Z</time>
      </trkpt>
      <trkpt lat="43.53391" lon="3.50071">
        <ele>39.5</ele>
        <time>2019-01-07T07:26:22Z</time>
      </trkpt>
      <trkpt lat="43.53393" lon="3.50068">
        <ele>39.4</ele>
        <time>2019-01-07T07:26:24Z</time>
      </trkpt>
      <trkpt lat="43.53395" lon="3.50065">
        <ele>39.4</ele>
        <time>2019-01-07T07:26:26Z</time>
      </trkpt>
      <trkpt lat="43.53397" lon="3.50062">
        <ele>39.4</ele>
        <time>2019-01-07T07:26:28Z</time>
      </trkpt>
      <trkpt lat="43.53399" lon="3.50058">
        <ele>39.3</ele>
        <time>2019-01-07T07:26:31Z</time>
      </trkpt>
      <trkpt lat="43.53401" lon="3.50054">
        <ele>39.3</ele>
        <time>2019-01-07T07:26:33Z</time>
      </trkpt>
      <trkpt lat="43.53403" lon="3.50051">
        <ele>39.3</ele>
        <time>2019-01-07T07:26:35Z</time>
      </trkpt>
      <trkpt lat="43.53406" lon="3.50048">
        <ele>39.3</ele>
        <time>2019-01-07T07:26:37Z</time>
      </trkpt>
      <trkpt lat="43.53408" lon="3.50044">
        <ele>39.3</ele>
        <time>2019-01-07T07:26:39Z</time>
      </trkpt>
      <trkpt lat="43.5341" lon="3.50041">
        <ele>39.3</ele>
        <time>2019-01-07T07:26:41Z</time>
      </trkpt>
      <trkpt lat="43.53414" lon="3.5004">
        <ele>39.3</ele>
        <time>2019-01-07T07:26:45Z</time>
      </trkpt>
      <trkpt lat="43.53416" lon="3.50037">
        <ele>39.3</ele>
        <time>2019-01-07T07:26:47Z</time>
      </trkpt>
      <trkpt lat="43.53418" lon="3.50034">
        <ele>39.3</ele>
        <time>2019-01-07T07:26:49Z</time>
      </trkpt>
      <trkpt lat="43.5342" lon="3.50031">
        <ele>39.3</ele>
        <time>2019-01-07T07:26:52Z</time>
      </trkpt>
      <trkpt lat="43.53422" lon="3.50027">
        <ele>39.3</ele>
        <time>2019-01-07T07:26:55Z</time>
      </trkpt>
      <trkpt lat="43.53425" lon="3.50024">
        <ele>39.3</ele>
        <time>2019-01-07T07:26:57Z</time>
      </trkpt>
      <trkpt lat="43.53428" lon="3.50021">
        <ele>39.3</ele>
        <time>2019-01-07T07:27:00Z</time>
      </trkpt>
      <trkpt lat="43.5343" lon="3.50018">
        <ele>39.3</ele>
        <time>2019-01-07T07:27:02Z</time>
      </trkpt>
      <trkpt lat="43.53432" lon="3.50015">
        <ele>39.3</ele>
        <time>2019-01-07T07:27:04Z</time>
      </trkpt>
      <trkpt lat="43.53434" lon="3.50012">
        <ele>39.3</ele>
        <time>2019-01-07T07:27:06Z</time>
      </trkpt>
      <trkpt lat="43.53436" lon="3.50009">
        <ele>39.3</ele>
        <time>2019-01-07T07:27:08Z</time>
      </trkpt>
      <trkpt lat="43.53438" lon="3.50006">
        <ele>39.3</ele>
        <time>2019-01-07T07:27:10Z</time>
      </trkpt>
      <trkpt lat="43.53441" lon="3.50003">
        <ele>39.3</ele>
        <time>2019-01-07T07:27:12Z</time>
      </trkpt>
      <trkpt lat="43.53443" lon="3.50001">
        <ele>39.3</ele>
        <time>2019-01-07T07:27:14Z</time>
      </trkpt>
      <trkpt lat="43.53445" lon="3.49998">
        <ele>39.3</ele>
        <time>2019-01-07T07:27:16Z</time>
      </trkpt>
      <trkpt lat="43.53447" lon="3.49994">
        <ele>39.3</ele>
        <time>2019-01-07T07:27:18Z</time>
      </trkpt>
      <trkpt lat="43.5345" lon="3.4999">
        <ele>39.3</ele>
        <time>2019-01-07T07:27:20Z</time>
      </trkpt>
      <trkpt lat="43.53452" lon="3.49986">
        <ele>39.3</ele>
        <time>2019-01-07T07:27:22Z</time>
      </trkpt>
      <trkpt lat="43.53455" lon="3.49982">
        <ele>39.3</ele>
        <time>2019-01-07T07:27:24Z</time>
      </trkpt>
      <trkpt lat="43.53457" lon="3.49978">
        <ele>39.4</ele>
        <time>2019-01-07T07:27:26Z</time>
      </trkpt>
      <trkpt lat="43.5346" lon="3.49974">
        <ele>39.5</ele>
        <time>2019-01-07T07:27:29Z</time>
      </trkpt>
      <trkpt lat="43.53462" lon="3.49971">
        <ele>39.5</ele>
        <time>2019-01-07T07:27:31Z</time>
      </trkpt>
      <trkpt lat="43.53465" lon="3.49969">
        <ele>39.5</ele>
        <time>2019-01-07T07:27:33Z</time>
      </trkpt>
      <trkpt lat="43.53467" lon="3.49966">
        <ele>39.6</ele>
        <time>2019-01-07T07:27:35Z</time>
      </trkpt>
      <trkpt lat="43.53469" lon="3.49961">
        <ele>39.6</ele>
        <time>2019-01-07T07:27:37Z</time>
      </trkpt>
      <trkpt lat="43.53472" lon="3.49959">
        <ele>39.7</ele>
        <time>2019-01-07T07:27:39Z</time>
      </trkpt>
      <trkpt lat="43.53475" lon="3.49957">
        <ele>39.8</ele>
        <time>2019-01-07T07:27:42Z</time>
      </trkpt>
      <trkpt lat="43.53478" lon="3.49955">
        <ele>39.8</ele>
        <time>2019-01-07T07:27:44Z</time>
      </trkpt>
      <trkpt lat="43.5348" lon="3.49953">
        <ele>39.8</ele>
        <time>2019-01-07T07:27:46Z</time>
      </trkpt>
      <trkpt lat="43.53483" lon="3.49948">
        <ele>39.9</ele>
        <time>2019-01-07T07:27:49Z</time>
      </trkpt>
      <trkpt lat="43.53486" lon="3.49944">
        <ele>39.9</ele>
        <time>2019-01-07T07:27:51Z</time>
      </trkpt>
      <trkpt lat="43.53488" lon="3.49941">
        <ele>40</ele>
        <time>2019-01-07T07:27:53Z</time>
      </trkpt>
      <trkpt lat="43.5349" lon="3.49937">
        <ele>40</ele>
        <time>2019-01-07T07:27:56Z</time>
      </trkpt>
      <trkpt lat="43.53493" lon="3.49933">
        <ele>40.1</ele>
        <time>2019-01-07T07:27:59Z</time>
      </trkpt>
      <trkpt lat="43.53496" lon="3.4993">
        <ele>40.1</ele>
        <time>2019-01-07T07:28:02Z</time>
      </trkpt>
      <trkpt lat="43.53499" lon="3.49927">
        <ele>40.1</ele>
        <time>2019-01-07T07:28:05Z</time>
      </trkpt>
      <trkpt lat="43.53501" lon="3.49923">
        <ele>40.2</ele>
        <time>2019-01-07T07:28:07Z</time>
      </trkpt>
      <trkpt lat="43.53501" lon="3.49918">
        <ele>40.2</ele>
        <time>2019-01-07T07:28:09Z</time>
      </trkpt>
      <trkpt lat="43.535" lon="3.49913">
        <ele>40.2</ele>
        <time>2019-01-07T07:28:12Z</time>
      </trkpt>
      <trkpt lat="43.53498" lon="3.4991">
        <ele>40.1</ele>
        <time>2019-01-07T07:28:14Z</time>
      </trkpt>
      <trkpt lat="43.53496" lon="3.49906">
        <ele>40</ele>
        <time>2019-01-07T07:28:17Z</time>
      </trkpt>
      <trkpt lat="43.53495" lon="3.49902">
        <ele>39.8</ele>
        <time>2019-01-07T07:28:20Z</time>
      </trkpt>
      <trkpt lat="43.53494" lon="3.49899">
        <ele>39.7</ele>
        <time>2019-01-07T07:28:22Z</time>
      </trkpt>
      <trkpt lat="43.53492" lon="3.49895">
        <ele>39.6</ele>
        <time>2019-01-07T07:28:24Z</time>
      </trkpt>
      <trkpt lat="43.53491" lon="3.49891">
        <ele>39.4</ele>
        <time>2019-01-07T07:28:26Z</time>
      </trkpt>
      <trkpt lat="43.5349" lon="3.49888">
        <ele>39.3</ele>
        <time>2019-01-07T07:28:28Z</time>
      </trkpt>
      <trkpt lat="43.53488" lon="3.49884">
        <ele>39.1</ele>
        <time>2019-01-07T07:28:30Z</time>
      </trkpt>
      <trkpt lat="43.53487" lon="3.49879">
        <ele>38.9</ele>
        <time>2019-01-07T07:28:33Z</time>
      </trkpt>
      <trkpt lat="43.53486" lon="3.49875">
        <ele>38.7</ele>
        <time>2019-01-07T07:28:35Z</time>
      </trkpt>
      <trkpt lat="43.53485" lon="3.49871">
        <ele>38.5</ele>
        <time>2019-01-07T07:28:37Z</time>
      </trkpt>
      <trkpt lat="43.53483" lon="3.49867">
        <ele>38.3</ele>
        <time>2019-01-07T07:28:39Z</time>
      </trkpt>
      <trkpt lat="43.53481" lon="3.49863">
        <ele>38</ele>
        <time>2019-01-07T07:28:41Z</time>
      </trkpt>
      <trkpt lat="43.5348" lon="3.49859">
        <ele>37.8</ele>
        <time>2019-01-07T07:28:43Z</time>
      </trkpt>
      <trkpt lat="43.5348" lon="3.49855">
        <ele>37.1</ele>
        <time>2019-01-07T07:28:45Z</time>
      </trkpt>
      <trkpt lat="43.5348" lon="3.4985">
        <ele>37.1</ele>
        <time>2019-01-07T07:28:48Z</time>
      </trkpt>
      <trkpt lat="43.53481" lon="3.49844">
        <ele>37</ele>
        <time>2019-01-07T07:28:51Z</time>
      </trkpt>
      <trkpt lat="43.53483" lon="3.4984">
        <ele>37</ele>
        <time>2019-01-07T07:28:54Z</time>
      </trkpt>
      <trkpt lat="43.53486" lon="3.49837">
        <ele>36.9</ele>
        <time>2019-01-07T07:28:56Z</time>
      </trkpt>
      <trkpt lat="43.53488" lon="3.49834">
        <ele>36.8</ele>
        <time>2019-01-07T07:28:59Z</time>
      </trkpt>
      <trkpt lat="43.53491" lon="3.4983">
        <ele>36.7</ele>
        <time>2019-01-07T07:29:02Z</time>
      </trkpt>
      <trkpt lat="43.53493" lon="3.49827">
        <ele>36.7</ele>
        <time>2019-01-07T07:29:04Z</time>
      </trkpt>
      <trkpt lat="43.53495" lon="3.49824">
        <ele>36.6</ele>
        <time>2019-01-07T07:29:06Z</time>
      </trkpt>
      <trkpt lat="43.53498" lon="3.49821">
        <ele>36.5</ele>
        <time>2019-01-07T07:29:08Z</time>
      </trkpt>
      <trkpt lat="43.535" lon="3.49818">
        <ele>36.5</ele>
        <time>2019-01-07T07:29:10Z</time>
      </trkpt>
      <trkpt lat="43.53502" lon="3.49815">
        <ele>36.4</ele>
        <time>2019-01-07T07:29:12Z</time>
      </trkpt>
      <trkpt lat="43.53504" lon="3.49811">
        <ele>36.3</ele>
        <time>2019-01-07T07:29:15Z</time>
      </trkpt>
      <trkpt lat="43.53507" lon="3.49807">
        <ele>36.2</ele>
        <time>2019-01-07T07:29:17Z</time>
      </trkpt>
      <trkpt lat="43.53509" lon="3.49805">
        <ele>36.2</ele>
        <time>2019-01-07T07:29:19Z</time>
      </trkpt>
      <trkpt lat="43.53511" lon="3.49801">
        <ele>36.1</ele>
        <time>2019-01-07T07:29:21Z</time>
      </trkpt>
      <trkpt lat="43.53514" lon="3.49797">
        <ele>36.2</ele>
        <time>2019-01-07T07:29:24Z</time>
      </trkpt>
      <trkpt lat="43.53516" lon="3.49794">
        <ele>36.1</ele>
        <time>2019-01-07T07:29:26Z</time>
      </trkpt>
      <trkpt lat="43.53518" lon="3.49791">
        <ele>36.1</ele>
        <time>2019-01-07T07:29:28Z</time>
      </trkpt>
      <trkpt lat="43.53521" lon="3.49788">
        <ele>36</ele>
        <time>2019-01-07T07:29:30Z</time>
      </trkpt>
      <trkpt lat="43.53523" lon="3.49785">
        <ele>35.9</ele>
        <time>2019-01-07T07:29:32Z</time>
      </trkpt>
      <trkpt lat="43.53526" lon="3.49782">
        <ele>35.9</ele>
        <time>2019-01-07T07:29:34Z</time>
      </trkpt>
      <trkpt lat="43.53528" lon="3.49779">
        <ele>35.8</ele>
        <time>2019-01-07T07:29:36Z</time>
      </trkpt>
      <trkpt lat="43.53531" lon="3.49775">
        <ele>35.8</ele>
        <time>2019-01-07T07:29:39Z</time>
      </trkpt>
      <trkpt lat="43.53532" lon="3.49772">
        <ele>35.8</ele>
        <time>2019-01-07T07:29:41Z</time>
      </trkpt>
      <trkpt lat="43.53531" lon="3.49767">
        <ele>35.8</ele>
        <time>2019-01-07T07:29:44Z</time>
      </trkpt>
      <trkpt lat="43.53529" lon="3.49763">
        <ele>35.8</ele>
        <time>2019-01-07T07:29:46Z</time>
      </trkpt>
      <trkpt lat="43.53526" lon="3.4976">
        <ele>35.6</ele>
        <time>2019-01-07T07:29:48Z</time>
      </trkpt>
      <trkpt lat="43.53524" lon="3.49756">
        <ele>35.3</ele>
        <time>2019-01-07T07:29:51Z</time>
      </trkpt>
      <trkpt lat="43.53523" lon="3.49753">
        <ele>35</ele>
        <time>2019-01-07T07:29:53Z</time>
      </trkpt>
      <trkpt lat="43.53522" lon="3.49749">
        <ele>34.7</ele>
        <time>2019-01-07T07:29:55Z</time>
      </trkpt>
      <trkpt lat="43.5352" lon="3.49745">
        <ele>34.5</ele>
        <time>2019-01-07T07:29:57Z</time>
      </trkpt>
      <trkpt lat="43.53519" lon="3.49742">
        <ele>34.2</ele>
        <time>2019-01-07T07:29:59Z</time>
      </trkpt>
      <trkpt lat="43.53516" lon="3.49738">
        <ele>34</ele>
        <time>2019-01-07T07:30:02Z</time>
      </trkpt>
      <trkpt lat="43.53514" lon="3.49733">
        <ele>33.7</ele>
        <time>2019-01-07T07:30:05Z</time>
      </trkpt>
      <trkpt lat="43.53512" lon="3.4973">
        <ele>33.5</ele>
        <time>2019-01-07T07:30:07Z</time>
      </trkpt>
      <trkpt lat="43.5351" lon="3.49727">
        <ele>33.4</ele>
        <time>2019-01-07T07:30:09Z</time>
      </trkpt>
      <trkpt lat="43.53508" lon="3.49724">
        <ele>33.2</ele>
        <time>2019-01-07T07:30:11Z</time>
      </trkpt>
      <trkpt lat="43.53506" lon="3.49721">
        <ele>33.1</ele>
        <time>2019-01-07T07:30:13Z</time>
      </trkpt>
      <trkpt lat="43.53504" lon="3.49718">
        <ele>32.9</ele>
        <time>2019-01-07T07:30:15Z</time>
      </trkpt>
      <trkpt lat="43.53502" lon="3.49715">
        <ele>32.8</ele>
        <time>2019-01-07T07:30:17Z</time>
      </trkpt>
      <trkpt lat="43.535" lon="3.49711">
        <ele>32.7</ele>
        <time>2019-01-07T07:30:20Z</time>
      </trkpt>
      <trkpt lat="43.53499" lon="3.49707">
        <ele>32.6</ele>
        <time>2019-01-07T07:30:22Z</time>
      </trkpt>
      <trkpt lat="43.53497" lon="3.49704">
        <ele>32.5</ele>
        <time>2019-01-07T07:30:24Z</time>
      </trkpt>
      <trkpt lat="43.53494" lon="3.49701">
        <ele>32.4</ele>
        <time>2019-01-07T07:30:26Z</time>
      </trkpt>
      <trkpt lat="43.53492" lon="3.49698">
        <ele>32.3</ele>
        <time>2019-01-07T07:30:28Z</time>
      </trkpt>
      <trkpt lat="43.5349" lon="3.49694">
        <ele>32.2</ele>
        <time>2019-01-07T07:30:30Z</time>
      </trkpt>
      <trkpt lat="43.53488" lon="3.49691">
        <ele>32.1</ele>
        <time>2019-01-07T07:30:32Z</time>
      </trkpt>
      <trkpt lat="43.53485" lon="3.49688">
        <ele>32</ele>
        <time>2019-01-07T07:30:34Z</time>
      </trkpt>
      <trkpt lat="43.53483" lon="3.49684">
        <ele>31.9</ele>
        <time>2019-01-07T07:30:36Z</time>
      </trkpt>
      <trkpt lat="43.53481" lon="3.49681">
        <ele>31.8</ele>
        <time>2019-01-07T07:30:38Z</time>
      </trkpt>
      <trkpt lat="43.53479" lon="3.49677">
        <ele>31.7</ele>
        <time>2019-01-07T07:30:40Z</time>
      </trkpt>
      <trkpt lat="43.53477" lon="3.49673">
        <ele>31.6</ele>
        <time>2019-01-07T07:30:43Z</time>
      </trkpt>
      <trkpt lat="43.53474" lon="3.4967">
        <ele>31.5</ele>
        <time>2019-01-07T07:30:45Z</time>
      </trkpt>
      <trkpt lat="43.53472" lon="3.49667">
        <ele>31.4</ele>
        <time>2019-01-07T07:30:47Z</time>
      </trkpt>
      <trkpt lat="43.5347" lon="3.49665">
        <ele>31.3</ele>
        <time>2019-01-07T07:30:49Z</time>
      </trkpt>
      <trkpt lat="43.53468" lon="3.49662">
        <ele>31.2</ele>
        <time>2019-01-07T07:30:51Z</time>
      </trkpt>
      <trkpt lat="43.53466" lon="3.49659">
        <ele>31.1</ele>
        <time>2019-01-07T07:30:53Z</time>
      </trkpt>
      <trkpt lat="43.53463" lon="3.49656">
        <ele>31</ele>
        <time>2019-01-07T07:30:55Z</time>
      </trkpt>
      <trkpt lat="43.53461" lon="3.49654">
        <ele>30.9</ele>
        <time>2019-01-07T07:30:57Z</time>
      </trkpt>
      <trkpt lat="43.53459" lon="3.49651">
        <ele>30.8</ele>
        <time>2019-01-07T07:30:59Z</time>
      </trkpt>
      <trkpt lat="43.53456" lon="3.49648">
        <ele>30.7</ele>
        <time>2019-01-07T07:31:01Z</time>
      </trkpt>
      <trkpt lat="43.53454" lon="3.49643">
        <ele>30.5</ele>
        <time>2019-01-07T07:31:04Z</time>
      </trkpt>
      <trkpt lat="43.53451" lon="3.4964">
        <ele>30.3</ele>
        <time>2019-01-07T07:31:06Z</time>
      </trkpt>
      <trkpt lat="43.53449" lon="3.49637">
        <ele>30.3</ele>
        <time>2019-01-07T07:31:08Z</time>
      </trkpt>
      <trkpt lat="43.53447" lon="3.49633">
        <ele>30.3</ele>
        <time>2019-01-07T07:31:10Z</time>
      </trkpt>
      <trkpt lat="43.53445" lon="3.4963">
        <ele>30.3</ele>
        <time>2019-01-07T07:31:12Z</time>
      </trkpt>
      <trkpt lat="43.53442" lon="3.49626">
        <ele>30.2</ele>
        <time>2019-01-07T07:31:15Z</time>
      </trkpt>
      <trkpt lat="43.53441" lon="3.49623">
        <ele>30.1</ele>
        <time>2019-01-07T07:31:17Z</time>
      </trkpt>
      <trkpt lat="43.53438" lon="3.49619">
        <ele>30</ele>
        <time>2019-01-07T07:31:20Z</time>
      </trkpt>
      <trkpt lat="43.53436" lon="3.49616">
        <ele>29.9</ele>
        <time>2019-01-07T07:31:22Z</time>
      </trkpt>
      <trkpt lat="43.53434" lon="3.49613">
        <ele>29.9</ele>
        <time>2019-01-07T07:31:24Z</time>
      </trkpt>
      <trkpt lat="43.53431" lon="3.4961">
        <ele>29.8</ele>
        <time>2019-01-07T07:31:26Z</time>
      </trkpt>
      <trkpt lat="43.53429" lon="3.49607">
        <ele>29.7</ele>
        <time>2019-01-07T07:31:28Z</time>
      </trkpt>
      <trkpt lat="43.53426" lon="3.49603">
        <ele>29.6</ele>
        <time>2019-01-07T07:31:30Z</time>
      </trkpt>
      <trkpt lat="43.53423" lon="3.496">
        <ele>29.5</ele>
        <time>2019-01-07T07:31:32Z</time>
      </trkpt>
      <trkpt lat="43.53421" lon="3.49597">
        <ele>29.4</ele>
        <time>2019-01-07T07:31:34Z</time>
      </trkpt>
      <trkpt lat="43.53419" lon="3.49595">
        <ele>29.3</ele>
        <time>2019-01-07T07:31:36Z</time>
      </trkpt>
      <trkpt lat="43.53417" lon="3.49592">
        <ele>29.2</ele>
        <time>2019-01-07T07:31:38Z</time>
      </trkpt>
      <trkpt lat="43.53414" lon="3.49588">
        <ele>29.1</ele>
        <time>2019-01-07T07:31:41Z</time>
      </trkpt>
      <trkpt lat="43.5341" lon="3.49585">
        <ele>29.1</ele>
        <time>2019-01-07T07:31:44Z</time>
      </trkpt>
      <trkpt lat="43.53407" lon="3.49584">
        <ele>29.1</ele>
        <time>2019-01-07T07:31:46Z</time>
      </trkpt>
      <trkpt lat="43.53404" lon="3.49584">
        <ele>29.2</ele>
        <time>2019-01-07T07:31:48Z</time>
      </trkpt>
      <trkpt lat="43.534" lon="3.49584">
        <ele>29.2</ele>
        <time>2019-01-07T07:31:50Z</time>
      </trkpt>
      <trkpt lat="43.53396" lon="3.49583">
        <ele>29.2</ele>
        <time>2019-01-07T07:31:52Z</time>
      </trkpt>
      <trkpt lat="43.53393" lon="3.49583">
        <ele>29.3</ele>
        <time>2019-01-07T07:31:54Z</time>
      </trkpt>
      <trkpt lat="43.5339" lon="3.4958">
        <ele>29.3</ele>
        <time>2019-01-07T07:31:57Z</time>
      </trkpt>
      <trkpt lat="43.53387" lon="3.49579">
        <ele>29.4</ele>
        <time>2019-01-07T07:31:59Z</time>
      </trkpt>
      <trkpt lat="43.53383" lon="3.49578">
        <ele>29.5</ele>
        <time>2019-01-07T07:32:01Z</time>
      </trkpt>
      <trkpt lat="43.5338" lon="3.49576">
        <ele>29.6</ele>
        <time>2019-01-07T07:32:04Z</time>
      </trkpt>
      <trkpt lat="43.53377" lon="3.49574">
        <ele>29.7</ele>
        <time>2019-01-07T07:32:06Z</time>
      </trkpt>
      <trkpt lat="43.53374" lon="3.49572">
        <ele>29.8</ele>
        <time>2019-01-07T07:32:09Z</time>
      </trkpt>
      <trkpt lat="43.53371" lon="3.4957">
        <ele>29.9</ele>
        <time>2019-01-07T07:32:11Z</time>
      </trkpt>
      <trkpt lat="43.53367" lon="3.4957">
        <ele>30</ele>
        <time>2019-01-07T07:32:13Z</time>
      </trkpt>
      <trkpt lat="43.53364" lon="3.49569">
        <ele>30.2</ele>
        <time>2019-01-07T07:32:15Z</time>
      </trkpt>
      <trkpt lat="43.53361" lon="3.49567">
        <ele>30.3</ele>
        <time>2019-01-07T07:32:17Z</time>
      </trkpt>
      <trkpt lat="43.53359" lon="3.49563">
        <ele>30.4</ele>
        <time>2019-01-07T07:32:20Z</time>
      </trkpt>
      <trkpt lat="43.53358" lon="3.49558">
        <ele>30.4</ele>
        <time>2019-01-07T07:32:23Z</time>
      </trkpt>
      <trkpt lat="43.53357" lon="3.49554">
        <ele>30.5</ele>
        <time>2019-01-07T07:32:25Z</time>
      </trkpt>
      <trkpt lat="43.53354" lon="3.49551">
        <ele>30.5</ele>
        <time>2019-01-07T07:32:27Z</time>
      </trkpt>
      <trkpt lat="43.53352" lon="3.49548">
        <ele>30.5</ele>
        <time>2019-01-07T07:32:29Z</time>
      </trkpt>
      <trkpt lat="43.5335" lon="3.49544">
        <ele>30.6</ele>
        <time>2019-01-07T07:32:31Z</time>
      </trkpt>
      <trkpt lat="43.53349" lon="3.4954">
        <ele>30.6</ele>
        <time>2019-01-07T07:32:33Z</time>
      </trkpt>
      <trkpt lat="43.53349" lon="3.49536">
        <ele>30.6</ele>
        <time>2019-01-07T07:32:35Z</time>
      </trkpt>
      <trkpt lat="43.53348" lon="3.49532">
        <ele>30.6</ele>
        <time>2019-01-07T07:32:37Z</time>
      </trkpt>
      <trkpt lat="43.53348" lon="3.49528">
        <ele>30.7</ele>
        <time>2019-01-07T07:32:39Z</time>
      </trkpt>
      <trkpt lat="43.53347" lon="3.49524">
        <ele>30.7</ele>
        <time>2019-01-07T07:32:41Z</time>
      </trkpt>
      <trkpt lat="43.53346" lon="3.4952">
        <ele>30.7</ele>
        <time>2019-01-07T07:32:43Z</time>
      </trkpt>
      <trkpt lat="43.53344" lon="3.49515">
        <ele>30.8</ele>
        <time>2019-01-07T07:32:46Z</time>
      </trkpt>
      <trkpt lat="43.53343" lon="3.49511">
        <ele>30.8</ele>
        <time>2019-01-07T07:32:48Z</time>
      </trkpt>
      <trkpt lat="43.53342" lon="3.49506">
        <ele>30.9</ele>
        <time>2019-01-07T07:32:51Z</time>
      </trkpt>
      <trkpt lat="43.53341" lon="3.49502">
        <ele>30.9</ele>
        <time>2019-01-07T07:32:53Z</time>
      </trkpt>
      <trkpt lat="43.5334" lon="3.49497">
        <ele>31</ele>
        <time>2019-01-07T07:32:56Z</time>
      </trkpt>
      <trkpt lat="43.5334" lon="3.49492">
        <ele>31.1</ele>
        <time>2019-01-07T07:32:58Z</time>
      </trkpt>
      <trkpt lat="43.53339" lon="3.49488">
        <ele>31.1</ele>
        <time>2019-01-07T07:33:00Z</time>
      </trkpt>
      <trkpt lat="43.53338" lon="3.49484">
        <ele>31.2</ele>
        <time>2019-01-07T07:33:02Z</time>
      </trkpt>
      <trkpt lat="43.53337" lon="3.4948">
        <ele>31.2</ele>
        <time>2019-01-07T07:33:04Z</time>
      </trkpt>
      <trkpt lat="43.53336" lon="3.49475">
        <ele>31.3</ele>
        <time>2019-01-07T07:33:07Z</time>
      </trkpt>
      <trkpt lat="43.53334" lon="3.4947">
        <ele>31.4</ele>
        <time>2019-01-07T07:33:10Z</time>
      </trkpt>
      <trkpt lat="43.53334" lon="3.49466">
        <ele>31.4</ele>
        <time>2019-01-07T07:33:12Z</time>
      </trkpt>
      <trkpt lat="43.53332" lon="3.49462">
        <ele>31.4</ele>
        <time>2019-01-07T07:33:15Z</time>
      </trkpt>
      <trkpt lat="43.5333" lon="3.49458">
        <ele>31.4</ele>
        <time>2019-01-07T07:33:17Z</time>
      </trkpt>
      <trkpt lat="43.53328" lon="3.49454">
        <ele>31.4</ele>
        <time>2019-01-07T07:33:19Z</time>
      </trkpt>
      <trkpt lat="43.53327" lon="3.49451">
        <ele>31.5</ele>
        <time>2019-01-07T07:33:21Z</time>
      </trkpt>
      <trkpt lat="43.53326" lon="3.49447">
        <ele>31.5</ele>
        <time>2019-01-07T07:33:23Z</time>
      </trkpt>
      <trkpt lat="43.53325" lon="3.49443">
        <ele>31.5</ele>
        <time>2019-01-07T07:33:25Z</time>
      </trkpt>
      <trkpt lat="43.53324" lon="3.49439">
        <ele>31.5</ele>
        <time>2019-01-07T07:33:27Z</time>
      </trkpt>
      <trkpt lat="43.53323" lon="3.49434">
        <ele>31.5</ele>
        <time>2019-01-07T07:33:29Z</time>
      </trkpt>
      <trkpt lat="43.53322" lon="3.4943">
        <ele>31.5</ele>
        <time>2019-01-07T07:33:31Z</time>
      </trkpt>
      <trkpt lat="43.53321" lon="3.49425">
        <ele>31.5</ele>
        <time>2019-01-07T07:33:33Z</time>
      </trkpt>
      <trkpt lat="43.5332" lon="3.49421">
        <ele>31.5</ele>
        <time>2019-01-07T07:33:35Z</time>
      </trkpt>
      <trkpt lat="43.53318" lon="3.49418">
        <ele>31.5</ele>
        <time>2019-01-07T07:33:37Z</time>
      </trkpt>
      <trkpt lat="43.53317" lon="3.49415">
        <ele>31.5</ele>
        <time>2019-01-07T07:33:39Z</time>
      </trkpt>
      <trkpt lat="43.53316" lon="3.49411">
        <ele>31.4</ele>
        <time>2019-01-07T07:33:41Z</time>
      </trkpt>
      <trkpt lat="43.53315" lon="3.49407">
        <ele>31.4</ele>
        <time>2019-01-07T07:33:43Z</time>
      </trkpt>
      <trkpt lat="43.53313" lon="3.49403">
        <ele>31.3</ele>
        <time>2019-01-07T07:33:45Z</time>
      </trkpt>
      <trkpt lat="43.53311" lon="3.49399">
        <ele>31.3</ele>
        <time>2019-01-07T07:33:48Z</time>
      </trkpt>
      <trkpt lat="43.5331" lon="3.49395">
        <ele>31.2</ele>
        <time>2019-01-07T07:33:50Z</time>
      </trkpt>
      <trkpt lat="43.53309" lon="3.49391">
        <ele>31.1</ele>
        <time>2019-01-07T07:33:52Z</time>
      </trkpt>
      <trkpt lat="43.53308" lon="3.49386">
        <ele>31</ele>
        <time>2019-01-07T07:33:54Z</time>
      </trkpt>
      <trkpt lat="43.53307" lon="3.49382">
        <ele>30.9</ele>
        <time>2019-01-07T07:33:56Z</time>
      </trkpt>
      <trkpt lat="43.53306" lon="3.49378">
        <ele>30.9</ele>
        <time>2019-01-07T07:33:58Z</time>
      </trkpt>
      <trkpt lat="43.53305" lon="3.49372">
        <ele>30.7</ele>
        <time>2019-01-07T07:34:01Z</time>
      </trkpt>
      <trkpt lat="43.53305" lon="3.49367">
        <ele>30.5</ele>
        <time>2019-01-07T07:34:03Z</time>
      </trkpt>
      <trkpt lat="43.53303" lon="3.49363">
        <ele>30.4</ele>
        <time>2019-01-07T07:34:05Z</time>
      </trkpt>
      <trkpt lat="43.53302" lon="3.4936">
        <ele>30.2</ele>
        <time>2019-01-07T07:34:07Z</time>
      </trkpt>
      <trkpt lat="43.53301" lon="3.49357">
        <ele>30.1</ele>
        <time>2019-01-07T07:34:09Z</time>
      </trkpt>
      <trkpt lat="43.53299" lon="3.49353">
        <ele>30</ele>
        <time>2019-01-07T07:34:11Z</time>
      </trkpt>
      <trkpt lat="43.53297" lon="3.49349">
        <ele>29.9</ele>
        <time>2019-01-07T07:34:13Z</time>
      </trkpt>
      <trkpt lat="43.53296" lon="3.49345">
        <ele>29.8</ele>
        <time>2019-01-07T07:34:15Z</time>
      </trkpt>
      <trkpt lat="43.53294" lon="3.49342">
        <ele>29.8</ele>
        <time>2019-01-07T07:34:17Z</time>
      </trkpt>
      <trkpt lat="43.53293" lon="3.49338">
        <ele>29.7</ele>
        <time>2019-01-07T07:34:19Z</time>
      </trkpt>
      <trkpt lat="43.53291" lon="3.49334">
        <ele>29.7</ele>
        <time>2019-01-07T07:34:22Z</time>
      </trkpt>
      <trkpt lat="43.53289" lon="3.4933">
        <ele>29.6</ele>
        <time>2019-01-07T07:34:24Z</time>
      </trkpt>
      <trkpt lat="43.53287" lon="3.49327">
        <ele>29.5</ele>
        <time>2019-01-07T07:34:26Z</time>
      </trkpt>
      <trkpt lat="43.53286" lon="3.49324">
        <ele>29.5</ele>
        <time>2019-01-07T07:34:28Z</time>
      </trkpt>
      <trkpt lat="43.53284" lon="3.4932">
        <ele>29.5</ele>
        <time>2019-01-07T07:34:30Z</time>
      </trkpt>
      <trkpt lat="43.53282" lon="3.49316">
        <ele>29.5</ele>
        <time>2019-01-07T07:34:32Z</time>
      </trkpt>
      <trkpt lat="43.5328" lon="3.49312">
        <ele>29.4</ele>
        <time>2019-01-07T07:34:34Z</time>
      </trkpt>
      <trkpt lat="43.53279" lon="3.49308">
        <ele>29.4</ele>
        <time>2019-01-07T07:34:36Z</time>
      </trkpt>
      <trkpt lat="43.53277" lon="3.49305">
        <ele>29.3</ele>
        <time>2019-01-07T07:34:38Z</time>
      </trkpt>
      <trkpt lat="43.53275" lon="3.49302">
        <ele>29.3</ele>
        <time>2019-01-07T07:34:40Z</time>
      </trkpt>
      <trkpt lat="43.53273" lon="3.49299">
        <ele>29.2</ele>
        <time>2019-01-07T07:34:42Z</time>
      </trkpt>
      <trkpt lat="43.5327" lon="3.49295">
        <ele>29.1</ele>
        <time>2019-01-07T07:34:45Z</time>
      </trkpt>
      <trkpt lat="43.53268" lon="3.49292">
        <ele>29</ele>
        <time>2019-01-07T07:34:47Z</time>
      </trkpt>
      <trkpt lat="43.53265" lon="3.49289">
        <ele>29</ele>
        <time>2019-01-07T07:34:49Z</time>
      </trkpt>
      <trkpt lat="43.53263" lon="3.49286">
        <ele>29</ele>
        <time>2019-01-07T07:34:51Z</time>
      </trkpt>
      <trkpt lat="43.5326" lon="3.49283">
        <ele>28.9</ele>
        <time>2019-01-07T07:34:53Z</time>
      </trkpt>
      <trkpt lat="43.53258" lon="3.49281">
        <ele>28.7</ele>
        <time>2019-01-07T07:34:55Z</time>
      </trkpt>
      <trkpt lat="43.53255" lon="3.49278">
        <ele>28.6</ele>
        <time>2019-01-07T07:34:58Z</time>
      </trkpt>
      <trkpt lat="43.53253" lon="3.49273">
        <ele>28.5</ele>
        <time>2019-01-07T07:35:01Z</time>
      </trkpt>
      <trkpt lat="43.53251" lon="3.4927">
        <ele>28.5</ele>
        <time>2019-01-07T07:35:03Z</time>
      </trkpt>
      <trkpt lat="43.53249" lon="3.49266">
        <ele>28.5</ele>
        <time>2019-01-07T07:35:05Z</time>
      </trkpt>
      <trkpt lat="43.53246" lon="3.49263">
        <ele>28.5</ele>
        <time>2019-01-07T07:35:07Z</time>
      </trkpt>
      <trkpt lat="43.53244" lon="3.4926">
        <ele>28.4</ele>
        <time>2019-01-07T07:35:09Z</time>
      </trkpt>
      <trkpt lat="43.53242" lon="3.49258">
        <ele>28.4</ele>
        <time>2019-01-07T07:35:11Z</time>
      </trkpt>
      <trkpt lat="43.5324" lon="3.49255">
        <ele>28.3</ele>
        <time>2019-01-07T07:35:13Z</time>
      </trkpt>
      <trkpt lat="43.53237" lon="3.49251">
        <ele>28.2</ele>
        <time>2019-01-07T07:35:16Z</time>
      </trkpt>
      <trkpt lat="43.53234" lon="3.4925">
        <ele>28.1</ele>
        <time>2019-01-07T07:35:18Z</time>
      </trkpt>
      <trkpt lat="43.53232" lon="3.49247">
        <ele>28.1</ele>
        <time>2019-01-07T07:35:20Z</time>
      </trkpt>
      <trkpt lat="43.53229" lon="3.49245">
        <ele>28.1</ele>
        <time>2019-01-07T07:35:22Z</time>
      </trkpt>
      <trkpt lat="43.53226" lon="3.49242">
        <ele>28.1</ele>
        <time>2019-01-07T07:35:24Z</time>
      </trkpt>
      <trkpt lat="43.53224" lon="3.49238">
        <ele>28.1</ele>
        <time>2019-01-07T07:35:26Z</time>
      </trkpt>
      <trkpt lat="43.53222" lon="3.49235">
        <ele>28</ele>
        <time>2019-01-07T07:35:28Z</time>
      </trkpt>
      <trkpt lat="43.53219" lon="3.49233">
        <ele>27.9</ele>
        <time>2019-01-07T07:35:30Z</time>
      </trkpt>
      <trkpt lat="43.53217" lon="3.4923">
        <ele>27.8</ele>
        <time>2019-01-07T07:35:32Z</time>
      </trkpt>
      <trkpt lat="43.53214" lon="3.49228">
        <ele>27.8</ele>
        <time>2019-01-07T07:35:34Z</time>
      </trkpt>
      <trkpt lat="43.53212" lon="3.49227">
        <ele>27.8</ele>
        <time>2019-01-07T07:35:36Z</time>
      </trkpt>
      <trkpt lat="43.53209" lon="3.49225">
        <ele>27.8</ele>
        <time>2019-01-07T07:35:38Z</time>
      </trkpt>
      <trkpt lat="43.53207" lon="3.49222">
        <ele>27.7</ele>
        <time>2019-01-07T07:35:40Z</time>
      </trkpt>
      <trkpt lat="43.53203" lon="3.49219">
        <ele>27.7</ele>
        <time>2019-01-07T07:35:42Z</time>
      </trkpt>
      <trkpt lat="43.532" lon="3.49217">
        <ele>27.7</ele>
        <time>2019-01-07T07:35:44Z</time>
      </trkpt>
      <trkpt lat="43.53198" lon="3.49215">
        <ele>27.8</ele>
        <time>2019-01-07T07:35:46Z</time>
      </trkpt>
      <trkpt lat="43.53195" lon="3.49212">
        <ele>27.8</ele>
        <time>2019-01-07T07:35:48Z</time>
      </trkpt>
      <trkpt lat="43.53192" lon="3.49211">
        <ele>27.8</ele>
        <time>2019-01-07T07:35:50Z</time>
      </trkpt>
      <trkpt lat="43.53189" lon="3.49209">
        <ele>27.8</ele>
        <time>2019-01-07T07:35:52Z</time>
      </trkpt>
      <trkpt lat="43.53186" lon="3.49208">
        <ele>27.9</ele>
        <time>2019-01-07T07:35:54Z</time>
      </trkpt>
      <trkpt lat="43.53182" lon="3.49207">
        <ele>27.9</ele>
        <time>2019-01-07T07:35:56Z</time>
      </trkpt>
      <trkpt lat="43.5318" lon="3.49205">
        <ele>27.9</ele>
        <time>2019-01-07T07:35:58Z</time>
      </trkpt>
      <trkpt lat="43.53177" lon="3.49203">
        <ele>27.9</ele>
        <time>2019-01-07T07:36:00Z</time>
      </trkpt>
      <trkpt lat="43.53174" lon="3.49201">
        <ele>27.9</ele>
        <time>2019-01-07T07:36:02Z</time>
      </trkpt>
      <trkpt lat="43.53172" lon="3.49198">
        <ele>27.8</ele>
        <time>2019-01-07T07:36:04Z</time>
      </trkpt>
      <trkpt lat="43.53169" lon="3.49196">
        <ele>27.8</ele>
        <time>2019-01-07T07:36:06Z</time>
      </trkpt>
      <trkpt lat="43.53167" lon="3.49194">
        <ele>27.8</ele>
        <time>2019-01-07T07:36:08Z</time>
      </trkpt>
      <trkpt lat="43.53164" lon="3.49192">
        <ele>27.8</ele>
        <time>2019-01-07T07:36:10Z</time>
      </trkpt>
      <trkpt lat="43.5316" lon="3.4919">
        <ele>27.8</ele>
        <time>2019-01-07T07:36:12Z</time>
      </trkpt>
      <trkpt lat="43.53158" lon="3.49188">
        <ele>27.8</ele>
        <time>2019-01-07T07:36:14Z</time>
      </trkpt>
      <trkpt lat="43.53155" lon="3.49187">
        <ele>27.7</ele>
        <time>2019-01-07T07:36:16Z</time>
      </trkpt>
      <trkpt lat="43.53153" lon="3.49185">
        <ele>27.7</ele>
        <time>2019-01-07T07:36:18Z</time>
      </trkpt>
      <trkpt lat="43.53151" lon="3.49183">
        <ele>27.6</ele>
        <time>2019-01-07T07:36:20Z</time>
      </trkpt>
      <trkpt lat="43.53147" lon="3.4918">
        <ele>27.6</ele>
        <time>2019-01-07T07:36:23Z</time>
      </trkpt>
      <trkpt lat="43.53144" lon="3.49178">
        <ele>27.6</ele>
        <time>2019-01-07T07:36:25Z</time>
      </trkpt>
      <trkpt lat="43.53141" lon="3.49176">
        <ele>27.6</ele>
        <time>2019-01-07T07:36:27Z</time>
      </trkpt>
      <trkpt lat="43.53139" lon="3.49174">
        <ele>27.6</ele>
        <time>2019-01-07T07:36:29Z</time>
      </trkpt>
      <trkpt lat="43.53136" lon="3.49172">
        <ele>27.6</ele>
        <time>2019-01-07T07:36:31Z</time>
      </trkpt>
      <trkpt lat="43.53133" lon="3.4917">
        <ele>27.6</ele>
        <time>2019-01-07T07:36:33Z</time>
      </trkpt>
      <trkpt lat="43.5313" lon="3.49166">
        <ele>27.5</ele>
        <time>2019-01-07T07:36:36Z</time>
      </trkpt>
      <trkpt lat="43.53127" lon="3.49164">
        <ele>27.5</ele>
        <time>2019-01-07T07:36:38Z</time>
      </trkpt>
      <trkpt lat="43.53125" lon="3.49162">
        <ele>27.5</ele>
        <time>2019-01-07T07:36:40Z</time>
      </trkpt>
      <trkpt lat="43.53122" lon="3.4916">
        <ele>27.5</ele>
        <time>2019-01-07T07:36:43Z</time>
      </trkpt>
      <trkpt lat="43.53119" lon="3.49158">
        <ele>27.5</ele>
        <time>2019-01-07T07:36:45Z</time>
      </trkpt>
      <trkpt lat="43.53116" lon="3.49155">
        <ele>27.5</ele>
        <time>2019-01-07T07:36:48Z</time>
      </trkpt>
      <trkpt lat="43.53113" lon="3.49153">
        <ele>27.5</ele>
        <time>2019-01-07T07:36:50Z</time>
      </trkpt>
      <trkpt lat="43.53111" lon="3.49151">
        <ele>27.5</ele>
        <time>2019-01-07T07:36:52Z</time>
      </trkpt>
      <trkpt lat="43.53108" lon="3.49149">
        <ele>27.4</ele>
        <time>2019-01-07T07:36:54Z</time>
      </trkpt>
      <trkpt lat="43.53105" lon="3.49147">
        <ele>27.4</ele>
        <time>2019-01-07T07:36:56Z</time>
      </trkpt>
      <trkpt lat="43.53102" lon="3.49145">
        <ele>27.4</ele>
        <time>2019-01-07T07:36:58Z</time>
      </trkpt>
      <trkpt lat="43.53099" lon="3.49143">
        <ele>27.4</ele>
        <time>2019-01-07T07:37:01Z</time>
      </trkpt>
      <trkpt lat="43.53096" lon="3.49141">
        <ele>27.4</ele>
        <time>2019-01-07T07:37:03Z</time>
      </trkpt>
      <trkpt lat="43.53093" lon="3.49139">
        <ele>27.4</ele>
        <time>2019-01-07T07:37:05Z</time>
      </trkpt>
      <trkpt lat="43.53091" lon="3.49136">
        <ele>27.5</ele>
        <time>2019-01-07T07:37:07Z</time>
      </trkpt>
      <trkpt lat="43.53089" lon="3.49134">
        <ele>27.5</ele>
        <time>2019-01-07T07:37:09Z</time>
      </trkpt>
      <trkpt lat="43.53086" lon="3.49132">
        <ele>27.5</ele>
        <time>2019-01-07T07:37:11Z</time>
      </trkpt>
      <trkpt lat="43.53082" lon="3.49129">
        <ele>27.5</ele>
        <time>2019-01-07T07:37:13Z</time>
      </trkpt>
      <trkpt lat="43.53078" lon="3.49127">
        <ele>27.6</ele>
        <time>2019-01-07T07:37:15Z</time>
      </trkpt>
      <trkpt lat="43.53075" lon="3.49125">
        <ele>27.6</ele>
        <time>2019-01-07T07:37:17Z</time>
      </trkpt>
      <trkpt lat="43.53072" lon="3.49121">
        <ele>27.6</ele>
        <time>2019-01-07T07:37:19Z</time>
      </trkpt>
      <trkpt lat="43.5307" lon="3.49118">
        <ele>27.6</ele>
        <time>2019-01-07T07:37:21Z</time>
      </trkpt>
      <trkpt lat="43.53068" lon="3.49115">
        <ele>27.7</ele>
        <time>2019-01-07T07:37:23Z</time>
      </trkpt>
      <trkpt lat="43.53066" lon="3.49111">
        <ele>27.7</ele>
        <time>2019-01-07T07:37:25Z</time>
      </trkpt>
      <trkpt lat="43.53065" lon="3.49106">
        <ele>27.7</ele>
        <time>2019-01-07T07:37:28Z</time>
      </trkpt>
      <trkpt lat="43.53063" lon="3.49103">
        <ele>27.7</ele>
        <time>2019-01-07T07:37:30Z</time>
      </trkpt>
      <trkpt lat="43.5306" lon="3.491">
        <ele>27.7</ele>
        <time>2019-01-07T07:37:33Z</time>
      </trkpt>
      <trkpt lat="43.53056" lon="3.49098">
        <ele>27.7</ele>
        <time>2019-01-07T07:37:40Z</time>
      </trkpt>
      <trkpt lat="43.53053" lon="3.49097">
        <ele>27.7</ele>
        <time>2019-01-07T07:37:42Z</time>
      </trkpt>
      <trkpt lat="43.5305" lon="3.49097">
        <ele>27.7</ele>
        <time>2019-01-07T07:37:44Z</time>
      </trkpt>
      <trkpt lat="43.53046" lon="3.49097">
        <ele>27.8</ele>
        <time>2019-01-07T07:37:48Z</time>
      </trkpt>
      <trkpt lat="43.53043" lon="3.49097">
        <ele>27.8</ele>
        <time>2019-01-07T07:37:50Z</time>
      </trkpt>
      <trkpt lat="43.5304" lon="3.49096">
        <ele>27.9</ele>
        <time>2019-01-07T07:37:52Z</time>
      </trkpt>
      <trkpt lat="43.53037" lon="3.49095">
        <ele>27.9</ele>
        <time>2019-01-07T07:37:54Z</time>
      </trkpt>
      <trkpt lat="43.53033" lon="3.49094">
        <ele>28</ele>
        <time>2019-01-07T07:37:56Z</time>
      </trkpt>
      <trkpt lat="43.5303" lon="3.49093">
        <ele>28</ele>
        <time>2019-01-07T07:37:58Z</time>
      </trkpt>
      <trkpt lat="43.53027" lon="3.4909">
        <ele>28</ele>
        <time>2019-01-07T07:38:00Z</time>
      </trkpt>
      <trkpt lat="43.53023" lon="3.49088">
        <ele>28.1</ele>
        <time>2019-01-07T07:38:02Z</time>
      </trkpt>
      <trkpt lat="43.5302" lon="3.49087">
        <ele>28.1</ele>
        <time>2019-01-07T07:38:04Z</time>
      </trkpt>
      <trkpt lat="43.53016" lon="3.49086">
        <ele>28</ele>
        <time>2019-01-07T07:38:06Z</time>
      </trkpt>
      <trkpt lat="43.53013" lon="3.49083">
        <ele>28</ele>
        <time>2019-01-07T07:38:09Z</time>
      </trkpt>
      <trkpt lat="43.53009" lon="3.4908">
        <ele>28.1</ele>
        <time>2019-01-07T07:38:12Z</time>
      </trkpt>
      <trkpt lat="43.53007" lon="3.49078">
        <ele>28.1</ele>
        <time>2019-01-07T07:38:14Z</time>
      </trkpt>
      <trkpt lat="43.53005" lon="3.49076">
        <ele>28.1</ele>
        <time>2019-01-07T07:38:17Z</time>
      </trkpt>
      <trkpt lat="43.53001" lon="3.49074">
        <ele>28.1</ele>
        <time>2019-01-07T07:38:20Z</time>
      </trkpt>
      <trkpt lat="43.52998" lon="3.49072">
        <ele>28</ele>
        <time>2019-01-07T07:38:22Z</time>
      </trkpt>
      <trkpt lat="43.52995" lon="3.4907">
        <ele>28</ele>
        <time>2019-01-07T07:38:24Z</time>
      </trkpt>
      <trkpt lat="43.52993" lon="3.49068">
        <ele>27.9</ele>
        <time>2019-01-07T07:38:26Z</time>
      </trkpt>
      <trkpt lat="43.5299" lon="3.49065">
        <ele>27.8</ele>
        <time>2019-01-07T07:38:28Z</time>
      </trkpt>
      <trkpt lat="43.52986" lon="3.49063">
        <ele>27.8</ele>
        <time>2019-01-07T07:38:30Z</time>
      </trkpt>
      <trkpt lat="43.52984" lon="3.4906">
        <ele>27.7</ele>
        <time>2019-01-07T07:38:32Z</time>
      </trkpt>
      <trkpt lat="43.52983" lon="3.49057">
        <ele>27.6</ele>
        <time>2019-01-07T07:38:34Z</time>
      </trkpt>
      <trkpt lat="43.52981" lon="3.49054">
        <ele>27.6</ele>
        <time>2019-01-07T07:38:36Z</time>
      </trkpt>
      <trkpt lat="43.52979" lon="3.49051">
        <ele>27.5</ele>
        <time>2019-01-07T07:38:38Z</time>
      </trkpt>
      <trkpt lat="43.52977" lon="3.49048">
        <ele>27.5</ele>
        <time>2019-01-07T07:38:40Z</time>
      </trkpt>
      <trkpt lat="43.52975" lon="3.49045">
        <ele>27.4</ele>
        <time>2019-01-07T07:38:42Z</time>
      </trkpt>
      <trkpt lat="43.52972" lon="3.49041">
        <ele>27.4</ele>
        <time>2019-01-07T07:38:44Z</time>
      </trkpt>
      <trkpt lat="43.5297" lon="3.49038">
        <ele>27.3</ele>
        <time>2019-01-07T07:38:46Z</time>
      </trkpt>
      <trkpt lat="43.52968" lon="3.49035">
        <ele>27.3</ele>
        <time>2019-01-07T07:38:48Z</time>
      </trkpt>
      <trkpt lat="43.52966" lon="3.49031">
        <ele>27.3</ele>
        <time>2019-01-07T07:38:50Z</time>
      </trkpt>
      <trkpt lat="43.52964" lon="3.49027">
        <ele>27.3</ele>
        <time>2019-01-07T07:38:52Z</time>
      </trkpt>
      <trkpt lat="43.52962" lon="3.49023">
        <ele>27.2</ele>
        <time>2019-01-07T07:38:55Z</time>
      </trkpt>
      <trkpt lat="43.52961" lon="3.49019">
        <ele>27.2</ele>
        <time>2019-01-07T07:38:57Z</time>
      </trkpt>
      <trkpt lat="43.52959" lon="3.49016">
        <ele>27.1</ele>
        <time>2019-01-07T07:38:59Z</time>
      </trkpt>
      <trkpt lat="43.52957" lon="3.49013">
        <ele>27.1</ele>
        <time>2019-01-07T07:39:01Z</time>
      </trkpt>
      <trkpt lat="43.52955" lon="3.49009">
        <ele>27.1</ele>
        <time>2019-01-07T07:39:04Z</time>
      </trkpt>
      <trkpt lat="43.52953" lon="3.49005">
        <ele>27.1</ele>
        <time>2019-01-07T07:39:06Z</time>
      </trkpt>
      <trkpt lat="43.52951" lon="3.49002">
        <ele>27</ele>
        <time>2019-01-07T07:39:08Z</time>
      </trkpt>
      <trkpt lat="43.5295" lon="3.48999">
        <ele>27</ele>
        <time>2019-01-07T07:39:10Z</time>
      </trkpt>
      <trkpt lat="43.52948" lon="3.48995">
        <ele>27</ele>
        <time>2019-01-07T07:39:12Z</time>
      </trkpt>
      <trkpt lat="43.52947" lon="3.48992">
        <ele>27</ele>
        <time>2019-01-07T07:39:14Z</time>
      </trkpt>
      <trkpt lat="43.52945" lon="3.48988">
        <ele>26.9</ele>
        <time>2019-01-07T07:39:16Z</time>
      </trkpt>
      <trkpt lat="43.52942" lon="3.48985">
        <ele>26.9</ele>
        <time>2019-01-07T07:39:18Z</time>
      </trkpt>
      <trkpt lat="43.52939" lon="3.48982">
        <ele>26.8</ele>
        <time>2019-01-07T07:39:20Z</time>
      </trkpt>
      <trkpt lat="43.52937" lon="3.4898">
        <ele>26.8</ele>
        <time>2019-01-07T07:39:22Z</time>
      </trkpt>
      <trkpt lat="43.52935" lon="3.48976">
        <ele>26.7</ele>
        <time>2019-01-07T07:39:24Z</time>
      </trkpt>
      <trkpt lat="43.52933" lon="3.48973">
        <ele>26.5</ele>
        <time>2019-01-07T07:39:26Z</time>
      </trkpt>
      <trkpt lat="43.52931" lon="3.4897">
        <ele>26.4</ele>
        <time>2019-01-07T07:39:28Z</time>
      </trkpt>
      <trkpt lat="43.5293" lon="3.48966">
        <ele>26.3</ele>
        <time>2019-01-07T07:39:30Z</time>
      </trkpt>
      <trkpt lat="43.52928" lon="3.48962">
        <ele>26.2</ele>
        <time>2019-01-07T07:39:32Z</time>
      </trkpt>
      <trkpt lat="43.52927" lon="3.48958">
        <ele>26.1</ele>
        <time>2019-01-07T07:39:34Z</time>
      </trkpt>
      <trkpt lat="43.52926" lon="3.48954">
        <ele>26</ele>
        <time>2019-01-07T07:39:36Z</time>
      </trkpt>
      <trkpt lat="43.52924" lon="3.48949">
        <ele>25.9</ele>
        <time>2019-01-07T07:39:38Z</time>
      </trkpt>
      <trkpt lat="43.52922" lon="3.48945">
        <ele>25.8</ele>
        <time>2019-01-07T07:39:40Z</time>
      </trkpt>
      <trkpt lat="43.5292" lon="3.48941">
        <ele>25.7</ele>
        <time>2019-01-07T07:39:42Z</time>
      </trkpt>
      <trkpt lat="43.52918" lon="3.48938">
        <ele>25.6</ele>
        <time>2019-01-07T07:39:44Z</time>
      </trkpt>
      <trkpt lat="43.52916" lon="3.48935">
        <ele>25.4</ele>
        <time>2019-01-07T07:39:46Z</time>
      </trkpt>
      <trkpt lat="43.52914" lon="3.48931">
        <ele>25.3</ele>
        <time>2019-01-07T07:39:48Z</time>
      </trkpt>
      <trkpt lat="43.52912" lon="3.48927">
        <ele>25.1</ele>
        <time>2019-01-07T07:39:51Z</time>
      </trkpt>
      <trkpt lat="43.5291" lon="3.48923">
        <ele>25</ele>
        <time>2019-01-07T07:39:53Z</time>
      </trkpt>
      <trkpt lat="43.52908" lon="3.48919">
        <ele>24.9</ele>
        <time>2019-01-07T07:39:55Z</time>
      </trkpt>
      <trkpt lat="43.52906" lon="3.48915">
        <ele>24.9</ele>
        <time>2019-01-07T07:39:57Z</time>
      </trkpt>
      <trkpt lat="43.52905" lon="3.48911">
        <ele>24.8</ele>
        <time>2019-01-07T07:39:59Z</time>
      </trkpt>
      <trkpt lat="43.52903" lon="3.48908">
        <ele>24.7</ele>
        <time>2019-01-07T07:40:01Z</time>
      </trkpt>
      <trkpt lat="43.52901" lon="3.48905">
        <ele>24.6</ele>
        <time>2019-01-07T07:40:03Z</time>
      </trkpt>
      <trkpt lat="43.52899" lon="3.48902">
        <ele>24.6</ele>
        <time>2019-01-07T07:40:05Z</time>
      </trkpt>
      <trkpt lat="43.52897" lon="3.48898">
        <ele>24.5</ele>
        <time>2019-01-07T07:40:07Z</time>
      </trkpt>
      <trkpt lat="43.52896" lon="3.48894">
        <ele>24.4</ele>
        <time>2019-01-07T07:40:09Z</time>
      </trkpt>
      <trkpt lat="43.52894" lon="3.4889">
        <ele>24.4</ele>
        <time>2019-01-07T07:40:11Z</time>
      </trkpt>
      <trkpt lat="43.52893" lon="3.48886">
        <ele>24.3</ele>
        <time>2019-01-07T07:40:13Z</time>
      </trkpt>
      <trkpt lat="43.52892" lon="3.48883">
        <ele>24.3</ele>
        <time>2019-01-07T07:40:15Z</time>
      </trkpt>
      <trkpt lat="43.5289" lon="3.4888">
        <ele>24.2</ele>
        <time>2019-01-07T07:40:18Z</time>
      </trkpt>
      <trkpt lat="43.52888" lon="3.48876">
        <ele>24.2</ele>
        <time>2019-01-07T07:40:21Z</time>
      </trkpt>
      <trkpt lat="43.52887" lon="3.48872">
        <ele>24.1</ele>
        <time>2019-01-07T07:40:23Z</time>
      </trkpt>
      <trkpt lat="43.52887" lon="3.48867">
        <ele>24.1</ele>
        <time>2019-01-07T07:40:25Z</time>
      </trkpt>
      <trkpt lat="43.52886" lon="3.48862">
        <ele>24.1</ele>
        <time>2019-01-07T07:40:27Z</time>
      </trkpt>
      <trkpt lat="43.52885" lon="3.48858">
        <ele>24.1</ele>
        <time>2019-01-07T07:40:29Z</time>
      </trkpt>
      <trkpt lat="43.52883" lon="3.48854">
        <ele>24.1</ele>
        <time>2019-01-07T07:40:31Z</time>
      </trkpt>
      <trkpt lat="43.52882" lon="3.4885">
        <ele>24.1</ele>
        <time>2019-01-07T07:40:33Z</time>
      </trkpt>
      <trkpt lat="43.52882" lon="3.48846">
        <ele>24.1</ele>
        <time>2019-01-07T07:40:35Z</time>
      </trkpt>
      <trkpt lat="43.52881" lon="3.48841">
        <ele>24.1</ele>
        <time>2019-01-07T07:40:37Z</time>
      </trkpt>
      <trkpt lat="43.5288" lon="3.48836">
        <ele>24.1</ele>
        <time>2019-01-07T07:40:39Z</time>
      </trkpt>
      <trkpt lat="43.52879" lon="3.48832">
        <ele>24.1</ele>
        <time>2019-01-07T07:40:41Z</time>
      </trkpt>
      <trkpt lat="43.52878" lon="3.48828">
        <ele>24.1</ele>
        <time>2019-01-07T07:40:43Z</time>
      </trkpt>
      <trkpt lat="43.52877" lon="3.48824">
        <ele>24.1</ele>
        <time>2019-01-07T07:40:45Z</time>
      </trkpt>
      <trkpt lat="43.52877" lon="3.4882">
        <ele>24.2</ele>
        <time>2019-01-07T07:40:47Z</time>
      </trkpt>
      <trkpt lat="43.52876" lon="3.48816">
        <ele>24.2</ele>
        <time>2019-01-07T07:40:49Z</time>
      </trkpt>
      <trkpt lat="43.52875" lon="3.48812">
        <ele>24.2</ele>
        <time>2019-01-07T07:40:51Z</time>
      </trkpt>
      <trkpt lat="43.52874" lon="3.48808">
        <ele>24.3</ele>
        <time>2019-01-07T07:40:53Z</time>
      </trkpt>
      <trkpt lat="43.52874" lon="3.48803">
        <ele>24.3</ele>
        <time>2019-01-07T07:40:55Z</time>
      </trkpt>
      <trkpt lat="43.52873" lon="3.48798">
        <ele>24.3</ele>
        <time>2019-01-07T07:40:57Z</time>
      </trkpt>
      <trkpt lat="43.52872" lon="3.48794">
        <ele>24.3</ele>
        <time>2019-01-07T07:40:59Z</time>
      </trkpt>
      <trkpt lat="43.52871" lon="3.4879">
        <ele>24.4</ele>
        <time>2019-01-07T07:41:01Z</time>
      </trkpt>
      <trkpt lat="43.52869" lon="3.48787">
        <ele>24.4</ele>
        <time>2019-01-07T07:41:03Z</time>
      </trkpt>
      <trkpt lat="43.52868" lon="3.48783">
        <ele>24.4</ele>
        <time>2019-01-07T07:41:05Z</time>
      </trkpt>
      <trkpt lat="43.52866" lon="3.4878">
        <ele>24.4</ele>
        <time>2019-01-07T07:41:07Z</time>
      </trkpt>
      <trkpt lat="43.52864" lon="3.48777">
        <ele>24.5</ele>
        <time>2019-01-07T07:41:09Z</time>
      </trkpt>
      <trkpt lat="43.52862" lon="3.48775">
        <ele>24.5</ele>
        <time>2019-01-07T07:41:11Z</time>
      </trkpt>
      <trkpt lat="43.52859" lon="3.48772">
        <ele>24.5</ele>
        <time>2019-01-07T07:41:13Z</time>
      </trkpt>
      <trkpt lat="43.52858" lon="3.48768">
        <ele>24.5</ele>
        <time>2019-01-07T07:41:15Z</time>
      </trkpt>
      <trkpt lat="43.52855" lon="3.48765">
        <ele>24.5</ele>
        <time>2019-01-07T07:41:17Z</time>
      </trkpt>
      <trkpt lat="43.52852" lon="3.48763">
        <ele>24.5</ele>
        <time>2019-01-07T07:41:19Z</time>
      </trkpt>
      <trkpt lat="43.5285" lon="3.4876">
        <ele>24.5</ele>
        <time>2019-01-07T07:41:21Z</time>
      </trkpt>
      <trkpt lat="43.52847" lon="3.48756">
        <ele>24.5</ele>
        <time>2019-01-07T07:41:23Z</time>
      </trkpt>
      <trkpt lat="43.52845" lon="3.48754">
        <ele>24.5</ele>
        <time>2019-01-07T07:41:25Z</time>
      </trkpt>
      <trkpt lat="43.52842" lon="3.48751">
        <ele>24.5</ele>
        <time>2019-01-07T07:41:27Z</time>
      </trkpt>
      <trkpt lat="43.5284" lon="3.48749">
        <ele>24.5</ele>
        <time>2019-01-07T07:41:29Z</time>
      </trkpt>
      <trkpt lat="43.52837" lon="3.48745">
        <ele>24.5</ele>
        <time>2019-01-07T07:41:32Z</time>
      </trkpt>
      <trkpt lat="43.52835" lon="3.48743">
        <ele>24.5</ele>
        <time>2019-01-07T07:41:34Z</time>
      </trkpt>
      <trkpt lat="43.52832" lon="3.48739">
        <ele>24.5</ele>
        <time>2019-01-07T07:41:37Z</time>
      </trkpt>
      <trkpt lat="43.5283" lon="3.48735">
        <ele>24.6</ele>
        <time>2019-01-07T07:41:39Z</time>
      </trkpt>
      <trkpt lat="43.52828" lon="3.48732">
        <ele>24.6</ele>
        <time>2019-01-07T07:41:41Z</time>
      </trkpt>
      <trkpt lat="43.52826" lon="3.4873">
        <ele>24.6</ele>
        <time>2019-01-07T07:41:43Z</time>
      </trkpt>
      <trkpt lat="43.52825" lon="3.48726">
        <ele>24.6</ele>
        <time>2019-01-07T07:41:45Z</time>
      </trkpt>
      <trkpt lat="43.52823" lon="3.48723">
        <ele>24.6</ele>
        <time>2019-01-07T07:41:47Z</time>
      </trkpt>
      <trkpt lat="43.52821" lon="3.48718">
        <ele>24.6</ele>
        <time>2019-01-07T07:41:50Z</time>
      </trkpt>
      <trkpt lat="43.52817" lon="3.48715">
        <ele>24.6</ele>
        <time>2019-01-07T07:41:53Z</time>
      </trkpt>
      <trkpt lat="43.52814" lon="3.48711">
        <ele>24.6</ele>
        <time>2019-01-07T07:41:55Z</time>
      </trkpt>
      <trkpt lat="43.52812" lon="3.48708">
        <ele>24.6</ele>
        <time>2019-01-07T07:41:57Z</time>
      </trkpt>
      <trkpt lat="43.5281" lon="3.48705">
        <ele>24.6</ele>
        <time>2019-01-07T07:41:59Z</time>
      </trkpt>
      <trkpt lat="43.52808" lon="3.48701">
        <ele>24.6</ele>
        <time>2019-01-07T07:42:01Z</time>
      </trkpt>
      <trkpt lat="43.52806" lon="3.48698">
        <ele>24.6</ele>
        <time>2019-01-07T07:42:03Z</time>
      </trkpt>
      <trkpt lat="43.52804" lon="3.48695">
        <ele>24.6</ele>
        <time>2019-01-07T07:42:05Z</time>
      </trkpt>
      <trkpt lat="43.52802" lon="3.48692">
        <ele>24.6</ele>
        <time>2019-01-07T07:42:07Z</time>
      </trkpt>
      <trkpt lat="43.528" lon="3.48688">
        <ele>24.6</ele>
        <time>2019-01-07T07:42:09Z</time>
      </trkpt>
      <trkpt lat="43.52799" lon="3.48685">
        <ele>24.6</ele>
        <time>2019-01-07T07:42:11Z</time>
      </trkpt>
      <trkpt lat="43.52798" lon="3.48682">
        <ele>24.6</ele>
        <time>2019-01-07T07:42:13Z</time>
      </trkpt>
      <trkpt lat="43.52794" lon="3.4868">
        <ele>24.6</ele>
        <time>2019-01-07T07:42:15Z</time>
      </trkpt>
      <trkpt lat="43.52791" lon="3.48679">
        <ele>24.6</ele>
        <time>2019-01-07T07:42:17Z</time>
      </trkpt>
      <trkpt lat="43.52788" lon="3.48678">
        <ele>24.6</ele>
        <time>2019-01-07T07:42:19Z</time>
      </trkpt>
      <trkpt lat="43.52784" lon="3.48676">
        <ele>24.6</ele>
        <time>2019-01-07T07:42:21Z</time>
      </trkpt>
      <trkpt lat="43.5278" lon="3.48673">
        <ele>24.6</ele>
        <time>2019-01-07T07:42:23Z</time>
      </trkpt>
      <trkpt lat="43.52777" lon="3.48672">
        <ele>24.6</ele>
        <time>2019-01-07T07:42:25Z</time>
      </trkpt>
      <trkpt lat="43.52773" lon="3.48672">
        <ele>24.6</ele>
        <time>2019-01-07T07:42:27Z</time>
      </trkpt>
      <trkpt lat="43.52769" lon="3.48673">
        <ele>24.6</ele>
        <time>2019-01-07T07:42:29Z</time>
      </trkpt>
      <trkpt lat="43.52766" lon="3.48673">
        <ele>24.6</ele>
        <time>2019-01-07T07:42:31Z</time>
      </trkpt>
      <trkpt lat="43.52763" lon="3.48674">
        <ele>24.6</ele>
        <time>2019-01-07T07:42:33Z</time>
      </trkpt>
      <trkpt lat="43.52759" lon="3.48674">
        <ele>24.6</ele>
        <time>2019-01-07T07:42:35Z</time>
      </trkpt>
      <trkpt lat="43.52756" lon="3.48674">
        <ele>24.6</ele>
        <time>2019-01-07T07:42:37Z</time>
      </trkpt>
      <trkpt lat="43.52753" lon="3.48674">
        <ele>24.6</ele>
        <time>2019-01-07T07:42:39Z</time>
      </trkpt>
      <trkpt lat="43.52749" lon="3.48674">
        <ele>24.5</ele>
        <time>2019-01-07T07:42:41Z</time>
      </trkpt>
      <trkpt lat="43.52746" lon="3.48675">
        <ele>24.5</ele>
        <time>2019-01-07T07:42:43Z</time>
      </trkpt>
      <trkpt lat="43.52742" lon="3.48676">
        <ele>24.5</ele>
        <time>2019-01-07T07:42:45Z</time>
      </trkpt>
      <trkpt lat="43.52739" lon="3.48677">
        <ele>24.5</ele>
        <time>2019-01-07T07:42:47Z</time>
      </trkpt>
      <trkpt lat="43.52736" lon="3.48677">
        <ele>24.4</ele>
        <time>2019-01-07T07:42:49Z</time>
      </trkpt>
      <trkpt lat="43.52732" lon="3.48677">
        <ele>24.4</ele>
        <time>2019-01-07T07:42:51Z</time>
      </trkpt>
      <trkpt lat="43.52729" lon="3.48678">
        <ele>24.3</ele>
        <time>2019-01-07T07:42:53Z</time>
      </trkpt>
      <trkpt lat="43.52726" lon="3.48677">
        <ele>24.3</ele>
        <time>2019-01-07T07:42:55Z</time>
      </trkpt>
      <trkpt lat="43.52723" lon="3.48677">
        <ele>24.2</ele>
        <time>2019-01-07T07:42:57Z</time>
      </trkpt>
      <trkpt lat="43.5272" lon="3.48678">
        <ele>24.2</ele>
        <time>2019-01-07T07:42:59Z</time>
      </trkpt>
      <trkpt lat="43.52717" lon="3.48679">
        <ele>24.1</ele>
        <time>2019-01-07T07:43:01Z</time>
      </trkpt>
      <trkpt lat="43.52714" lon="3.4868">
        <ele>24</ele>
        <time>2019-01-07T07:43:03Z</time>
      </trkpt>
      <trkpt lat="43.52711" lon="3.48681">
        <ele>23.9</ele>
        <time>2019-01-07T07:43:05Z</time>
      </trkpt>
      <trkpt lat="43.52708" lon="3.48682">
        <ele>23.9</ele>
        <time>2019-01-07T07:43:07Z</time>
      </trkpt>
      <trkpt lat="43.52705" lon="3.48682">
        <ele>23.8</ele>
        <time>2019-01-07T07:43:09Z</time>
      </trkpt>
      <trkpt lat="43.52702" lon="3.48682">
        <ele>23.7</ele>
        <time>2019-01-07T07:43:11Z</time>
      </trkpt>
      <trkpt lat="43.52698" lon="3.48682">
        <ele>23.6</ele>
        <time>2019-01-07T07:43:14Z</time>
      </trkpt>
      <trkpt lat="43.52695" lon="3.48681">
        <ele>23.6</ele>
        <time>2019-01-07T07:43:16Z</time>
      </trkpt>
      <trkpt lat="43.52691" lon="3.48681">
        <ele>23.4</ele>
        <time>2019-01-07T07:43:18Z</time>
      </trkpt>
      <trkpt lat="43.52688" lon="3.48681">
        <ele>23.4</ele>
        <time>2019-01-07T07:43:20Z</time>
      </trkpt>
      <trkpt lat="43.52684" lon="3.4868">
        <ele>23.3</ele>
        <time>2019-01-07T07:43:23Z</time>
      </trkpt>
      <trkpt lat="43.52681" lon="3.48679">
        <ele>23.2</ele>
        <time>2019-01-07T07:43:25Z</time>
      </trkpt>
      <trkpt lat="43.52677" lon="3.48679">
        <ele>23.1</ele>
        <time>2019-01-07T07:43:27Z</time>
      </trkpt>
      <trkpt lat="43.52674" lon="3.48678">
        <ele>23.1</ele>
        <time>2019-01-07T07:43:29Z</time>
      </trkpt>
      <trkpt lat="43.52671" lon="3.48677">
        <ele>23</ele>
        <time>2019-01-07T07:43:31Z</time>
      </trkpt>
      <trkpt lat="43.52668" lon="3.48676">
        <ele>23</ele>
        <time>2019-01-07T07:43:33Z</time>
      </trkpt>
      <trkpt lat="43.52665" lon="3.48675">
        <ele>23</ele>
        <time>2019-01-07T07:43:35Z</time>
      </trkpt>
      <trkpt lat="43.52662" lon="3.48674">
        <ele>22.9</ele>
        <time>2019-01-07T07:43:37Z</time>
      </trkpt>
      <trkpt lat="43.5266" lon="3.48673">
        <ele>22.9</ele>
        <time>2019-01-07T07:43:39Z</time>
      </trkpt>
      <trkpt lat="43.52656" lon="3.48671">
        <ele>22.8</ele>
        <time>2019-01-07T07:43:41Z</time>
      </trkpt>
      <trkpt lat="43.52652" lon="3.48671">
        <ele>22.8</ele>
        <time>2019-01-07T07:43:43Z</time>
      </trkpt>
      <trkpt lat="43.52649" lon="3.4867">
        <ele>22.8</ele>
        <time>2019-01-07T07:43:45Z</time>
      </trkpt>
      <trkpt lat="43.52645" lon="3.4867">
        <ele>22.8</ele>
        <time>2019-01-07T07:43:47Z</time>
      </trkpt>
      <trkpt lat="43.52642" lon="3.48669">
        <ele>22.8</ele>
        <time>2019-01-07T07:43:49Z</time>
      </trkpt>
      <trkpt lat="43.52639" lon="3.48667">
        <ele>22.8</ele>
        <time>2019-01-07T07:43:52Z</time>
      </trkpt>
      <trkpt lat="43.52636" lon="3.48665">
        <ele>22.8</ele>
        <time>2019-01-07T07:43:54Z</time>
      </trkpt>
      <trkpt lat="43.52633" lon="3.48664">
        <ele>22.8</ele>
        <time>2019-01-07T07:43:56Z</time>
      </trkpt>
      <trkpt lat="43.5263" lon="3.48663">
        <ele>22.8</ele>
        <time>2019-01-07T07:43:58Z</time>
      </trkpt>
      <trkpt lat="43.52627" lon="3.48662">
        <ele>22.8</ele>
        <time>2019-01-07T07:44:00Z</time>
      </trkpt>
      <trkpt lat="43.52624" lon="3.48661">
        <ele>22.8</ele>
        <time>2019-01-07T07:44:03Z</time>
      </trkpt>
      <trkpt lat="43.5262" lon="3.48659">
        <ele>22.8</ele>
        <time>2019-01-07T07:44:06Z</time>
      </trkpt>
      <trkpt lat="43.52617" lon="3.48659">
        <ele>22.8</ele>
        <time>2019-01-07T07:44:08Z</time>
      </trkpt>
      <trkpt lat="43.52614" lon="3.48656">
        <ele>22.8</ele>
        <time>2019-01-07T07:44:11Z</time>
      </trkpt>
      <trkpt lat="43.52611" lon="3.48654">
        <ele>22.8</ele>
        <time>2019-01-07T07:44:13Z</time>
      </trkpt>
      <trkpt lat="43.52608" lon="3.48652">
        <ele>22.8</ele>
        <time>2019-01-07T07:44:15Z</time>
      </trkpt>
      <trkpt lat="43.52605" lon="3.4865">
        <ele>22.8</ele>
        <time>2019-01-07T07:44:17Z</time>
      </trkpt>
      <trkpt lat="43.52602" lon="3.48648">
        <ele>22.9</ele>
        <time>2019-01-07T07:44:19Z</time>
      </trkpt>
      <trkpt lat="43.52599" lon="3.48646">
        <ele>22.9</ele>
        <time>2019-01-07T07:44:21Z</time>
      </trkpt>
      <trkpt lat="43.52596" lon="3.48645">
        <ele>22.9</ele>
        <time>2019-01-07T07:44:23Z</time>
      </trkpt>
      <trkpt lat="43.52593" lon="3.48643">
        <ele>22.9</ele>
        <time>2019-01-07T07:44:25Z</time>
      </trkpt>
      <trkpt lat="43.5259" lon="3.4864">
        <ele>22.8</ele>
        <time>2019-01-07T07:44:27Z</time>
      </trkpt>
      <trkpt lat="43.52588" lon="3.48637">
        <ele>22.8</ele>
        <time>2019-01-07T07:44:29Z</time>
      </trkpt>
      <trkpt lat="43.52586" lon="3.48634">
        <ele>22.8</ele>
        <time>2019-01-07T07:44:31Z</time>
      </trkpt>
      <trkpt lat="43.52583" lon="3.48632">
        <ele>22.8</ele>
        <time>2019-01-07T07:44:33Z</time>
      </trkpt>
      <trkpt lat="43.52579" lon="3.48631">
        <ele>22.8</ele>
        <time>2019-01-07T07:44:35Z</time>
      </trkpt>
      <trkpt lat="43.52577" lon="3.48629">
        <ele>22.8</ele>
        <time>2019-01-07T07:44:37Z</time>
      </trkpt>
      <trkpt lat="43.52575" lon="3.48626">
        <ele>22.8</ele>
        <time>2019-01-07T07:44:39Z</time>
      </trkpt>
      <trkpt lat="43.52572" lon="3.48623">
        <ele>22.8</ele>
        <time>2019-01-07T07:44:42Z</time>
      </trkpt>
      <trkpt lat="43.52569" lon="3.48621">
        <ele>22.9</ele>
        <time>2019-01-07T07:44:44Z</time>
      </trkpt>
      <trkpt lat="43.52567" lon="3.48619">
        <ele>22.9</ele>
        <time>2019-01-07T07:44:46Z</time>
      </trkpt>
      <trkpt lat="43.52564" lon="3.48617">
        <ele>22.9</ele>
        <time>2019-01-07T07:44:48Z</time>
      </trkpt>
      <trkpt lat="43.52561" lon="3.48615">
        <ele>23</ele>
        <time>2019-01-07T07:44:50Z</time>
      </trkpt>
      <trkpt lat="43.52559" lon="3.48613">
        <ele>23</ele>
        <time>2019-01-07T07:44:52Z</time>
      </trkpt>
      <trkpt lat="43.52555" lon="3.48611">
        <ele>23.1</ele>
        <time>2019-01-07T07:44:54Z</time>
      </trkpt>
      <trkpt lat="43.52552" lon="3.48609">
        <ele>23.2</ele>
        <time>2019-01-07T07:44:56Z</time>
      </trkpt>
      <trkpt lat="43.52549" lon="3.48607">
        <ele>23.3</ele>
        <time>2019-01-07T07:44:58Z</time>
      </trkpt>
      <trkpt lat="43.52547" lon="3.48605">
        <ele>23.4</ele>
        <time>2019-01-07T07:45:00Z</time>
      </trkpt>
      <trkpt lat="43.52544" lon="3.48603">
        <ele>23.5</ele>
        <time>2019-01-07T07:45:03Z</time>
      </trkpt>
      <trkpt lat="43.52541" lon="3.48601">
        <ele>23.6</ele>
        <time>2019-01-07T07:45:05Z</time>
      </trkpt>
      <trkpt lat="43.52539" lon="3.48599">
        <ele>23.7</ele>
        <time>2019-01-07T07:45:07Z</time>
      </trkpt>
      <trkpt lat="43.52536" lon="3.48597">
        <ele>23.8</ele>
        <time>2019-01-07T07:45:09Z</time>
      </trkpt>
      <trkpt lat="43.52533" lon="3.48594">
        <ele>24</ele>
        <time>2019-01-07T07:45:11Z</time>
      </trkpt>
      <trkpt lat="43.52531" lon="3.48591">
        <ele>24.1</ele>
        <time>2019-01-07T07:45:13Z</time>
      </trkpt>
      <trkpt lat="43.52528" lon="3.48588">
        <ele>24.3</ele>
        <time>2019-01-07T07:45:16Z</time>
      </trkpt>
      <trkpt lat="43.52525" lon="3.48585">
        <ele>24.4</ele>
        <time>2019-01-07T07:45:19Z</time>
      </trkpt>
      <trkpt lat="43.52521" lon="3.48583">
        <ele>24.5</ele>
        <time>2019-01-07T07:45:22Z</time>
      </trkpt>
      <trkpt lat="43.52518" lon="3.4858">
        <ele>24.7</ele>
        <time>2019-01-07T07:45:24Z</time>
      </trkpt>
      <trkpt lat="43.52514" lon="3.48578">
        <ele>24.8</ele>
        <time>2019-01-07T07:45:26Z</time>
      </trkpt>
      <trkpt lat="43.52511" lon="3.48576">
        <ele>24.9</ele>
        <time>2019-01-07T07:45:28Z</time>
      </trkpt>
      <trkpt lat="43.52508" lon="3.48573">
        <ele>25</ele>
        <time>2019-01-07T07:45:31Z</time>
      </trkpt>
      <trkpt lat="43.52504" lon="3.48571">
        <ele>25.1</ele>
        <time>2019-01-07T07:45:33Z</time>
      </trkpt>
      <trkpt lat="43.52501" lon="3.48568">
        <ele>25.2</ele>
        <time>2019-01-07T07:45:35Z</time>
      </trkpt>
      <trkpt lat="43.52497" lon="3.48566">
        <ele>25.3</ele>
        <time>2019-01-07T07:45:37Z</time>
      </trkpt>
      <trkpt lat="43.52495" lon="3.48563">
        <ele>25.4</ele>
        <time>2019-01-07T07:45:39Z</time>
      </trkpt>
      <trkpt lat="43.52492" lon="3.48561">
        <ele>25.5</ele>
        <time>2019-01-07T07:45:41Z</time>
      </trkpt>
      <trkpt lat="43.52489" lon="3.48558">
        <ele>25.6</ele>
        <time>2019-01-07T07:45:43Z</time>
      </trkpt>
      <trkpt lat="43.52487" lon="3.48556">
        <ele>25.7</ele>
        <time>2019-01-07T07:45:45Z</time>
      </trkpt>
      <trkpt lat="43.52485" lon="3.48552">
        <ele>25.8</ele>
        <time>2019-01-07T07:45:48Z</time>
      </trkpt>
      <trkpt lat="43.52482" lon="3.48549">
        <ele>25.9</ele>
        <time>2019-01-07T07:45:50Z</time>
      </trkpt>
      <trkpt lat="43.52479" lon="3.48546">
        <ele>26</ele>
        <time>2019-01-07T07:45:52Z</time>
      </trkpt>
      <trkpt lat="43.52476" lon="3.48543">
        <ele>26.1</ele>
        <time>2019-01-07T07:45:54Z</time>
      </trkpt>
      <trkpt lat="43.52473" lon="3.4854">
        <ele>26.3</ele>
        <time>2019-01-07T07:45:56Z</time>
      </trkpt>
      <trkpt lat="43.5247" lon="3.48538">
        <ele>26.5</ele>
        <time>2019-01-07T07:45:58Z</time>
      </trkpt>
      <trkpt lat="43.52467" lon="3.48536">
        <ele>26.6</ele>
        <time>2019-01-07T07:46:00Z</time>
      </trkpt>
      <trkpt lat="43.52463" lon="3.48533">
        <ele>26.7</ele>
        <time>2019-01-07T07:46:02Z</time>
      </trkpt>
      <trkpt lat="43.5246" lon="3.4853">
        <ele>26.8</ele>
        <time>2019-01-07T07:46:04Z</time>
      </trkpt>
      <trkpt lat="43.52457" lon="3.48529">
        <ele>27</ele>
        <time>2019-01-07T07:46:06Z</time>
      </trkpt>
      <trkpt lat="43.52454" lon="3.48526">
        <ele>27.1</ele>
        <time>2019-01-07T07:46:08Z</time>
      </trkpt>
      <trkpt lat="43.52452" lon="3.48524">
        <ele>27.2</ele>
        <time>2019-01-07T07:46:10Z</time>
      </trkpt>
      <trkpt lat="43.52449" lon="3.48521">
        <ele>27.2</ele>
        <time>2019-01-07T07:46:12Z</time>
      </trkpt>
      <trkpt lat="43.52447" lon="3.48519">
        <ele>27.3</ele>
        <time>2019-01-07T07:46:14Z</time>
      </trkpt>
      <trkpt lat="43.52445" lon="3.48517">
        <ele>27.4</ele>
        <time>2019-01-07T07:46:16Z</time>
      </trkpt>
      <trkpt lat="43.52442" lon="3.48515">
        <ele>27.4</ele>
        <time>2019-01-07T07:46:18Z</time>
      </trkpt>
      <trkpt lat="43.5244" lon="3.48513">
        <ele>27.4</ele>
        <time>2019-01-07T07:46:20Z</time>
      </trkpt>
      <trkpt lat="43.52437" lon="3.48511">
        <ele>27.5</ele>
        <time>2019-01-07T07:46:22Z</time>
      </trkpt>
      <trkpt lat="43.52433" lon="3.48509">
        <ele>27.5</ele>
        <time>2019-01-07T07:46:24Z</time>
      </trkpt>
      <trkpt lat="43.5243" lon="3.48508">
        <ele>27.6</ele>
        <time>2019-01-07T07:46:26Z</time>
      </trkpt>
      <trkpt lat="43.52427" lon="3.48505">
        <ele>27.6</ele>
        <time>2019-01-07T07:46:29Z</time>
      </trkpt>
      <trkpt lat="43.52425" lon="3.48503">
        <ele>27.5</ele>
        <time>2019-01-07T07:46:31Z</time>
      </trkpt>
      <trkpt lat="43.52423" lon="3.485">
        <ele>27.5</ele>
        <time>2019-01-07T07:46:33Z</time>
      </trkpt>
      <trkpt lat="43.5242" lon="3.48498">
        <ele>27.5</ele>
        <time>2019-01-07T07:46:35Z</time>
      </trkpt>
      <trkpt lat="43.52417" lon="3.48496">
        <ele>27.4</ele>
        <time>2019-01-07T07:46:37Z</time>
      </trkpt>
      <trkpt lat="43.52414" lon="3.48494">
        <ele>27.4</ele>
        <time>2019-01-07T07:46:39Z</time>
      </trkpt>
      <trkpt lat="43.52411" lon="3.48492">
        <ele>27.3</ele>
        <time>2019-01-07T07:46:41Z</time>
      </trkpt>
      <trkpt lat="43.52408" lon="3.4849">
        <ele>27.3</ele>
        <time>2019-01-07T07:46:43Z</time>
      </trkpt>
      <trkpt lat="43.52405" lon="3.48489">
        <ele>27.3</ele>
        <time>2019-01-07T07:46:45Z</time>
      </trkpt>
      <trkpt lat="43.52402" lon="3.48488">
        <ele>27.3</ele>
        <time>2019-01-07T07:46:47Z</time>
      </trkpt>
      <trkpt lat="43.52399" lon="3.48487">
        <ele>27.3</ele>
        <time>2019-01-07T07:46:49Z</time>
      </trkpt>
      <trkpt lat="43.52395" lon="3.48487">
        <ele>27.3</ele>
        <time>2019-01-07T07:46:53Z</time>
      </trkpt>
      <trkpt lat="43.52393" lon="3.4849">
        <ele>27.3</ele>
        <time>2019-01-07T07:46:56Z</time>
      </trkpt>
      <trkpt lat="43.5239" lon="3.48491">
        <ele>27.3</ele>
        <time>2019-01-07T07:47:00Z</time>
      </trkpt>
      <trkpt lat="43.52387" lon="3.4849">
        <ele>27.3</ele>
        <time>2019-01-07T07:47:02Z</time>
      </trkpt>
      <trkpt lat="43.52383" lon="3.48489">
        <ele>27.2</ele>
        <time>2019-01-07T07:47:05Z</time>
      </trkpt>
      <trkpt lat="43.5238" lon="3.48488">
        <ele>27.1</ele>
        <time>2019-01-07T07:47:07Z</time>
      </trkpt>
      <trkpt lat="43.52377" lon="3.48486">
        <ele>27.1</ele>
        <time>2019-01-07T07:47:10Z</time>
      </trkpt>
      <trkpt lat="43.52374" lon="3.48485">
        <ele>27</ele>
        <time>2019-01-07T07:47:12Z</time>
      </trkpt>
      <trkpt lat="43.52371" lon="3.48483">
        <ele>26.9</ele>
        <time>2019-01-07T07:47:15Z</time>
      </trkpt>
      <trkpt lat="43.52368" lon="3.48481">
        <ele>26.9</ele>
        <time>2019-01-07T07:47:17Z</time>
      </trkpt>
      <trkpt lat="43.52365" lon="3.48478">
        <ele>26.8</ele>
        <time>2019-01-07T07:47:20Z</time>
      </trkpt>
      <trkpt lat="43.52361" lon="3.48478">
        <ele>26.7</ele>
        <time>2019-01-07T07:47:23Z</time>
      </trkpt>
      <trkpt lat="43.52358" lon="3.48475">
        <ele>26.6</ele>
        <time>2019-01-07T07:47:26Z</time>
      </trkpt>
      <trkpt lat="43.52356" lon="3.48471">
        <ele>26.5</ele>
        <time>2019-01-07T07:47:29Z</time>
      </trkpt>
      <trkpt lat="43.52352" lon="3.48469">
        <ele>26.5</ele>
        <time>2019-01-07T07:47:32Z</time>
      </trkpt>
      <trkpt lat="43.52349" lon="3.48468">
        <ele>26.4</ele>
        <time>2019-01-07T07:47:35Z</time>
      </trkpt>
      <trkpt lat="43.52344" lon="3.48466">
        <ele>26.3</ele>
        <time>2019-01-07T07:47:37Z</time>
      </trkpt>
      <trkpt lat="43.52341" lon="3.48465">
        <ele>26.2</ele>
        <time>2019-01-07T07:47:39Z</time>
      </trkpt>
      <trkpt lat="43.52338" lon="3.48464">
        <ele>26.2</ele>
        <time>2019-01-07T07:47:41Z</time>
      </trkpt>
      <trkpt lat="43.52334" lon="3.48463">
        <ele>26.1</ele>
        <time>2019-01-07T07:47:44Z</time>
      </trkpt>
      <trkpt lat="43.52331" lon="3.48462">
        <ele>26.1</ele>
        <time>2019-01-07T07:47:46Z</time>
      </trkpt>
      <trkpt lat="43.52328" lon="3.4846">
        <ele>26</ele>
        <time>2019-01-07T07:47:48Z</time>
      </trkpt>
      <trkpt lat="43.52325" lon="3.48459">
        <ele>25.9</ele>
        <time>2019-01-07T07:47:50Z</time>
      </trkpt>
      <trkpt lat="43.52323" lon="3.48457">
        <ele>25.8</ele>
        <time>2019-01-07T07:47:52Z</time>
      </trkpt>
      <trkpt lat="43.5232" lon="3.48455">
        <ele>25.8</ele>
        <time>2019-01-07T07:47:54Z</time>
      </trkpt>
      <trkpt lat="43.52317" lon="3.48453">
        <ele>25.7</ele>
        <time>2019-01-07T07:47:56Z</time>
      </trkpt>
      <trkpt lat="43.52313" lon="3.48451">
        <ele>25.7</ele>
        <time>2019-01-07T07:47:58Z</time>
      </trkpt>
      <trkpt lat="43.5231" lon="3.48449">
        <ele>25.6</ele>
        <time>2019-01-07T07:48:00Z</time>
      </trkpt>
      <trkpt lat="43.52307" lon="3.48446">
        <ele>25.5</ele>
        <time>2019-01-07T07:48:02Z</time>
      </trkpt>
      <trkpt lat="43.52304" lon="3.48445">
        <ele>25.5</ele>
        <time>2019-01-07T07:48:04Z</time>
      </trkpt>
      <trkpt lat="43.523" lon="3.48443">
        <ele>25.4</ele>
        <time>2019-01-07T07:48:06Z</time>
      </trkpt>
      <trkpt lat="43.52296" lon="3.48441">
        <ele>25.3</ele>
        <time>2019-01-07T07:48:08Z</time>
      </trkpt>
      <trkpt lat="43.52292" lon="3.4844">
        <ele>25.3</ele>
        <time>2019-01-07T07:48:10Z</time>
      </trkpt>
      <trkpt lat="43.52289" lon="3.48438">
        <ele>25.2</ele>
        <time>2019-01-07T07:48:12Z</time>
      </trkpt>
      <trkpt lat="43.52286" lon="3.48436">
        <ele>25.2</ele>
        <time>2019-01-07T07:48:14Z</time>
      </trkpt>
      <trkpt lat="43.52284" lon="3.48434">
        <ele>25.1</ele>
        <time>2019-01-07T07:48:16Z</time>
      </trkpt>
      <trkpt lat="43.52281" lon="3.48432">
        <ele>25.1</ele>
        <time>2019-01-07T07:48:18Z</time>
      </trkpt>
      <trkpt lat="43.52279" lon="3.4843">
        <ele>25</ele>
        <time>2019-01-07T07:48:20Z</time>
      </trkpt>
      <trkpt lat="43.52275" lon="3.48427">
        <ele>25</ele>
        <time>2019-01-07T07:48:23Z</time>
      </trkpt>
      <trkpt lat="43.52273" lon="3.48424">
        <ele>24.9</ele>
        <time>2019-01-07T07:48:25Z</time>
      </trkpt>
      <trkpt lat="43.5227" lon="3.48421">
        <ele>24.8</ele>
        <time>2019-01-07T07:48:27Z</time>
      </trkpt>
      <trkpt lat="43.52267" lon="3.48419">
        <ele>24.8</ele>
        <time>2019-01-07T07:48:29Z</time>
      </trkpt>
      <trkpt lat="43.52264" lon="3.48418">
        <ele>24.7</ele>
        <time>2019-01-07T07:48:31Z</time>
      </trkpt>
      <trkpt lat="43.52261" lon="3.48416">
        <ele>24.7</ele>
        <time>2019-01-07T07:48:33Z</time>
      </trkpt>
      <trkpt lat="43.52258" lon="3.48414">
        <ele>24.6</ele>
        <time>2019-01-07T07:48:35Z</time>
      </trkpt>
      <trkpt lat="43.52255" lon="3.48411">
        <ele>24.6</ele>
        <time>2019-01-07T07:48:37Z</time>
      </trkpt>
      <trkpt lat="43.52252" lon="3.48409">
        <ele>24.5</ele>
        <time>2019-01-07T07:48:39Z</time>
      </trkpt>
      <trkpt lat="43.52249" lon="3.48408">
        <ele>24.4</ele>
        <time>2019-01-07T07:48:41Z</time>
      </trkpt>
      <trkpt lat="43.52247" lon="3.48406">
        <ele>24.4</ele>
        <time>2019-01-07T07:48:43Z</time>
      </trkpt>
      <trkpt lat="43.52244" lon="3.48404">
        <ele>24.3</ele>
        <time>2019-01-07T07:48:45Z</time>
      </trkpt>
      <trkpt lat="43.52241" lon="3.48402">
        <ele>24.3</ele>
        <time>2019-01-07T07:48:47Z</time>
      </trkpt>
      <trkpt lat="43.52239" lon="3.48399">
        <ele>24.2</ele>
        <time>2019-01-07T07:48:49Z</time>
      </trkpt>
      <trkpt lat="43.52236" lon="3.48397">
        <ele>24.2</ele>
        <time>2019-01-07T07:48:51Z</time>
      </trkpt>
      <trkpt lat="43.52233" lon="3.48393">
        <ele>24.1</ele>
        <time>2019-01-07T07:48:53Z</time>
      </trkpt>
      <trkpt lat="43.52232" lon="3.4839">
        <ele>24.1</ele>
        <time>2019-01-07T07:48:55Z</time>
      </trkpt>
      <trkpt lat="43.52229" lon="3.48387">
        <ele>24</ele>
        <time>2019-01-07T07:48:57Z</time>
      </trkpt>
      <trkpt lat="43.52228" lon="3.48384">
        <ele>24</ele>
        <time>2019-01-07T07:48:59Z</time>
      </trkpt>
      <trkpt lat="43.52224" lon="3.48382">
        <ele>23.9</ele>
        <time>2019-01-07T07:49:02Z</time>
      </trkpt>
      <trkpt lat="43.52221" lon="3.4838">
        <ele>23.8</ele>
        <time>2019-01-07T07:49:04Z</time>
      </trkpt>
      <trkpt lat="43.52218" lon="3.48379">
        <ele>23.8</ele>
        <time>2019-01-07T07:49:06Z</time>
      </trkpt>
      <trkpt lat="43.52216" lon="3.48376">
        <ele>23.8</ele>
        <time>2019-01-07T07:49:08Z</time>
      </trkpt>
      <trkpt lat="43.52213" lon="3.48374">
        <ele>23.7</ele>
        <time>2019-01-07T07:49:10Z</time>
      </trkpt>
      <trkpt lat="43.52211" lon="3.48371">
        <ele>23.7</ele>
        <time>2019-01-07T07:49:12Z</time>
      </trkpt>
      <trkpt lat="43.52208" lon="3.48368">
        <ele>23.6</ele>
        <time>2019-01-07T07:49:14Z</time>
      </trkpt>
      <trkpt lat="43.52204" lon="3.48367">
        <ele>23.5</ele>
        <time>2019-01-07T07:49:16Z</time>
      </trkpt>
      <trkpt lat="43.52202" lon="3.48366">
        <ele>23.5</ele>
        <time>2019-01-07T07:49:18Z</time>
      </trkpt>
      <trkpt lat="43.52199" lon="3.48363">
        <ele>23.4</ele>
        <time>2019-01-07T07:49:21Z</time>
      </trkpt>
      <trkpt lat="43.52197" lon="3.48359">
        <ele>23.4</ele>
        <time>2019-01-07T07:49:24Z</time>
      </trkpt>
      <trkpt lat="43.52195" lon="3.48356">
        <ele>23.3</ele>
        <time>2019-01-07T07:49:26Z</time>
      </trkpt>
      <trkpt lat="43.52193" lon="3.48353">
        <ele>23.3</ele>
        <time>2019-01-07T07:49:28Z</time>
      </trkpt>
      <trkpt lat="43.52191" lon="3.4835">
        <ele>23.2</ele>
        <time>2019-01-07T07:49:30Z</time>
      </trkpt>
      <trkpt lat="43.52188" lon="3.48347">
        <ele>23.2</ele>
        <time>2019-01-07T07:49:32Z</time>
      </trkpt>
      <trkpt lat="43.52185" lon="3.48344">
        <ele>23.2</ele>
        <time>2019-01-07T07:49:34Z</time>
      </trkpt>
      <trkpt lat="43.52182" lon="3.48342">
        <ele>23.1</ele>
        <time>2019-01-07T07:49:36Z</time>
      </trkpt>
      <trkpt lat="43.5218" lon="3.4834">
        <ele>23.1</ele>
        <time>2019-01-07T07:49:38Z</time>
      </trkpt>
      <trkpt lat="43.52176" lon="3.48337">
        <ele>23</ele>
        <time>2019-01-07T07:49:41Z</time>
      </trkpt>
      <trkpt lat="43.52173" lon="3.48335">
        <ele>23</ele>
        <time>2019-01-07T07:49:43Z</time>
      </trkpt>
      <trkpt lat="43.52171" lon="3.48333">
        <ele>23</ele>
        <time>2019-01-07T07:49:45Z</time>
      </trkpt>
      <trkpt lat="43.52169" lon="3.48329">
        <ele>22.9</ele>
        <time>2019-01-07T07:49:47Z</time>
      </trkpt>
      <trkpt lat="43.52168" lon="3.48326">
        <ele>22.9</ele>
        <time>2019-01-07T07:49:49Z</time>
      </trkpt>
      <trkpt lat="43.52166" lon="3.48321">
        <ele>22.9</ele>
        <time>2019-01-07T07:49:52Z</time>
      </trkpt>
      <trkpt lat="43.52164" lon="3.48318">
        <ele>22.8</ele>
        <time>2019-01-07T07:49:54Z</time>
      </trkpt>
      <trkpt lat="43.52162" lon="3.48315">
        <ele>22.8</ele>
        <time>2019-01-07T07:49:56Z</time>
      </trkpt>
      <trkpt lat="43.52159" lon="3.48312">
        <ele>22.8</ele>
        <time>2019-01-07T07:49:58Z</time>
      </trkpt>
      <trkpt lat="43.52156" lon="3.48308">
        <ele>22.7</ele>
        <time>2019-01-07T07:50:00Z</time>
      </trkpt>
      <trkpt lat="43.52153" lon="3.48306">
        <ele>22.7</ele>
        <time>2019-01-07T07:50:02Z</time>
      </trkpt>
      <trkpt lat="43.5215" lon="3.48304">
        <ele>22.7</ele>
        <time>2019-01-07T07:50:04Z</time>
      </trkpt>
      <trkpt lat="43.52148" lon="3.48303">
        <ele>22.6</ele>
        <time>2019-01-07T07:50:06Z</time>
      </trkpt>
      <trkpt lat="43.52145" lon="3.483">
        <ele>22.6</ele>
        <time>2019-01-07T07:50:08Z</time>
      </trkpt>
      <trkpt lat="43.52143" lon="3.48296">
        <ele>22.6</ele>
        <time>2019-01-07T07:50:10Z</time>
      </trkpt>
      <trkpt lat="43.52141" lon="3.48294">
        <ele>22.5</ele>
        <time>2019-01-07T07:50:12Z</time>
      </trkpt>
      <trkpt lat="43.52138" lon="3.48291">
        <ele>22.5</ele>
        <time>2019-01-07T07:50:14Z</time>
      </trkpt>
      <trkpt lat="43.52136" lon="3.48288">
        <ele>22.5</ele>
        <time>2019-01-07T07:50:16Z</time>
      </trkpt>
      <trkpt lat="43.52135" lon="3.48285">
        <ele>22.6</ele>
        <time>2019-01-07T07:50:18Z</time>
      </trkpt>
      <trkpt lat="43.52134" lon="3.48281">
        <ele>22.6</ele>
        <time>2019-01-07T07:50:20Z</time>
      </trkpt>
      <trkpt lat="43.52132" lon="3.48278">
        <ele>22.6</ele>
        <time>2019-01-07T07:50:22Z</time>
      </trkpt>
      <trkpt lat="43.5213" lon="3.48274">
        <ele>22.6</ele>
        <time>2019-01-07T07:50:24Z</time>
      </trkpt>
      <trkpt lat="43.52127" lon="3.48271">
        <ele>22.6</ele>
        <time>2019-01-07T07:50:26Z</time>
      </trkpt>
      <trkpt lat="43.52125" lon="3.48268">
        <ele>22.6</ele>
        <time>2019-01-07T07:50:28Z</time>
      </trkpt>
      <trkpt lat="43.52123" lon="3.48265">
        <ele>22.6</ele>
        <time>2019-01-07T07:50:30Z</time>
      </trkpt>
      <trkpt lat="43.5212" lon="3.48261">
        <ele>22.6</ele>
        <time>2019-01-07T07:50:33Z</time>
      </trkpt>
      <trkpt lat="43.52118" lon="3.48259">
        <ele>22.6</ele>
        <time>2019-01-07T07:50:35Z</time>
      </trkpt>
      <trkpt lat="43.52116" lon="3.48255">
        <ele>22.6</ele>
        <time>2019-01-07T07:50:37Z</time>
      </trkpt>
      <trkpt lat="43.52114" lon="3.48252">
        <ele>22.6</ele>
        <time>2019-01-07T07:50:39Z</time>
      </trkpt>
      <trkpt lat="43.52112" lon="3.48249">
        <ele>22.6</ele>
        <time>2019-01-07T07:50:41Z</time>
      </trkpt>
      <trkpt lat="43.5211" lon="3.48245">
        <ele>22.6</ele>
        <time>2019-01-07T07:50:44Z</time>
      </trkpt>
      <trkpt lat="43.52108" lon="3.48241">
        <ele>22.6</ele>
        <time>2019-01-07T07:50:46Z</time>
      </trkpt>
      <trkpt lat="43.52105" lon="3.48237">
        <ele>22.6</ele>
        <time>2019-01-07T07:50:49Z</time>
      </trkpt>
      <trkpt lat="43.52103" lon="3.48235">
        <ele>22.6</ele>
        <time>2019-01-07T07:50:51Z</time>
      </trkpt>
      <trkpt lat="43.521" lon="3.48232">
        <ele>22.6</ele>
        <time>2019-01-07T07:50:53Z</time>
      </trkpt>
      <trkpt lat="43.52098" lon="3.48229">
        <ele>22.6</ele>
        <time>2019-01-07T07:50:55Z</time>
      </trkpt>
      <trkpt lat="43.52097" lon="3.48225">
        <ele>22.6</ele>
        <time>2019-01-07T07:50:57Z</time>
      </trkpt>
      <trkpt lat="43.52096" lon="3.48221">
        <ele>22.6</ele>
        <time>2019-01-07T07:50:59Z</time>
      </trkpt>
      <trkpt lat="43.52094" lon="3.48217">
        <ele>22.6</ele>
        <time>2019-01-07T07:51:01Z</time>
      </trkpt>
      <trkpt lat="43.52091" lon="3.48214">
        <ele>22.6</ele>
        <time>2019-01-07T07:51:03Z</time>
      </trkpt>
      <trkpt lat="43.52089" lon="3.48211">
        <ele>22.7</ele>
        <time>2019-01-07T07:51:05Z</time>
      </trkpt>
      <trkpt lat="43.52087" lon="3.48208">
        <ele>22.7</ele>
        <time>2019-01-07T07:51:07Z</time>
      </trkpt>
      <trkpt lat="43.52084" lon="3.48204">
        <ele>22.7</ele>
        <time>2019-01-07T07:51:10Z</time>
      </trkpt>
      <trkpt lat="43.52082" lon="3.48199">
        <ele>22.7</ele>
        <time>2019-01-07T07:51:13Z</time>
      </trkpt>
      <trkpt lat="43.52081" lon="3.48196">
        <ele>22.7</ele>
        <time>2019-01-07T07:51:15Z</time>
      </trkpt>
      <trkpt lat="43.5208" lon="3.48191">
        <ele>22.8</ele>
        <time>2019-01-07T07:51:17Z</time>
      </trkpt>
      <trkpt lat="43.52079" lon="3.48188">
        <ele>22.8</ele>
        <time>2019-01-07T07:51:19Z</time>
      </trkpt>
      <trkpt lat="43.52076" lon="3.48185">
        <ele>22.8</ele>
        <time>2019-01-07T07:51:21Z</time>
      </trkpt>
      <trkpt lat="43.52074" lon="3.48182">
        <ele>22.8</ele>
        <time>2019-01-07T07:51:23Z</time>
      </trkpt>
      <trkpt lat="43.52072" lon="3.48179">
        <ele>22.8</ele>
        <time>2019-01-07T07:51:25Z</time>
      </trkpt>
      <trkpt lat="43.5207" lon="3.48176">
        <ele>22.9</ele>
        <time>2019-01-07T07:51:27Z</time>
      </trkpt>
      <trkpt lat="43.52069" lon="3.48172">
        <ele>22.9</ele>
        <time>2019-01-07T07:51:29Z</time>
      </trkpt>
      <trkpt lat="43.52067" lon="3.48168">
        <ele>22.9</ele>
        <time>2019-01-07T07:51:31Z</time>
      </trkpt>
      <trkpt lat="43.52065" lon="3.48165">
        <ele>22.9</ele>
        <time>2019-01-07T07:51:33Z</time>
      </trkpt>
      <trkpt lat="43.52062" lon="3.48162">
        <ele>23</ele>
        <time>2019-01-07T07:51:36Z</time>
      </trkpt>
      <trkpt lat="43.52059" lon="3.48159">
        <ele>23</ele>
        <time>2019-01-07T07:51:38Z</time>
      </trkpt>
      <trkpt lat="43.52057" lon="3.48156">
        <ele>23</ele>
        <time>2019-01-07T07:51:40Z</time>
      </trkpt>
      <trkpt lat="43.52055" lon="3.48153">
        <ele>23</ele>
        <time>2019-01-07T07:51:42Z</time>
      </trkpt>
      <trkpt lat="43.52053" lon="3.4815">
        <ele>23</ele>
        <time>2019-01-07T07:51:44Z</time>
      </trkpt>
      <trkpt lat="43.5205" lon="3.48147">
        <ele>23.1</ele>
        <time>2019-01-07T07:51:46Z</time>
      </trkpt>
      <trkpt lat="43.52048" lon="3.48144">
        <ele>23.1</ele>
        <time>2019-01-07T07:51:48Z</time>
      </trkpt>
      <trkpt lat="43.52046" lon="3.48141">
        <ele>23.1</ele>
        <time>2019-01-07T07:51:50Z</time>
      </trkpt>
      <trkpt lat="43.52045" lon="3.48138">
        <ele>23.1</ele>
        <time>2019-01-07T07:51:52Z</time>
      </trkpt>
      <trkpt lat="43.52046" lon="3.48134">
        <ele>23.1</ele>
        <time>2019-01-07T07:51:55Z</time>
      </trkpt>
      <trkpt lat="43.52048" lon="3.48131">
        <ele>23.1</ele>
        <time>2019-01-07T07:52:08Z</time>
      </trkpt>
      <trkpt lat="43.52048" lon="3.48126">
        <ele>23.2</ele>
        <time>2019-01-07T07:52:15Z</time>
      </trkpt>
      <trkpt lat="43.52045" lon="3.48122">
        <ele>23.2</ele>
        <time>2019-01-07T07:52:17Z</time>
      </trkpt>
      <trkpt lat="43.52044" lon="3.48119">
        <ele>23.2</ele>
        <time>2019-01-07T07:52:19Z</time>
      </trkpt>
      <trkpt lat="43.52043" lon="3.48115">
        <ele>23.2</ele>
        <time>2019-01-07T07:52:21Z</time>
      </trkpt>
      <trkpt lat="43.52042" lon="3.4811">
        <ele>23.2</ele>
        <time>2019-01-07T07:52:24Z</time>
      </trkpt>
      <trkpt lat="43.52041" lon="3.48106">
        <ele>23.2</ele>
        <time>2019-01-07T07:52:26Z</time>
      </trkpt>
      <trkpt lat="43.52039" lon="3.48102">
        <ele>23.2</ele>
        <time>2019-01-07T07:52:28Z</time>
      </trkpt>
      <trkpt lat="43.52037" lon="3.48098">
        <ele>23.2</ele>
        <time>2019-01-07T07:52:31Z</time>
      </trkpt>
      <trkpt lat="43.52036" lon="3.48094">
        <ele>23.2</ele>
        <time>2019-01-07T07:52:33Z</time>
      </trkpt>
      <trkpt lat="43.52034" lon="3.48091">
        <ele>23.2</ele>
        <time>2019-01-07T07:52:35Z</time>
      </trkpt>
      <trkpt lat="43.52032" lon="3.48088">
        <ele>23.2</ele>
        <time>2019-01-07T07:52:37Z</time>
      </trkpt>
      <trkpt lat="43.5203" lon="3.48085">
        <ele>23.2</ele>
        <time>2019-01-07T07:52:39Z</time>
      </trkpt>
      <trkpt lat="43.52027" lon="3.48082">
        <ele>23.2</ele>
        <time>2019-01-07T07:52:42Z</time>
      </trkpt>
      <trkpt lat="43.52024" lon="3.48078">
        <ele>23.2</ele>
        <time>2019-01-07T07:52:44Z</time>
      </trkpt>
      <trkpt lat="43.52021" lon="3.48076">
        <ele>23.1</ele>
        <time>2019-01-07T07:52:46Z</time>
      </trkpt>
      <trkpt lat="43.52017" lon="3.48074">
        <ele>23.1</ele>
        <time>2019-01-07T07:52:48Z</time>
      </trkpt>
      <trkpt lat="43.52014" lon="3.48072">
        <ele>23.2</ele>
        <time>2019-01-07T07:52:50Z</time>
      </trkpt>
      <trkpt lat="43.52012" lon="3.48069">
        <ele>23.2</ele>
        <time>2019-01-07T07:52:52Z</time>
      </trkpt>
      <trkpt lat="43.52011" lon="3.48065">
        <ele>23.3</ele>
        <time>2019-01-07T07:52:55Z</time>
      </trkpt>
      <trkpt lat="43.5201" lon="3.4806">
        <ele>23.4</ele>
        <time>2019-01-07T07:52:58Z</time>
      </trkpt>
      <trkpt lat="43.52009" lon="3.48056">
        <ele>23.4</ele>
        <time>2019-01-07T07:53:00Z</time>
      </trkpt>
      <trkpt lat="43.52008" lon="3.48053">
        <ele>23.5</ele>
        <time>2019-01-07T07:53:02Z</time>
      </trkpt>
      <trkpt lat="43.52006" lon="3.48048">
        <ele>23.5</ele>
        <time>2019-01-07T07:53:05Z</time>
      </trkpt>
      <trkpt lat="43.52003" lon="3.48045">
        <ele>23.6</ele>
        <time>2019-01-07T07:53:08Z</time>
      </trkpt>
      <trkpt lat="43.51999" lon="3.48043">
        <ele>23.7</ele>
        <time>2019-01-07T07:53:11Z</time>
      </trkpt>
      <trkpt lat="43.51996" lon="3.48044">
        <ele>23.8</ele>
        <time>2019-01-07T07:53:13Z</time>
      </trkpt>
      <trkpt lat="43.51991" lon="3.48046">
        <ele>24.1</ele>
        <time>2019-01-07T07:53:15Z</time>
      </trkpt>
      <trkpt lat="43.51988" lon="3.48048">
        <ele>24.4</ele>
        <time>2019-01-07T07:53:17Z</time>
      </trkpt>
      <trkpt lat="43.51986" lon="3.48051">
        <ele>24.6</ele>
        <time>2019-01-07T07:53:20Z</time>
      </trkpt>
      <trkpt lat="43.51983" lon="3.48053">
        <ele>25</ele>
        <time>2019-01-07T07:53:27Z</time>
      </trkpt>
      <trkpt lat="43.5198" lon="3.48056">
        <ele>25.3</ele>
        <time>2019-01-07T07:53:30Z</time>
      </trkpt>
      <trkpt lat="43.51978" lon="3.4806">
        <ele>25.5</ele>
        <time>2019-01-07T07:53:34Z</time>
      </trkpt>
      <trkpt lat="43.51978" lon="3.48055">
        <ele>25.3</ele>
        <time>2019-01-07T07:53:47Z</time>
      </trkpt>
      <trkpt lat="43.51975" lon="3.48053">
        <ele>25.6</ele>
        <time>2019-01-07T07:53:51Z</time>
      </trkpt>
      <trkpt lat="43.51973" lon="3.48049">
        <ele>25.8</ele>
        <time>2019-01-07T07:54:02Z</time>
      </trkpt>
      <trkpt lat="43.5197" lon="3.48047">
        <ele>26.1</ele>
        <time>2019-01-07T07:54:14Z</time>
      </trkpt>
      <trkpt lat="43.51967" lon="3.48047">
        <ele>26.6</ele>
        <time>2019-01-07T07:54:32Z</time>
      </trkpt>
      <trkpt lat="43.51964" lon="3.48048">
        <ele>27.1</ele>
        <time>2019-01-07T07:54:43Z</time>
      </trkpt>
      <trkpt lat="43.51962" lon="3.48046">
        <ele>27</ele>
        <time>2019-01-07T07:55:26Z</time>
      </trkpt>
      <trkpt lat="43.5196" lon="3.48043">
        <ele>27.3</ele>
        <time>2019-01-07T07:55:29Z</time>
      </trkpt>
      <trkpt lat="43.51962" lon="3.48039">
        <ele>26.6</ele>
        <time>2019-01-07T07:55:38Z</time>
      </trkpt>
      <trkpt lat="43.51963" lon="3.48034">
        <ele>26.4</ele>
        <time>2019-01-07T07:55:40Z</time>
      </trkpt>
      <trkpt lat="43.51963" lon="3.4803">
        <ele>26.2</ele>
        <time>2019-01-07T07:55:42Z</time>
      </trkpt>
      <trkpt lat="43.51965" lon="3.48027">
        <ele>25.8</ele>
        <time>2019-01-07T07:55:46Z</time>
      </trkpt>
      <trkpt lat="43.51963" lon="3.48022">
        <ele>25.7</ele>
        <time>2019-01-07T07:55:50Z</time>
      </trkpt>
      <trkpt lat="43.51962" lon="3.48018">
        <ele>25.7</ele>
        <time>2019-01-07T07:55:52Z</time>
      </trkpt>
      <trkpt lat="43.51961" lon="3.48014">
        <ele>25.7</ele>
        <time>2019-01-07T07:55:56Z</time>
      </trkpt>
      <trkpt lat="43.5196" lon="3.48011">
        <ele>25.4</ele>
        <time>2019-01-07T07:55:59Z</time>
      </trkpt>
      <trkpt lat="43.51957" lon="3.48009">
        <ele>25.7</ele>
        <time>2019-01-07T07:56:02Z</time>
      </trkpt>
      <trkpt lat="43.51954" lon="3.48007">
        <ele>25.6</ele>
        <time>2019-01-07T07:56:07Z</time>
      </trkpt>
      <trkpt lat="43.5195" lon="3.48007">
        <ele>25.8</ele>
        <time>2019-01-07T07:56:51Z</time>
      </trkpt>
      <trkpt lat="43.51947" lon="3.48006">
        <ele>26.1</ele>
        <time>2019-01-07T07:56:53Z</time>
      </trkpt>
      <trkpt lat="43.51943" lon="3.48005">
        <ele>26.4</ele>
        <time>2019-01-07T07:56:55Z</time>
      </trkpt>
      <trkpt lat="43.5194" lon="3.48004">
        <ele>26.2</ele>
        <time>2019-01-07T07:56:59Z</time>
      </trkpt>
      <trkpt lat="43.51937" lon="3.48004">
        <ele>26.5</ele>
        <time>2019-01-07T07:57:05Z</time>
      </trkpt>
      <trkpt lat="43.51934" lon="3.48003">
        <ele>26.8</ele>
        <time>2019-01-07T07:57:08Z</time>
      </trkpt>
      <trkpt lat="43.5193" lon="3.48003">
        <ele>27.2</ele>
        <time>2019-01-07T07:57:11Z</time>
      </trkpt>
      <trkpt lat="43.51927" lon="3.48003">
        <ele>27.5</ele>
        <time>2019-01-07T07:57:15Z</time>
      </trkpt>
      <trkpt lat="43.51925" lon="3.48005">
        <ele>28.4</ele>
        <time>2019-01-07T07:57:30Z</time>
      </trkpt>
      <trkpt lat="43.51923" lon="3.48009">
        <ele>28.8</ele>
        <time>2019-01-07T07:57:33Z</time>
      </trkpt>
      <trkpt lat="43.51925" lon="3.48014">
        <ele>29.2</ele>
        <time>2019-01-07T07:57:41Z</time>
      </trkpt>
      <trkpt lat="43.51926" lon="3.48018">
        <ele>29.2</ele>
        <time>2019-01-07T07:57:44Z</time>
      </trkpt>
      <trkpt lat="43.51929" lon="3.48018">
        <ele>28.8</ele>
        <time>2019-01-07T07:57:47Z</time>
      </trkpt>
      <trkpt lat="43.51932" lon="3.48016">
        <ele>28.4</ele>
        <time>2019-01-07T07:57:50Z</time>
      </trkpt>
      <trkpt lat="43.51935" lon="3.48015">
        <ele>28.9</ele>
        <time>2019-01-07T07:57:53Z</time>
      </trkpt>
      <trkpt lat="43.51938" lon="3.48014">
        <ele>29.3</ele>
        <time>2019-01-07T07:57:56Z</time>
      </trkpt>
      <trkpt lat="43.51935" lon="3.48014">
        <ele>29.8</ele>
        <time>2019-01-07T07:58:07Z</time>
      </trkpt>
      <trkpt lat="43.51932" lon="3.48016">
        <ele>30.5</ele>
        <time>2019-01-07T07:58:09Z</time>
      </trkpt>
      <trkpt lat="43.51929" lon="3.48017">
        <ele>31.1</ele>
        <time>2019-01-07T07:58:11Z</time>
      </trkpt>
      <trkpt lat="43.51926" lon="3.4802">
        <ele>31.7</ele>
        <time>2019-01-07T07:58:13Z</time>
      </trkpt>
      <trkpt lat="43.51924" lon="3.48022">
        <ele>32.2</ele>
        <time>2019-01-07T07:58:15Z</time>
      </trkpt>
      <trkpt lat="43.5192" lon="3.48023">
        <ele>32.8</ele>
        <time>2019-01-07T07:58:18Z</time>
      </trkpt>
      <trkpt lat="43.51917" lon="3.48025">
        <ele>33.5</ele>
        <time>2019-01-07T07:58:21Z</time>
      </trkpt>
      <trkpt lat="43.51914" lon="3.48027">
        <ele>33.9</ele>
        <time>2019-01-07T07:58:23Z</time>
      </trkpt>
      <trkpt lat="43.51913" lon="3.4803">
        <ele>34.4</ele>
        <time>2019-01-07T07:58:25Z</time>
      </trkpt>
      <trkpt lat="43.51911" lon="3.48034">
        <ele>35</ele>
        <time>2019-01-07T07:58:27Z</time>
      </trkpt>
      <trkpt lat="43.5191" lon="3.48038">
        <ele>35.5</ele>
        <time>2019-01-07T07:58:29Z</time>
      </trkpt>
      <trkpt lat="43.51908" lon="3.48041">
        <ele>36.2</ele>
        <time>2019-01-07T07:58:32Z</time>
      </trkpt>
      <trkpt lat="43.51906" lon="3.48045">
        <ele>36.7</ele>
        <time>2019-01-07T07:58:35Z</time>
      </trkpt>
      <trkpt lat="43.51902" lon="3.48047">
        <ele>37.4</ele>
        <time>2019-01-07T07:58:38Z</time>
      </trkpt>
      <trkpt lat="43.519" lon="3.4805">
        <ele>38</ele>
        <time>2019-01-07T07:58:40Z</time>
      </trkpt>
      <trkpt lat="43.51898" lon="3.48053">
        <ele>38.8</ele>
        <time>2019-01-07T07:58:43Z</time>
      </trkpt>
      <trkpt lat="43.51896" lon="3.48056">
        <ele>39.4</ele>
        <time>2019-01-07T07:58:45Z</time>
      </trkpt>
      <trkpt lat="43.51893" lon="3.4806">
        <ele>40.1</ele>
        <time>2019-01-07T07:58:48Z</time>
      </trkpt>
      <trkpt lat="43.51892" lon="3.48063">
        <ele>40.6</ele>
        <time>2019-01-07T07:58:50Z</time>
      </trkpt>
      <trkpt lat="43.5189" lon="3.48068">
        <ele>41.3</ele>
        <time>2019-01-07T07:58:53Z</time>
      </trkpt>
      <trkpt lat="43.51889" lon="3.48073">
        <ele>42</ele>
        <time>2019-01-07T07:58:56Z</time>
      </trkpt>
      <trkpt lat="43.51887" lon="3.48076">
        <ele>42.6</ele>
        <time>2019-01-07T07:58:59Z</time>
      </trkpt>
      <trkpt lat="43.51884" lon="3.48078">
        <ele>43.2</ele>
        <time>2019-01-07T07:59:02Z</time>
      </trkpt>
      <trkpt lat="43.5188" lon="3.48079">
        <ele>43.9</ele>
        <time>2019-01-07T07:59:05Z</time>
      </trkpt>
      <trkpt lat="43.51877" lon="3.4808">
        <ele>44.6</ele>
        <time>2019-01-07T07:59:09Z</time>
      </trkpt>
      <trkpt lat="43.51875" lon="3.48084">
        <ele>45.4</ele>
        <time>2019-01-07T07:59:12Z</time>
      </trkpt>
      <trkpt lat="43.51873" lon="3.48088">
        <ele>45.8</ele>
        <time>2019-01-07T07:59:14Z</time>
      </trkpt>
      <trkpt lat="43.51872" lon="3.48092">
        <ele>46.2</ele>
        <time>2019-01-07T07:59:16Z</time>
      </trkpt>
      <trkpt lat="43.5187" lon="3.48095">
        <ele>46.6</ele>
        <time>2019-01-07T07:59:18Z</time>
      </trkpt>
      <trkpt lat="43.51867" lon="3.48098">
        <ele>47.1</ele>
        <time>2019-01-07T07:59:21Z</time>
      </trkpt>
      <trkpt lat="43.51864" lon="3.48101">
        <ele>47.7</ele>
        <time>2019-01-07T07:59:24Z</time>
      </trkpt>
      <trkpt lat="43.51861" lon="3.48104">
        <ele>48.3</ele>
        <time>2019-01-07T07:59:27Z</time>
      </trkpt>
      <trkpt lat="43.51858" lon="3.48107">
        <ele>49.1</ele>
        <time>2019-01-07T07:59:30Z</time>
      </trkpt>
      <trkpt lat="43.51856" lon="3.48109">
        <ele>49.4</ele>
        <time>2019-01-07T07:59:32Z</time>
      </trkpt>
      <trkpt lat="43.51853" lon="3.48111">
        <ele>49.7</ele>
        <time>2019-01-07T07:59:35Z</time>
      </trkpt>
      <trkpt lat="43.5185" lon="3.48112">
        <ele>50.1</ele>
        <time>2019-01-07T07:59:38Z</time>
      </trkpt>
      <trkpt lat="43.51847" lon="3.48116">
        <ele>50.4</ele>
        <time>2019-01-07T07:59:41Z</time>
      </trkpt>
      <trkpt lat="43.51845" lon="3.48119">
        <ele>50.7</ele>
        <time>2019-01-07T07:59:43Z</time>
      </trkpt>
      <trkpt lat="43.51844" lon="3.48123">
        <ele>51</ele>
        <time>2019-01-07T07:59:45Z</time>
      </trkpt>
      <trkpt lat="43.51843" lon="3.48128">
        <ele>51.4</ele>
        <time>2019-01-07T07:59:48Z</time>
      </trkpt>
      <trkpt lat="43.51841" lon="3.48131">
        <ele>51.7</ele>
        <time>2019-01-07T07:59:50Z</time>
      </trkpt>
      <trkpt lat="43.51838" lon="3.48134">
        <ele>52.1</ele>
        <time>2019-01-07T07:59:52Z</time>
      </trkpt>
      <trkpt lat="43.51836" lon="3.48137">
        <ele>52.4</ele>
        <time>2019-01-07T07:59:54Z</time>
      </trkpt>
      <trkpt lat="43.51833" lon="3.4814">
        <ele>52.5</ele>
        <time>2019-01-07T07:59:56Z</time>
      </trkpt>
      <trkpt lat="43.5183" lon="3.48142">
        <ele>52.7</ele>
        <time>2019-01-07T07:59:59Z</time>
      </trkpt>
      <trkpt lat="43.51827" lon="3.48145">
        <ele>53.1</ele>
        <time>2019-01-07T08:00:02Z</time>
      </trkpt>
      <trkpt lat="43.51824" lon="3.48147">
        <ele>53.5</ele>
        <time>2019-01-07T08:00:04Z</time>
      </trkpt>
      <trkpt lat="43.51821" lon="3.4815">
        <ele>53.9</ele>
        <time>2019-01-07T08:00:07Z</time>
      </trkpt>
      <trkpt lat="43.51817" lon="3.48151">
        <ele>54.4</ele>
        <time>2019-01-07T08:00:10Z</time>
      </trkpt>
      <trkpt lat="43.51815" lon="3.48152">
        <ele>54.7</ele>
        <time>2019-01-07T08:00:12Z</time>
      </trkpt>
      <trkpt lat="43.51812" lon="3.48154">
        <ele>55</ele>
        <time>2019-01-07T08:00:14Z</time>
      </trkpt>
      <trkpt lat="43.51809" lon="3.48156">
        <ele>55.4</ele>
        <time>2019-01-07T08:00:17Z</time>
      </trkpt>
      <trkpt lat="43.51807" lon="3.48159">
        <ele>55.8</ele>
        <time>2019-01-07T08:00:20Z</time>
      </trkpt>
      <trkpt lat="43.51804" lon="3.48163">
        <ele>56.1</ele>
        <time>2019-01-07T08:00:23Z</time>
      </trkpt>
      <trkpt lat="43.51801" lon="3.48166">
        <ele>56.4</ele>
        <time>2019-01-07T08:00:26Z</time>
      </trkpt>
      <trkpt lat="43.51797" lon="3.48166">
        <ele>56.8</ele>
        <time>2019-01-07T08:00:28Z</time>
      </trkpt>
      <trkpt lat="43.51794" lon="3.48164">
        <ele>57.2</ele>
        <time>2019-01-07T08:00:30Z</time>
      </trkpt>
      <trkpt lat="43.51791" lon="3.48165">
        <ele>57.2</ele>
        <time>2019-01-07T08:00:32Z</time>
      </trkpt>
      <trkpt lat="43.51787" lon="3.48167">
        <ele>57.2</ele>
        <time>2019-01-07T08:00:34Z</time>
      </trkpt>
      <trkpt lat="43.51784" lon="3.4817">
        <ele>57.2</ele>
        <time>2019-01-07T08:00:36Z</time>
      </trkpt>
      <trkpt lat="43.51781" lon="3.48172">
        <ele>57.5</ele>
        <time>2019-01-07T08:00:38Z</time>
      </trkpt>
      <trkpt lat="43.5178" lon="3.48176">
        <ele>57.7</ele>
        <time>2019-01-07T08:00:40Z</time>
      </trkpt>
      <trkpt lat="43.51778" lon="3.48179">
        <ele>57.9</ele>
        <time>2019-01-07T08:00:42Z</time>
      </trkpt>
      <trkpt lat="43.51776" lon="3.48183">
        <ele>58</ele>
        <time>2019-01-07T08:00:45Z</time>
      </trkpt>
      <trkpt lat="43.51777" lon="3.48188">
        <ele>58.1</ele>
        <time>2019-01-07T08:00:47Z</time>
      </trkpt>
      <trkpt lat="43.51779" lon="3.48192">
        <ele>58.2</ele>
        <time>2019-01-07T08:00:49Z</time>
      </trkpt>
      <trkpt lat="43.5178" lon="3.48197">
        <ele>58</ele>
        <time>2019-01-07T08:00:52Z</time>
      </trkpt>
      <trkpt lat="43.51779" lon="3.48201">
        <ele>57.9</ele>
        <time>2019-01-07T08:00:55Z</time>
      </trkpt>
      <trkpt lat="43.51777" lon="3.48206">
        <ele>58.1</ele>
        <time>2019-01-07T08:00:58Z</time>
      </trkpt>
      <trkpt lat="43.51779" lon="3.48211">
        <ele>58.4</ele>
        <time>2019-01-07T08:01:01Z</time>
      </trkpt>
      <trkpt lat="43.51778" lon="3.48214">
        <ele>58.5</ele>
        <time>2019-01-07T08:01:04Z</time>
      </trkpt>
      <trkpt lat="43.51775" lon="3.48218">
        <ele>58.8</ele>
        <time>2019-01-07T08:01:07Z</time>
      </trkpt>
      <trkpt lat="43.51773" lon="3.48222">
        <ele>59.1</ele>
        <time>2019-01-07T08:01:09Z</time>
      </trkpt>
      <trkpt lat="43.51772" lon="3.48226">
        <ele>59.7</ele>
        <time>2019-01-07T08:01:11Z</time>
      </trkpt>
      <trkpt lat="43.51771" lon="3.48231">
        <ele>60.4</ele>
        <time>2019-01-07T08:01:13Z</time>
      </trkpt>
      <trkpt lat="43.5177" lon="3.48235">
        <ele>60.7</ele>
        <time>2019-01-07T08:01:15Z</time>
      </trkpt>
      <trkpt lat="43.51769" lon="3.48239">
        <ele>61.1</ele>
        <time>2019-01-07T08:01:18Z</time>
      </trkpt>
      <trkpt lat="43.51769" lon="3.48244">
        <ele>61.4</ele>
        <time>2019-01-07T08:01:22Z</time>
      </trkpt>
      <trkpt lat="43.5177" lon="3.48248">
        <ele>61.6</ele>
        <time>2019-01-07T08:01:25Z</time>
      </trkpt>
      <trkpt lat="43.51769" lon="3.48253">
        <ele>61.8</ele>
        <time>2019-01-07T08:01:28Z</time>
      </trkpt>
      <trkpt lat="43.51768" lon="3.48258">
        <ele>62</ele>
        <time>2019-01-07T08:01:31Z</time>
      </trkpt>
      <trkpt lat="43.51767" lon="3.48261">
        <ele>62.1</ele>
        <time>2019-01-07T08:01:33Z</time>
      </trkpt>
      <trkpt lat="43.51766" lon="3.48265">
        <ele>62.6</ele>
        <time>2019-01-07T08:01:35Z</time>
      </trkpt>
      <trkpt lat="43.51763" lon="3.48269">
        <ele>63.1</ele>
        <time>2019-01-07T08:01:38Z</time>
      </trkpt>
      <trkpt lat="43.5176" lon="3.48271">
        <ele>63.5</ele>
        <time>2019-01-07T08:01:41Z</time>
      </trkpt>
      <trkpt lat="43.51757" lon="3.48271">
        <ele>63.9</ele>
        <time>2019-01-07T08:01:44Z</time>
      </trkpt>
      <trkpt lat="43.51754" lon="3.48272">
        <ele>64.3</ele>
        <time>2019-01-07T08:01:48Z</time>
      </trkpt>
      <trkpt lat="43.51751" lon="3.48275">
        <ele>64.9</ele>
        <time>2019-01-07T08:01:52Z</time>
      </trkpt>
      <trkpt lat="43.51748" lon="3.48277">
        <ele>65.3</ele>
        <time>2019-01-07T08:01:54Z</time>
      </trkpt>
      <trkpt lat="43.51746" lon="3.48281">
        <ele>65.6</ele>
        <time>2019-01-07T08:01:57Z</time>
      </trkpt>
      <trkpt lat="43.51746" lon="3.48286">
        <ele>66</ele>
        <time>2019-01-07T08:02:00Z</time>
      </trkpt>
      <trkpt lat="43.51747" lon="3.48291">
        <ele>66.6</ele>
        <time>2019-01-07T08:02:02Z</time>
      </trkpt>
      <trkpt lat="43.51747" lon="3.48295">
        <ele>67.2</ele>
        <time>2019-01-07T08:02:04Z</time>
      </trkpt>
      <trkpt lat="43.51748" lon="3.483">
        <ele>67.7</ele>
        <time>2019-01-07T08:02:07Z</time>
      </trkpt>
      <trkpt lat="43.51747" lon="3.48306">
        <ele>68.2</ele>
        <time>2019-01-07T08:02:10Z</time>
      </trkpt>
      <trkpt lat="43.51746" lon="3.48311">
        <ele>68.6</ele>
        <time>2019-01-07T08:02:13Z</time>
      </trkpt>
      <trkpt lat="43.51746" lon="3.48315">
        <ele>68.9</ele>
        <time>2019-01-07T08:02:15Z</time>
      </trkpt>
      <trkpt lat="43.51746" lon="3.48318">
        <ele>69.4</ele>
        <time>2019-01-07T08:02:17Z</time>
      </trkpt>
      <trkpt lat="43.51745" lon="3.48322">
        <ele>69.8</ele>
        <time>2019-01-07T08:02:19Z</time>
      </trkpt>
      <trkpt lat="43.51744" lon="3.48327">
        <ele>70.4</ele>
        <time>2019-01-07T08:02:22Z</time>
      </trkpt>
      <trkpt lat="43.51743" lon="3.48332">
        <ele>70.8</ele>
        <time>2019-01-07T08:02:25Z</time>
      </trkpt>
      <trkpt lat="43.51745" lon="3.48336">
        <ele>70.3</ele>
        <time>2019-01-07T08:02:28Z</time>
      </trkpt>
      <trkpt lat="43.51748" lon="3.48339">
        <ele>69.8</ele>
        <time>2019-01-07T08:02:32Z</time>
      </trkpt>
      <trkpt lat="43.5175" lon="3.48343">
        <ele>69.4</ele>
        <time>2019-01-07T08:02:36Z</time>
      </trkpt>
      <trkpt lat="43.51751" lon="3.48346">
        <ele>68.9</ele>
        <time>2019-01-07T08:02:39Z</time>
      </trkpt>
      <trkpt lat="43.51753" lon="3.48351">
        <ele>68.5</ele>
        <time>2019-01-07T08:02:42Z</time>
      </trkpt>
      <trkpt lat="43.51755" lon="3.48353">
        <ele>68.6</ele>
        <time>2019-01-07T08:02:44Z</time>
      </trkpt>
      <trkpt lat="43.51758" lon="3.48355">
        <ele>68.9</ele>
        <time>2019-01-07T08:02:46Z</time>
      </trkpt>
      <trkpt lat="43.5176" lon="3.48358">
        <ele>69.4</ele>
        <time>2019-01-07T08:02:48Z</time>
      </trkpt>
      <trkpt lat="43.51762" lon="3.48361">
        <ele>70.1</ele>
        <time>2019-01-07T08:02:51Z</time>
      </trkpt>
      <trkpt lat="43.51764" lon="3.48364">
        <ele>70.7</ele>
        <time>2019-01-07T08:02:53Z</time>
      </trkpt>
      <trkpt lat="43.51766" lon="3.48367">
        <ele>71.2</ele>
        <time>2019-01-07T08:02:55Z</time>
      </trkpt>
      <trkpt lat="43.51767" lon="3.48371">
        <ele>71.3</ele>
        <time>2019-01-07T08:02:57Z</time>
      </trkpt>
      <trkpt lat="43.51768" lon="3.48375">
        <ele>71.5</ele>
        <time>2019-01-07T08:03:00Z</time>
      </trkpt>
      <trkpt lat="43.51769" lon="3.4838">
        <ele>71</ele>
        <time>2019-01-07T08:03:03Z</time>
      </trkpt>
      <trkpt lat="43.51772" lon="3.48383">
        <ele>70.5</ele>
        <time>2019-01-07T08:03:06Z</time>
      </trkpt>
      <trkpt lat="43.51774" lon="3.48387">
        <ele>70.1</ele>
        <time>2019-01-07T08:03:09Z</time>
      </trkpt>
      <trkpt lat="43.51776" lon="3.4839">
        <ele>70</ele>
        <time>2019-01-07T08:03:12Z</time>
      </trkpt>
      <trkpt lat="43.51779" lon="3.48394">
        <ele>70.3</ele>
        <time>2019-01-07T08:03:15Z</time>
      </trkpt>
      <trkpt lat="43.5178" lon="3.48399">
        <ele>70.5</ele>
        <time>2019-01-07T08:03:18Z</time>
      </trkpt>
      <trkpt lat="43.51781" lon="3.48403">
        <ele>70.3</ele>
        <time>2019-01-07T08:03:21Z</time>
      </trkpt>
      <trkpt lat="43.51783" lon="3.48407">
        <ele>69.9</ele>
        <time>2019-01-07T08:03:24Z</time>
      </trkpt>
      <trkpt lat="43.51785" lon="3.48412">
        <ele>69.6</ele>
        <time>2019-01-07T08:03:27Z</time>
      </trkpt>
      <trkpt lat="43.51787" lon="3.48418">
        <ele>69.3</ele>
        <time>2019-01-07T08:03:30Z</time>
      </trkpt>
      <trkpt lat="43.51788" lon="3.48421">
        <ele>69.1</ele>
        <time>2019-01-07T08:03:32Z</time>
      </trkpt>
      <trkpt lat="43.51791" lon="3.48425">
        <ele>68.7</ele>
        <time>2019-01-07T08:03:35Z</time>
      </trkpt>
      <trkpt lat="43.51794" lon="3.48429">
        <ele>68.1</ele>
        <time>2019-01-07T08:03:38Z</time>
      </trkpt>
      <trkpt lat="43.51796" lon="3.48433">
        <ele>67.8</ele>
        <time>2019-01-07T08:03:40Z</time>
      </trkpt>
      <trkpt lat="43.51799" lon="3.48437">
        <ele>67.6</ele>
        <time>2019-01-07T08:03:43Z</time>
      </trkpt>
      <trkpt lat="43.51803" lon="3.48438">
        <ele>67.4</ele>
        <time>2019-01-07T08:03:45Z</time>
      </trkpt>
      <trkpt lat="43.51806" lon="3.4844">
        <ele>67.4</ele>
        <time>2019-01-07T08:03:47Z</time>
      </trkpt>
      <trkpt lat="43.51809" lon="3.48443">
        <ele>67.2</ele>
        <time>2019-01-07T08:03:50Z</time>
      </trkpt>
      <trkpt lat="43.51812" lon="3.48446">
        <ele>66.9</ele>
        <time>2019-01-07T08:03:52Z</time>
      </trkpt>
      <trkpt lat="43.51814" lon="3.48448">
        <ele>66.3</ele>
        <time>2019-01-07T08:03:54Z</time>
      </trkpt>
      <trkpt lat="43.51816" lon="3.48452">
        <ele>65.6</ele>
        <time>2019-01-07T08:03:57Z</time>
      </trkpt>
      <trkpt lat="43.51817" lon="3.48456">
        <ele>65.4</ele>
        <time>2019-01-07T08:04:00Z</time>
      </trkpt>
      <trkpt lat="43.51816" lon="3.48461">
        <ele>65.2</ele>
        <time>2019-01-07T08:04:03Z</time>
      </trkpt>
      <trkpt lat="43.51813" lon="3.48463">
        <ele>64.8</ele>
        <time>2019-01-07T08:04:06Z</time>
      </trkpt>
      <trkpt lat="43.5181" lon="3.48463">
        <ele>64.7</ele>
        <time>2019-01-07T08:04:08Z</time>
      </trkpt>
      <trkpt lat="43.51807" lon="3.48465">
        <ele>64.8</ele>
        <time>2019-01-07T08:04:10Z</time>
      </trkpt>
      <trkpt lat="43.51805" lon="3.48468">
        <ele>65</ele>
        <time>2019-01-07T08:04:13Z</time>
      </trkpt>
      <trkpt lat="43.51805" lon="3.48472">
        <ele>65.1</ele>
        <time>2019-01-07T08:04:16Z</time>
      </trkpt>
      <trkpt lat="43.51803" lon="3.48475">
        <ele>65.9</ele>
        <time>2019-01-07T08:04:19Z</time>
      </trkpt>
      <trkpt lat="43.518" lon="3.48478">
        <ele>66.9</ele>
        <time>2019-01-07T08:04:21Z</time>
      </trkpt>
      <trkpt lat="43.51797" lon="3.48482">
        <ele>67.5</ele>
        <time>2019-01-07T08:04:23Z</time>
      </trkpt>
      <trkpt lat="43.51796" lon="3.48485">
        <ele>67.5</ele>
        <time>2019-01-07T08:04:25Z</time>
      </trkpt>
      <trkpt lat="43.51796" lon="3.48489">
        <ele>67.5</ele>
        <time>2019-01-07T08:04:27Z</time>
      </trkpt>
      <trkpt lat="43.51796" lon="3.48493">
        <ele>67.8</ele>
        <time>2019-01-07T08:04:29Z</time>
      </trkpt>
      <trkpt lat="43.51795" lon="3.48498">
        <ele>68.1</ele>
        <time>2019-01-07T08:04:31Z</time>
      </trkpt>
      <trkpt lat="43.51795" lon="3.48504">
        <ele>68.2</ele>
        <time>2019-01-07T08:04:34Z</time>
      </trkpt>
      <trkpt lat="43.51794" lon="3.48508">
        <ele>68.2</ele>
        <time>2019-01-07T08:04:36Z</time>
      </trkpt>
      <trkpt lat="43.51793" lon="3.48512">
        <ele>68.4</ele>
        <time>2019-01-07T08:04:38Z</time>
      </trkpt>
      <trkpt lat="43.51793" lon="3.48517">
        <ele>68.6</ele>
        <time>2019-01-07T08:04:40Z</time>
      </trkpt>
      <trkpt lat="43.51792" lon="3.48522">
        <ele>68.6</ele>
        <time>2019-01-07T08:04:42Z</time>
      </trkpt>
      <trkpt lat="43.51792" lon="3.48526">
        <ele>68.5</ele>
        <time>2019-01-07T08:04:44Z</time>
      </trkpt>
      <trkpt lat="43.51789" lon="3.4853">
        <ele>68.4</ele>
        <time>2019-01-07T08:04:47Z</time>
      </trkpt>
      <trkpt lat="43.51788" lon="3.48533">
        <ele>68.4</ele>
        <time>2019-01-07T08:04:49Z</time>
      </trkpt>
      <trkpt lat="43.51787" lon="3.48537">
        <ele>68.3</ele>
        <time>2019-01-07T08:04:51Z</time>
      </trkpt>
      <trkpt lat="43.51787" lon="3.48543">
        <ele>68.4</ele>
        <time>2019-01-07T08:04:54Z</time>
      </trkpt>
      <trkpt lat="43.51786" lon="3.48548">
        <ele>68.5</ele>
        <time>2019-01-07T08:04:56Z</time>
      </trkpt>
      <trkpt lat="43.51785" lon="3.48553">
        <ele>68.9</ele>
        <time>2019-01-07T08:04:59Z</time>
      </trkpt>
      <trkpt lat="43.51783" lon="3.48556">
        <ele>69.2</ele>
        <time>2019-01-07T08:05:01Z</time>
      </trkpt>
      <trkpt lat="43.51781" lon="3.4856">
        <ele>69.6</ele>
        <time>2019-01-07T08:05:04Z</time>
      </trkpt>
      <trkpt lat="43.51778" lon="3.48562">
        <ele>70</ele>
        <time>2019-01-07T08:05:06Z</time>
      </trkpt>
      <trkpt lat="43.51776" lon="3.48565">
        <ele>70.4</ele>
        <time>2019-01-07T08:05:08Z</time>
      </trkpt>
      <trkpt lat="43.51775" lon="3.48569">
        <ele>70.9</ele>
        <time>2019-01-07T08:05:10Z</time>
      </trkpt>
      <trkpt lat="43.51773" lon="3.48572">
        <ele>71.3</ele>
        <time>2019-01-07T08:05:12Z</time>
      </trkpt>
      <trkpt lat="43.51771" lon="3.48576">
        <ele>71.7</ele>
        <time>2019-01-07T08:05:15Z</time>
      </trkpt>
      <trkpt lat="43.51769" lon="3.4858">
        <ele>72.1</ele>
        <time>2019-01-07T08:05:18Z</time>
      </trkpt>
      <trkpt lat="43.51766" lon="3.48583">
        <ele>72.4</ele>
        <time>2019-01-07T08:05:21Z</time>
      </trkpt>
      <trkpt lat="43.51763" lon="3.48586">
        <ele>72.7</ele>
        <time>2019-01-07T08:05:23Z</time>
      </trkpt>
      <trkpt lat="43.51761" lon="3.48591">
        <ele>73.4</ele>
        <time>2019-01-07T08:05:26Z</time>
      </trkpt>
      <trkpt lat="43.51759" lon="3.48594">
        <ele>73.4</ele>
        <time>2019-01-07T08:05:29Z</time>
      </trkpt>
      <trkpt lat="43.51761" lon="3.48598">
        <ele>73.4</ele>
        <time>2019-01-07T08:05:31Z</time>
      </trkpt>
      <trkpt lat="43.5176" lon="3.48601">
        <ele>73.4</ele>
        <time>2019-01-07T08:05:34Z</time>
      </trkpt>
      <trkpt lat="43.51758" lon="3.48605">
        <ele>73.6</ele>
        <time>2019-01-07T08:05:37Z</time>
      </trkpt>
      <trkpt lat="43.51757" lon="3.48608">
        <ele>73.8</ele>
        <time>2019-01-07T08:05:39Z</time>
      </trkpt>
      <trkpt lat="43.51755" lon="3.48613">
        <ele>74</ele>
        <time>2019-01-07T08:05:42Z</time>
      </trkpt>
      <trkpt lat="43.51754" lon="3.48617">
        <ele>74.3</ele>
        <time>2019-01-07T08:05:45Z</time>
      </trkpt>
      <trkpt lat="43.51752" lon="3.48622">
        <ele>74.6</ele>
        <time>2019-01-07T08:05:48Z</time>
      </trkpt>
      <trkpt lat="43.5175" lon="3.48626">
        <ele>74.8</ele>
        <time>2019-01-07T08:05:50Z</time>
      </trkpt>
      <trkpt lat="43.51749" lon="3.48631">
        <ele>75.1</ele>
        <time>2019-01-07T08:05:53Z</time>
      </trkpt>
      <trkpt lat="43.51747" lon="3.48634">
        <ele>75.4</ele>
        <time>2019-01-07T08:05:55Z</time>
      </trkpt>
      <trkpt lat="43.51746" lon="3.48638">
        <ele>75.7</ele>
        <time>2019-01-07T08:05:58Z</time>
      </trkpt>
      <trkpt lat="43.51743" lon="3.48641">
        <ele>76.2</ele>
        <time>2019-01-07T08:06:01Z</time>
      </trkpt>
      <trkpt lat="43.5174" lon="3.48643">
        <ele>76.7</ele>
        <time>2019-01-07T08:06:03Z</time>
      </trkpt>
      <trkpt lat="43.51738" lon="3.48645">
        <ele>77.2</ele>
        <time>2019-01-07T08:06:05Z</time>
      </trkpt>
      <trkpt lat="43.51736" lon="3.48648">
        <ele>77.7</ele>
        <time>2019-01-07T08:06:07Z</time>
      </trkpt>
      <trkpt lat="43.51735" lon="3.48652">
        <ele>78.2</ele>
        <time>2019-01-07T08:06:10Z</time>
      </trkpt>
      <trkpt lat="43.51733" lon="3.48655">
        <ele>78.7</ele>
        <time>2019-01-07T08:06:13Z</time>
      </trkpt>
      <trkpt lat="43.51731" lon="3.4866">
        <ele>79.4</ele>
        <time>2019-01-07T08:06:17Z</time>
      </trkpt>
      <trkpt lat="43.51728" lon="3.48663">
        <ele>80</ele>
        <time>2019-01-07T08:06:20Z</time>
      </trkpt>
      <trkpt lat="43.51726" lon="3.48666">
        <ele>80.6</ele>
        <time>2019-01-07T08:06:23Z</time>
      </trkpt>
      <trkpt lat="43.51724" lon="3.48669">
        <ele>81</ele>
        <time>2019-01-07T08:06:25Z</time>
      </trkpt>
      <trkpt lat="43.51721" lon="3.48671">
        <ele>81.6</ele>
        <time>2019-01-07T08:06:28Z</time>
      </trkpt>
      <trkpt lat="43.51719" lon="3.48674">
        <ele>82.1</ele>
        <time>2019-01-07T08:06:30Z</time>
      </trkpt>
      <trkpt lat="43.51715" lon="3.48677">
        <ele>82.7</ele>
        <time>2019-01-07T08:06:33Z</time>
      </trkpt>
      <trkpt lat="43.51712" lon="3.4868">
        <ele>83.3</ele>
        <time>2019-01-07T08:06:36Z</time>
      </trkpt>
      <trkpt lat="43.5171" lon="3.48683">
        <ele>83.8</ele>
        <time>2019-01-07T08:06:39Z</time>
      </trkpt>
      <trkpt lat="43.51707" lon="3.48685">
        <ele>84.3</ele>
        <time>2019-01-07T08:06:42Z</time>
      </trkpt>
      <trkpt lat="43.51705" lon="3.48689">
        <ele>84.8</ele>
        <time>2019-01-07T08:06:45Z</time>
      </trkpt>
      <trkpt lat="43.51702" lon="3.48693">
        <ele>85.5</ele>
        <time>2019-01-07T08:06:48Z</time>
      </trkpt>
      <trkpt lat="43.517" lon="3.48697">
        <ele>86</ele>
        <time>2019-01-07T08:06:51Z</time>
      </trkpt>
      <trkpt lat="43.51698" lon="3.48703">
        <ele>86.6</ele>
        <time>2019-01-07T08:06:54Z</time>
      </trkpt>
      <trkpt lat="43.51696" lon="3.48706">
        <ele>87</ele>
        <time>2019-01-07T08:06:58Z</time>
      </trkpt>
      <trkpt lat="43.51696" lon="3.48712">
        <ele>87.6</ele>
        <time>2019-01-07T08:07:03Z</time>
      </trkpt>
      <trkpt lat="43.51695" lon="3.48716">
        <ele>88</ele>
        <time>2019-01-07T08:07:05Z</time>
      </trkpt>
      <trkpt lat="43.51693" lon="3.4872">
        <ele>88.5</ele>
        <time>2019-01-07T08:07:08Z</time>
      </trkpt>
      <trkpt lat="43.5169" lon="3.48724">
        <ele>88.9</ele>
        <time>2019-01-07T08:07:10Z</time>
      </trkpt>
      <trkpt lat="43.51689" lon="3.48729">
        <ele>90.2</ele>
        <time>2019-01-07T08:07:12Z</time>
      </trkpt>
      <trkpt lat="43.51689" lon="3.48734">
        <ele>90.2</ele>
        <time>2019-01-07T08:07:14Z</time>
      </trkpt>
      <trkpt lat="43.51688" lon="3.48738">
        <ele>90.2</ele>
        <time>2019-01-07T08:07:16Z</time>
      </trkpt>
      <trkpt lat="43.51688" lon="3.48743">
        <ele>90.2</ele>
        <time>2019-01-07T08:07:18Z</time>
      </trkpt>
      <trkpt lat="43.51688" lon="3.48747">
        <ele>90.2</ele>
        <time>2019-01-07T08:07:20Z</time>
      </trkpt>
      <trkpt lat="43.51689" lon="3.48752">
        <ele>90.3</ele>
        <time>2019-01-07T08:07:22Z</time>
      </trkpt>
      <trkpt lat="43.51689" lon="3.48756">
        <ele>90.4</ele>
        <time>2019-01-07T08:07:24Z</time>
      </trkpt>
      <trkpt lat="43.51689" lon="3.4876">
        <ele>90.4</ele>
        <time>2019-01-07T08:07:26Z</time>
      </trkpt>
      <trkpt lat="43.5169" lon="3.48766">
        <ele>90.4</ele>
        <time>2019-01-07T08:07:28Z</time>
      </trkpt>
      <trkpt lat="43.51691" lon="3.4877">
        <ele>90.3</ele>
        <time>2019-01-07T08:07:31Z</time>
      </trkpt>
      <trkpt lat="43.51692" lon="3.48775">
        <ele>90.1</ele>
        <time>2019-01-07T08:07:34Z</time>
      </trkpt>
      <trkpt lat="43.51694" lon="3.48778">
        <ele>90</ele>
        <time>2019-01-07T08:07:36Z</time>
      </trkpt>
      <trkpt lat="43.51696" lon="3.48783">
        <ele>89.8</ele>
        <time>2019-01-07T08:07:39Z</time>
      </trkpt>
      <trkpt lat="43.51697" lon="3.48786">
        <ele>89.7</ele>
        <time>2019-01-07T08:07:41Z</time>
      </trkpt>
      <trkpt lat="43.51697" lon="3.48792">
        <ele>89.6</ele>
        <time>2019-01-07T08:07:44Z</time>
      </trkpt>
      <trkpt lat="43.51697" lon="3.48795">
        <ele>89.5</ele>
        <time>2019-01-07T08:07:46Z</time>
      </trkpt>
      <trkpt lat="43.51696" lon="3.48799">
        <ele>89.5</ele>
        <time>2019-01-07T08:07:48Z</time>
      </trkpt>
      <trkpt lat="43.51695" lon="3.48803">
        <ele>89.6</ele>
        <time>2019-01-07T08:07:50Z</time>
      </trkpt>
      <trkpt lat="43.51695" lon="3.48808">
        <ele>89.9</ele>
        <time>2019-01-07T08:07:53Z</time>
      </trkpt>
      <trkpt lat="43.51694" lon="3.48811">
        <ele>89.9</ele>
        <time>2019-01-07T08:07:55Z</time>
      </trkpt>
      <trkpt lat="43.51692" lon="3.48815">
        <ele>90.2</ele>
        <time>2019-01-07T08:07:58Z</time>
      </trkpt>
      <trkpt lat="43.5169" lon="3.48819">
        <ele>90.5</ele>
        <time>2019-01-07T08:08:01Z</time>
      </trkpt>
      <trkpt lat="43.51688" lon="3.48823">
        <ele>90.8</ele>
        <time>2019-01-07T08:08:04Z</time>
      </trkpt>
      <trkpt lat="43.51686" lon="3.48826">
        <ele>91.1</ele>
        <time>2019-01-07T08:08:06Z</time>
      </trkpt>
      <trkpt lat="43.51684" lon="3.48828">
        <ele>91.3</ele>
        <time>2019-01-07T08:08:08Z</time>
      </trkpt>
      <trkpt lat="43.51681" lon="3.48832">
        <ele>91.4</ele>
        <time>2019-01-07T08:08:11Z</time>
      </trkpt>
      <trkpt lat="43.51679" lon="3.48835">
        <ele>91.5</ele>
        <time>2019-01-07T08:08:13Z</time>
      </trkpt>
      <trkpt lat="43.51677" lon="3.48838">
        <ele>91.6</ele>
        <time>2019-01-07T08:08:15Z</time>
      </trkpt>
      <trkpt lat="43.51674" lon="3.48842">
        <ele>91.7</ele>
        <time>2019-01-07T08:08:17Z</time>
      </trkpt>
      <trkpt lat="43.51672" lon="3.48846">
        <ele>91.8</ele>
        <time>2019-01-07T08:08:20Z</time>
      </trkpt>
      <trkpt lat="43.51672" lon="3.4885">
        <ele>91.8</ele>
        <time>2019-01-07T08:08:22Z</time>
      </trkpt>
      <trkpt lat="43.51672" lon="3.48855">
        <ele>91.8</ele>
        <time>2019-01-07T08:08:25Z</time>
      </trkpt>
      <trkpt lat="43.51672" lon="3.48859">
        <ele>91.7</ele>
        <time>2019-01-07T08:08:27Z</time>
      </trkpt>
      <trkpt lat="43.51672" lon="3.48864">
        <ele>91.7</ele>
        <time>2019-01-07T08:08:29Z</time>
      </trkpt>
      <trkpt lat="43.51672" lon="3.48869">
        <ele>91.6</ele>
        <time>2019-01-07T08:08:31Z</time>
      </trkpt>
      <trkpt lat="43.51671" lon="3.48873">
        <ele>91.5</ele>
        <time>2019-01-07T08:08:33Z</time>
      </trkpt>
      <trkpt lat="43.51672" lon="3.48877">
        <ele>91.4</ele>
        <time>2019-01-07T08:08:35Z</time>
      </trkpt>
      <trkpt lat="43.51675" lon="3.48879">
        <ele>91.4</ele>
        <time>2019-01-07T08:08:38Z</time>
      </trkpt>
      <trkpt lat="43.51679" lon="3.48877">
        <ele>91.1</ele>
        <time>2019-01-07T08:08:41Z</time>
      </trkpt>
      <trkpt lat="43.51681" lon="3.48877">
        <ele>91</ele>
        <time>2019-01-07T08:08:43Z</time>
      </trkpt>
      <trkpt lat="43.51684" lon="3.48879">
        <ele>91</ele>
        <time>2019-01-07T08:08:47Z</time>
      </trkpt>
      <trkpt lat="43.51687" lon="3.48882">
        <ele>90.7</ele>
        <time>2019-01-07T08:08:50Z</time>
      </trkpt>
      <trkpt lat="43.5169" lon="3.48882">
        <ele>90.6</ele>
        <time>2019-01-07T08:08:53Z</time>
      </trkpt>
      <trkpt lat="43.51694" lon="3.48885">
        <ele>90.2</ele>
        <time>2019-01-07T08:08:59Z</time>
      </trkpt>
      <trkpt lat="43.51698" lon="3.48888">
        <ele>90</ele>
        <time>2019-01-07T08:09:01Z</time>
      </trkpt>
      <trkpt lat="43.517" lon="3.48891">
        <ele>89.8</ele>
        <time>2019-01-07T08:09:03Z</time>
      </trkpt>
      <trkpt lat="43.51701" lon="3.48895">
        <ele>89.8</ele>
        <time>2019-01-07T08:09:05Z</time>
      </trkpt>
      <trkpt lat="43.51703" lon="3.48899">
        <ele>89.7</ele>
        <time>2019-01-07T08:09:07Z</time>
      </trkpt>
      <trkpt lat="43.51705" lon="3.48902">
        <ele>89.6</ele>
        <time>2019-01-07T08:09:09Z</time>
      </trkpt>
      <trkpt lat="43.51708" lon="3.48904">
        <ele>89.5</ele>
        <time>2019-01-07T08:09:11Z</time>
      </trkpt>
      <trkpt lat="43.51712" lon="3.48906">
        <ele>89.3</ele>
        <time>2019-01-07T08:09:13Z</time>
      </trkpt>
      <trkpt lat="43.51715" lon="3.48907">
        <ele>89.2</ele>
        <time>2019-01-07T08:09:15Z</time>
      </trkpt>
      <trkpt lat="43.51718" lon="3.48908">
        <ele>89</ele>
        <time>2019-01-07T08:09:17Z</time>
      </trkpt>
      <trkpt lat="43.51721" lon="3.4891">
        <ele>88.9</ele>
        <time>2019-01-07T08:09:20Z</time>
      </trkpt>
      <trkpt lat="43.51724" lon="3.48911">
        <ele>88.8</ele>
        <time>2019-01-07T08:09:23Z</time>
      </trkpt>
      <trkpt lat="43.51727" lon="3.48911">
        <ele>88.6</ele>
        <time>2019-01-07T08:09:26Z</time>
      </trkpt>
      <trkpt lat="43.51729" lon="3.48906">
        <ele>88.4</ele>
        <time>2019-01-07T08:09:30Z</time>
      </trkpt>
      <trkpt lat="43.51729" lon="3.48901">
        <ele>88.3</ele>
        <time>2019-01-07T08:09:33Z</time>
      </trkpt>
      <trkpt lat="43.5173" lon="3.48897">
        <ele>88.3</ele>
        <time>2019-01-07T08:09:35Z</time>
      </trkpt>
      <trkpt lat="43.51731" lon="3.48892">
        <ele>88.1</ele>
        <time>2019-01-07T08:09:38Z</time>
      </trkpt>
      <trkpt lat="43.51733" lon="3.48887">
        <ele>88.1</ele>
        <time>2019-01-07T08:09:40Z</time>
      </trkpt>
      <trkpt lat="43.51735" lon="3.48884">
        <ele>87.9</ele>
        <time>2019-01-07T08:09:42Z</time>
      </trkpt>
      <trkpt lat="43.51737" lon="3.48881">
        <ele>87.9</ele>
        <time>2019-01-07T08:09:45Z</time>
      </trkpt>
      <trkpt lat="43.5174" lon="3.48879">
        <ele>87.6</ele>
        <time>2019-01-07T08:09:48Z</time>
      </trkpt>
      <trkpt lat="43.51743" lon="3.48877">
        <ele>87.4</ele>
        <time>2019-01-07T08:09:50Z</time>
      </trkpt>
      <trkpt lat="43.51745" lon="3.48874">
        <ele>87.1</ele>
        <time>2019-01-07T08:09:53Z</time>
      </trkpt>
      <trkpt lat="43.51749" lon="3.48873">
        <ele>86.8</ele>
        <time>2019-01-07T08:09:56Z</time>
      </trkpt>
      <trkpt lat="43.51753" lon="3.48874">
        <ele>86.5</ele>
        <time>2019-01-07T08:09:58Z</time>
      </trkpt>
      <trkpt lat="43.51755" lon="3.48875">
        <ele>86.2</ele>
        <time>2019-01-07T08:10:00Z</time>
      </trkpt>
      <trkpt lat="43.51759" lon="3.48874">
        <ele>85.9</ele>
        <time>2019-01-07T08:10:04Z</time>
      </trkpt>
      <trkpt lat="43.51762" lon="3.48873">
        <ele>85.6</ele>
        <time>2019-01-07T08:10:06Z</time>
      </trkpt>
      <trkpt lat="43.51765" lon="3.48872">
        <ele>85.2</ele>
        <time>2019-01-07T08:10:09Z</time>
      </trkpt>
      <trkpt lat="43.51769" lon="3.48871">
        <ele>84.2</ele>
        <time>2019-01-07T08:10:13Z</time>
      </trkpt>
      <trkpt lat="43.51772" lon="3.48871">
        <ele>83.8</ele>
        <time>2019-01-07T08:10:16Z</time>
      </trkpt>
      <trkpt lat="43.51775" lon="3.4887">
        <ele>83.8</ele>
        <time>2019-01-07T08:10:18Z</time>
      </trkpt>
      <trkpt lat="43.51777" lon="3.4887">
        <ele>83.3</ele>
        <time>2019-01-07T08:10:21Z</time>
      </trkpt>
      <trkpt lat="43.51781" lon="3.4887">
        <ele>82.8</ele>
        <time>2019-01-07T08:10:24Z</time>
      </trkpt>
      <trkpt lat="43.51785" lon="3.48871">
        <ele>81.8</ele>
        <time>2019-01-07T08:10:27Z</time>
      </trkpt>
      <trkpt lat="43.51787" lon="3.48874">
        <ele>82</ele>
        <time>2019-01-07T08:10:30Z</time>
      </trkpt>
      <trkpt lat="43.51789" lon="3.48877">
        <ele>81.8</ele>
        <time>2019-01-07T08:10:34Z</time>
      </trkpt>
      <trkpt lat="43.51792" lon="3.4888">
        <ele>81.4</ele>
        <time>2019-01-07T08:10:37Z</time>
      </trkpt>
      <trkpt lat="43.51789" lon="3.48879">
        <ele>81.8</ele>
        <time>2019-01-07T08:10:54Z</time>
      </trkpt>
      <trkpt lat="43.51786" lon="3.4888">
        <ele>82.2</ele>
        <time>2019-01-07T08:10:58Z</time>
      </trkpt>
      <trkpt lat="43.51784" lon="3.48884">
        <ele>83</ele>
        <time>2019-01-07T08:11:00Z</time>
      </trkpt>
      <trkpt lat="43.51783" lon="3.48888">
        <ele>83.2</ele>
        <time>2019-01-07T08:11:02Z</time>
      </trkpt>
      <trkpt lat="43.51784" lon="3.48892">
        <ele>83.5</ele>
        <time>2019-01-07T08:11:05Z</time>
      </trkpt>
      <trkpt lat="43.51783" lon="3.48896">
        <ele>83.7</ele>
        <time>2019-01-07T08:11:08Z</time>
      </trkpt>
      <trkpt lat="43.51781" lon="3.48899">
        <ele>83.9</ele>
        <time>2019-01-07T08:11:13Z</time>
      </trkpt>
      <trkpt lat="43.51784" lon="3.48902">
        <ele>84.1</ele>
        <time>2019-01-07T08:11:16Z</time>
      </trkpt>
      <trkpt lat="43.51786" lon="3.489">
        <ele>83.5</ele>
        <time>2019-01-07T08:11:19Z</time>
      </trkpt>
      <trkpt lat="43.51789" lon="3.48901">
        <ele>83.1</ele>
        <time>2019-01-07T08:11:23Z</time>
      </trkpt>
      <trkpt lat="43.51792" lon="3.48899">
        <ele>82.7</ele>
        <time>2019-01-07T08:11:46Z</time>
      </trkpt>
      <trkpt lat="43.51788" lon="3.48898">
        <ele>83</ele>
        <time>2019-01-07T08:11:56Z</time>
      </trkpt>
      <trkpt lat="43.51787" lon="3.48901">
        <ele>83.5</ele>
        <time>2019-01-07T08:11:59Z</time>
      </trkpt>
      <trkpt lat="43.51787" lon="3.48906">
        <ele>84</ele>
        <time>2019-01-07T08:12:02Z</time>
      </trkpt>
      <trkpt lat="43.51785" lon="3.4891">
        <ele>84</ele>
        <time>2019-01-07T08:12:04Z</time>
      </trkpt>
      <trkpt lat="43.51784" lon="3.48914">
        <ele>84.2</ele>
        <time>2019-01-07T08:12:07Z</time>
      </trkpt>
      <trkpt lat="43.51785" lon="3.48918">
        <ele>84.6</ele>
        <time>2019-01-07T08:12:12Z</time>
      </trkpt>
      <trkpt lat="43.51783" lon="3.48922">
        <ele>85.2</ele>
        <time>2019-01-07T08:12:20Z</time>
      </trkpt>
      <trkpt lat="43.51782" lon="3.48926">
        <ele>85.5</ele>
        <time>2019-01-07T08:12:23Z</time>
      </trkpt>
      <trkpt lat="43.5178" lon="3.4893">
        <ele>86.1</ele>
        <time>2019-01-07T08:12:28Z</time>
      </trkpt>
      <trkpt lat="43.51778" lon="3.48933">
        <ele>86.6</ele>
        <time>2019-01-07T08:12:31Z</time>
      </trkpt>
      <trkpt lat="43.51775" lon="3.48935">
        <ele>86.6</ele>
        <time>2019-01-07T08:12:35Z</time>
      </trkpt>
      <trkpt lat="43.51774" lon="3.48939">
        <ele>87.1</ele>
        <time>2019-01-07T08:12:39Z</time>
      </trkpt>
      <trkpt lat="43.51774" lon="3.48942">
        <ele>87.4</ele>
        <time>2019-01-07T08:12:42Z</time>
      </trkpt>
      <trkpt lat="43.51772" lon="3.48945">
        <ele>87.6</ele>
        <time>2019-01-07T08:12:46Z</time>
      </trkpt>
      <trkpt lat="43.5177" lon="3.48947">
        <ele>87.8</ele>
        <time>2019-01-07T08:12:49Z</time>
      </trkpt>
      <trkpt lat="43.51769" lon="3.48952">
        <ele>88.1</ele>
        <time>2019-01-07T08:12:52Z</time>
      </trkpt>
      <trkpt lat="43.51771" lon="3.48954">
        <ele>88.4</ele>
        <time>2019-01-07T08:12:55Z</time>
      </trkpt>
      <trkpt lat="43.51774" lon="3.48955">
        <ele>88.2</ele>
        <time>2019-01-07T08:12:58Z</time>
      </trkpt>
      <trkpt lat="43.51776" lon="3.48956">
        <ele>88</ele>
        <time>2019-01-07T08:13:07Z</time>
      </trkpt>
      <trkpt lat="43.51775" lon="3.4896">
        <ele>88.3</ele>
        <time>2019-01-07T08:13:12Z</time>
      </trkpt>
      <trkpt lat="43.51777" lon="3.48963">
        <ele>88.7</ele>
        <time>2019-01-07T08:13:16Z</time>
      </trkpt>
      <trkpt lat="43.51776" lon="3.48967">
        <ele>89</ele>
        <time>2019-01-07T08:13:19Z</time>
      </trkpt>
      <trkpt lat="43.51776" lon="3.48971">
        <ele>89.4</ele>
        <time>2019-01-07T08:13:22Z</time>
      </trkpt>
      <trkpt lat="43.51779" lon="3.48973">
        <ele>89.2</ele>
        <time>2019-01-07T08:13:26Z</time>
      </trkpt>
      <trkpt lat="43.51782" lon="3.48973">
        <ele>88.9</ele>
        <time>2019-01-07T08:13:29Z</time>
      </trkpt>
      <trkpt lat="43.51785" lon="3.48976">
        <ele>89</ele>
        <time>2019-01-07T08:13:33Z</time>
      </trkpt>
      <trkpt lat="43.51784" lon="3.48981">
        <ele>89.4</ele>
        <time>2019-01-07T08:13:38Z</time>
      </trkpt>
      <trkpt lat="43.51782" lon="3.48984">
        <ele>89.9</ele>
        <time>2019-01-07T08:13:42Z</time>
      </trkpt>
      <trkpt lat="43.51782" lon="3.48989">
        <ele>90.3</ele>
        <time>2019-01-07T08:13:46Z</time>
      </trkpt>
      <trkpt lat="43.51785" lon="3.48991">
        <ele>90</ele>
        <time>2019-01-07T08:13:49Z</time>
      </trkpt>
      <trkpt lat="43.51786" lon="3.48994">
        <ele>90.4</ele>
        <time>2019-01-07T08:13:52Z</time>
      </trkpt>
      <trkpt lat="43.51787" lon="3.48998">
        <ele>90.5</ele>
        <time>2019-01-07T08:13:55Z</time>
      </trkpt>
      <trkpt lat="43.51789" lon="3.49001">
        <ele>90.8</ele>
        <time>2019-01-07T08:13:59Z</time>
      </trkpt>
      <trkpt lat="43.51791" lon="3.49004">
        <ele>90.6</ele>
        <time>2019-01-07T08:14:05Z</time>
      </trkpt>
      <trkpt lat="43.51793" lon="3.49008">
        <ele>90.9</ele>
        <time>2019-01-07T08:14:11Z</time>
      </trkpt>
      <trkpt lat="43.51794" lon="3.49012">
        <ele>91</ele>
        <time>2019-01-07T08:14:14Z</time>
      </trkpt>
      <trkpt lat="43.51796" lon="3.49015">
        <ele>91.3</ele>
        <time>2019-01-07T08:14:18Z</time>
      </trkpt>
      <trkpt lat="43.51799" lon="3.49015">
        <ele>91</ele>
        <time>2019-01-07T08:14:22Z</time>
      </trkpt>
      <trkpt lat="43.51803" lon="3.49013">
        <ele>90.1</ele>
        <time>2019-01-07T08:14:25Z</time>
      </trkpt>
      <trkpt lat="43.51806" lon="3.49015">
        <ele>90</ele>
        <time>2019-01-07T08:14:30Z</time>
      </trkpt>
      <trkpt lat="43.51807" lon="3.49019">
        <ele>90.3</ele>
        <time>2019-01-07T08:14:34Z</time>
      </trkpt>
      <trkpt lat="43.51805" lon="3.49023">
        <ele>90.9</ele>
        <time>2019-01-07T08:14:37Z</time>
      </trkpt>
      <trkpt lat="43.51805" lon="3.49027">
        <ele>91.2</ele>
        <time>2019-01-07T08:14:41Z</time>
      </trkpt>
      <trkpt lat="43.51807" lon="3.49029">
        <ele>90.8</ele>
        <time>2019-01-07T08:14:44Z</time>
      </trkpt>
      <trkpt lat="43.51808" lon="3.49033">
        <ele>91.1</ele>
        <time>2019-01-07T08:14:48Z</time>
      </trkpt>
      <trkpt lat="43.51809" lon="3.49037">
        <ele>91</ele>
        <time>2019-01-07T08:14:52Z</time>
      </trkpt>
      <trkpt lat="43.5181" lon="3.49041">
        <ele>91.3</ele>
        <time>2019-01-07T08:14:57Z</time>
      </trkpt>
      <trkpt lat="43.51814" lon="3.49042">
        <ele>91</ele>
        <time>2019-01-07T08:15:02Z</time>
      </trkpt>
      <trkpt lat="43.51817" lon="3.49043">
        <ele>90.7</ele>
        <time>2019-01-07T08:15:05Z</time>
      </trkpt>
      <trkpt lat="43.51818" lon="3.49048">
        <ele>91.5</ele>
        <time>2019-01-07T08:15:10Z</time>
      </trkpt>
      <trkpt lat="43.51818" lon="3.49052">
        <ele>91.9</ele>
        <time>2019-01-07T08:15:13Z</time>
      </trkpt>
      <trkpt lat="43.51821" lon="3.49054">
        <ele>91.6</ele>
        <time>2019-01-07T08:15:17Z</time>
      </trkpt>
      <trkpt lat="43.51823" lon="3.49057">
        <ele>91.8</ele>
        <time>2019-01-07T08:15:21Z</time>
      </trkpt>
      <trkpt lat="43.51826" lon="3.49062">
        <ele>91.9</ele>
        <time>2019-01-07T08:15:24Z</time>
      </trkpt>
      <trkpt lat="43.51827" lon="3.49066">
        <ele>92.3</ele>
        <time>2019-01-07T08:15:27Z</time>
      </trkpt>
      <trkpt lat="43.51826" lon="3.49071">
        <ele>92.7</ele>
        <time>2019-01-07T08:15:30Z</time>
      </trkpt>
      <trkpt lat="43.51829" lon="3.49073">
        <ele>92.3</ele>
        <time>2019-01-07T08:15:35Z</time>
      </trkpt>
      <trkpt lat="43.51829" lon="3.49077">
        <ele>92.7</ele>
        <time>2019-01-07T08:15:44Z</time>
      </trkpt>
      <trkpt lat="43.51832" lon="3.49079">
        <ele>92.6</ele>
        <time>2019-01-07T08:15:48Z</time>
      </trkpt>
      <trkpt lat="43.51834" lon="3.49081">
        <ele>92.2</ele>
        <time>2019-01-07T08:15:52Z</time>
      </trkpt>
      <trkpt lat="43.51837" lon="3.49084">
        <ele>92.6</ele>
        <time>2019-01-07T08:15:57Z</time>
      </trkpt>
      <trkpt lat="43.5184" lon="3.49086">
        <ele>92.5</ele>
        <time>2019-01-07T08:16:10Z</time>
      </trkpt>
      <trkpt lat="43.51842" lon="3.49089">
        <ele>92.1</ele>
        <time>2019-01-07T08:16:20Z</time>
      </trkpt>
      <trkpt lat="43.51845" lon="3.49087">
        <ele>91.7</ele>
        <time>2019-01-07T08:16:31Z</time>
      </trkpt>
      <trkpt lat="43.51847" lon="3.49086">
        <ele>91.3</ele>
        <time>2019-01-07T08:16:37Z</time>
      </trkpt>
      <trkpt lat="43.51849" lon="3.49083">
        <ele>90.5</ele>
        <time>2019-01-07T08:16:51Z</time>
      </trkpt>
      <trkpt lat="43.51852" lon="3.49081">
        <ele>90.1</ele>
        <time>2019-01-07T08:16:59Z</time>
      </trkpt>
      <trkpt lat="43.51856" lon="3.49082">
        <ele>89.2</ele>
        <time>2019-01-07T08:17:01Z</time>
      </trkpt>
      <trkpt lat="43.51859" lon="3.49083">
        <ele>89.2</ele>
        <time>2019-01-07T08:17:03Z</time>
      </trkpt>
      <trkpt lat="43.51862" lon="3.49087">
        <ele>89.6</ele>
        <time>2019-01-07T08:17:06Z</time>
      </trkpt>
      <trkpt lat="43.51865" lon="3.4909">
        <ele>89.1</ele>
        <time>2019-01-07T08:17:09Z</time>
      </trkpt>
      <trkpt lat="43.51867" lon="3.49092">
        <ele>89.1</ele>
        <time>2019-01-07T08:17:11Z</time>
      </trkpt>
      <trkpt lat="43.5187" lon="3.49094">
        <ele>88.6</ele>
        <time>2019-01-07T08:17:14Z</time>
      </trkpt>
      <trkpt lat="43.51873" lon="3.49098">
        <ele>88.5</ele>
        <time>2019-01-07T08:17:17Z</time>
      </trkpt>
      <trkpt lat="43.51876" lon="3.49102">
        <ele>88.4</ele>
        <time>2019-01-07T08:17:20Z</time>
      </trkpt>
      <trkpt lat="43.51878" lon="3.49104">
        <ele>88.3</ele>
        <time>2019-01-07T08:17:22Z</time>
      </trkpt>
      <trkpt lat="43.5188" lon="3.49107">
        <ele>88.3</ele>
        <time>2019-01-07T08:17:24Z</time>
      </trkpt>
      <trkpt lat="43.51882" lon="3.4911">
        <ele>88.2</ele>
        <time>2019-01-07T08:17:26Z</time>
      </trkpt>
      <trkpt lat="43.51883" lon="3.49114">
        <ele>88.6</ele>
        <time>2019-01-07T08:17:29Z</time>
      </trkpt>
      <trkpt lat="43.51886" lon="3.49117">
        <ele>88.5</ele>
        <time>2019-01-07T08:17:32Z</time>
      </trkpt>
      <trkpt lat="43.51888" lon="3.49116">
        <ele>87.5</ele>
        <time>2019-01-07T08:17:35Z</time>
      </trkpt>
      <trkpt lat="43.51888" lon="3.49112">
        <ele>87.1</ele>
        <time>2019-01-07T08:17:38Z</time>
      </trkpt>
      <trkpt lat="43.51888" lon="3.49117">
        <ele>88</ele>
        <time>2019-01-07T08:17:41Z</time>
      </trkpt>
      <trkpt lat="43.51887" lon="3.49122">
        <ele>88.4</ele>
        <time>2019-01-07T08:17:43Z</time>
      </trkpt>
      <trkpt lat="43.5189" lon="3.49125">
        <ele>87.8</ele>
        <time>2019-01-07T08:17:46Z</time>
      </trkpt>
      <trkpt lat="43.51893" lon="3.49127">
        <ele>88.3</ele>
        <time>2019-01-07T08:17:49Z</time>
      </trkpt>
      <trkpt lat="43.51892" lon="3.49132">
        <ele>88.7</ele>
        <time>2019-01-07T08:17:52Z</time>
      </trkpt>
      <trkpt lat="43.51893" lon="3.49137">
        <ele>89.2</ele>
        <time>2019-01-07T08:17:55Z</time>
      </trkpt>
      <trkpt lat="43.51894" lon="3.49141">
        <ele>89.2</ele>
        <time>2019-01-07T08:17:58Z</time>
      </trkpt>
      <trkpt lat="43.51894" lon="3.49146">
        <ele>89.7</ele>
        <time>2019-01-07T08:18:00Z</time>
      </trkpt>
      <trkpt lat="43.51895" lon="3.4915">
        <ele>90.1</ele>
        <time>2019-01-07T08:18:03Z</time>
      </trkpt>
      <trkpt lat="43.51896" lon="3.49155">
        <ele>90.1</ele>
        <time>2019-01-07T08:18:06Z</time>
      </trkpt>
      <trkpt lat="43.51898" lon="3.49158">
        <ele>90.6</ele>
        <time>2019-01-07T08:18:08Z</time>
      </trkpt>
      <trkpt lat="43.519" lon="3.49163">
        <ele>90.5</ele>
        <time>2019-01-07T08:18:11Z</time>
      </trkpt>
      <trkpt lat="43.51902" lon="3.49167">
        <ele>90.9</ele>
        <time>2019-01-07T08:18:14Z</time>
      </trkpt>
      <trkpt lat="43.51902" lon="3.49171">
        <ele>91.2</ele>
        <time>2019-01-07T08:18:17Z</time>
      </trkpt>
      <trkpt lat="43.51903" lon="3.49176">
        <ele>91.2</ele>
        <time>2019-01-07T08:18:20Z</time>
      </trkpt>
      <trkpt lat="43.51905" lon="3.49179">
        <ele>91.5</ele>
        <time>2019-01-07T08:18:22Z</time>
      </trkpt>
      <trkpt lat="43.51907" lon="3.49183">
        <ele>91.4</ele>
        <time>2019-01-07T08:18:25Z</time>
      </trkpt>
      <trkpt lat="43.51908" lon="3.49188">
        <ele>91.7</ele>
        <time>2019-01-07T08:18:28Z</time>
      </trkpt>
      <trkpt lat="43.51911" lon="3.49191">
        <ele>91.6</ele>
        <time>2019-01-07T08:18:31Z</time>
      </trkpt>
      <trkpt lat="43.51912" lon="3.49195">
        <ele>91.4</ele>
        <time>2019-01-07T08:18:34Z</time>
      </trkpt>
      <trkpt lat="43.51913" lon="3.49199">
        <ele>91.8</ele>
        <time>2019-01-07T08:18:37Z</time>
      </trkpt>
      <trkpt lat="43.51914" lon="3.49204">
        <ele>92</ele>
        <time>2019-01-07T08:18:40Z</time>
      </trkpt>
      <trkpt lat="43.51915" lon="3.49209">
        <ele>91.7</ele>
        <time>2019-01-07T08:18:43Z</time>
      </trkpt>
      <trkpt lat="43.51916" lon="3.49212">
        <ele>92</ele>
        <time>2019-01-07T08:18:45Z</time>
      </trkpt>
      <trkpt lat="43.51916" lon="3.49216">
        <ele>92.2</ele>
        <time>2019-01-07T08:18:47Z</time>
      </trkpt>
      <trkpt lat="43.51916" lon="3.4922">
        <ele>92.4</ele>
        <time>2019-01-07T08:18:50Z</time>
      </trkpt>
      <trkpt lat="43.51915" lon="3.49225">
        <ele>93.2</ele>
        <time>2019-01-07T08:18:53Z</time>
      </trkpt>
      <trkpt lat="43.51916" lon="3.4923">
        <ele>92.8</ele>
        <time>2019-01-07T08:18:56Z</time>
      </trkpt>
      <trkpt lat="43.51918" lon="3.49232">
        <ele>92.3</ele>
        <time>2019-01-07T08:18:58Z</time>
      </trkpt>
      <trkpt lat="43.51922" lon="3.49232">
        <ele>91.7</ele>
        <time>2019-01-07T08:19:01Z</time>
      </trkpt>
      <trkpt lat="43.51925" lon="3.49233">
        <ele>91.5</ele>
        <time>2019-01-07T08:19:04Z</time>
      </trkpt>
      <trkpt lat="43.51928" lon="3.49235">
        <ele>91</ele>
        <time>2019-01-07T08:19:06Z</time>
      </trkpt>
      <trkpt lat="43.51931" lon="3.49238">
        <ele>90.8</ele>
        <time>2019-01-07T08:19:09Z</time>
      </trkpt>
      <trkpt lat="43.51933" lon="3.49242">
        <ele>91</ele>
        <time>2019-01-07T08:19:11Z</time>
      </trkpt>
      <trkpt lat="43.51935" lon="3.49245">
        <ele>90.8</ele>
        <time>2019-01-07T08:19:13Z</time>
      </trkpt>
      <trkpt lat="43.51936" lon="3.49249">
        <ele>90.8</ele>
        <time>2019-01-07T08:19:15Z</time>
      </trkpt>
      <trkpt lat="43.51939" lon="3.49252">
        <ele>90.5</ele>
        <time>2019-01-07T08:19:18Z</time>
      </trkpt>
      <trkpt lat="43.51941" lon="3.49255">
        <ele>90.1</ele>
        <time>2019-01-07T08:19:20Z</time>
      </trkpt>
      <trkpt lat="43.51942" lon="3.4926">
        <ele>90.3</ele>
        <time>2019-01-07T08:19:23Z</time>
      </trkpt>
      <trkpt lat="43.51942" lon="3.49265">
        <ele>90.5</ele>
        <time>2019-01-07T08:19:26Z</time>
      </trkpt>
      <trkpt lat="43.51943" lon="3.4927">
        <ele>90</ele>
        <time>2019-01-07T08:19:29Z</time>
      </trkpt>
      <trkpt lat="43.51943" lon="3.49274">
        <ele>90.1</ele>
        <time>2019-01-07T08:19:31Z</time>
      </trkpt>
      <trkpt lat="43.51944" lon="3.49279">
        <ele>90.2</ele>
        <time>2019-01-07T08:19:34Z</time>
      </trkpt>
      <trkpt lat="43.51944" lon="3.49283">
        <ele>90.2</ele>
        <time>2019-01-07T08:19:36Z</time>
      </trkpt>
      <trkpt lat="43.51945" lon="3.49287">
        <ele>90.2</ele>
        <time>2019-01-07T08:19:38Z</time>
      </trkpt>
      <trkpt lat="43.51948" lon="3.4929">
        <ele>89.6</ele>
        <time>2019-01-07T08:19:41Z</time>
      </trkpt>
      <trkpt lat="43.51951" lon="3.49292">
        <ele>89</ele>
        <time>2019-01-07T08:19:43Z</time>
      </trkpt>
      <trkpt lat="43.51953" lon="3.49293">
        <ele>88.5</ele>
        <time>2019-01-07T08:19:45Z</time>
      </trkpt>
      <trkpt lat="43.51957" lon="3.49295">
        <ele>88</ele>
        <time>2019-01-07T08:19:48Z</time>
      </trkpt>
      <trkpt lat="43.51959" lon="3.49297">
        <ele>87.5</ele>
        <time>2019-01-07T08:19:51Z</time>
      </trkpt>
      <trkpt lat="43.51961" lon="3.49299">
        <ele>87.5</ele>
        <time>2019-01-07T08:19:54Z</time>
      </trkpt>
      <trkpt lat="43.51965" lon="3.49297">
        <ele>86.4</ele>
        <time>2019-01-07T08:19:57Z</time>
      </trkpt>
      <trkpt lat="43.51968" lon="3.49296">
        <ele>85.8</ele>
        <time>2019-01-07T08:20:00Z</time>
      </trkpt>
      <trkpt lat="43.5197" lon="3.49294">
        <ele>85.8</ele>
        <time>2019-01-07T08:20:04Z</time>
      </trkpt>
      <trkpt lat="43.51974" lon="3.49293">
        <ele>85.3</ele>
        <time>2019-01-07T08:20:08Z</time>
      </trkpt>
      <trkpt lat="43.51977" lon="3.49292">
        <ele>84.2</ele>
        <time>2019-01-07T08:20:13Z</time>
      </trkpt>
      <trkpt lat="43.5198" lon="3.4929">
        <ele>83.8</ele>
        <time>2019-01-07T08:20:24Z</time>
      </trkpt>
      <trkpt lat="43.51983" lon="3.4929">
        <ele>83.3</ele>
        <time>2019-01-07T08:20:39Z</time>
      </trkpt>
      <trkpt lat="43.51986" lon="3.49287">
        <ele>83.2</ele>
        <time>2019-01-07T08:20:46Z</time>
      </trkpt>
      <trkpt lat="43.51988" lon="3.49285">
        <ele>82.8</ele>
        <time>2019-01-07T08:20:50Z</time>
      </trkpt>
      <trkpt lat="43.51991" lon="3.49283">
        <ele>82.3</ele>
        <time>2019-01-07T08:20:59Z</time>
      </trkpt>
      <trkpt lat="43.51993" lon="3.49281">
        <ele>81.9</ele>
        <time>2019-01-07T08:21:09Z</time>
      </trkpt>
      <trkpt lat="43.51996" lon="3.49283">
        <ele>81.5</ele>
        <time>2019-01-07T08:21:15Z</time>
      </trkpt>
      <trkpt lat="43.51998" lon="3.49281">
        <ele>81.5</ele>
        <time>2019-01-07T08:21:21Z</time>
      </trkpt>
      <trkpt lat="43.52001" lon="3.49281">
        <ele>81</ele>
        <time>2019-01-07T08:21:24Z</time>
      </trkpt>
      <trkpt lat="43.52005" lon="3.4928">
        <ele>80.6</ele>
        <time>2019-01-07T08:21:32Z</time>
      </trkpt>
      <trkpt lat="43.52008" lon="3.49283">
        <ele>80.3</ele>
        <time>2019-01-07T08:21:35Z</time>
      </trkpt>
      <trkpt lat="43.52009" lon="3.49286">
        <ele>80</ele>
        <time>2019-01-07T08:21:41Z</time>
      </trkpt>
      <trkpt lat="43.52012" lon="3.49289">
        <ele>79.7</ele>
        <time>2019-01-07T08:21:49Z</time>
      </trkpt>
      <trkpt lat="43.52015" lon="3.49291">
        <ele>79.4</ele>
        <time>2019-01-07T08:21:53Z</time>
      </trkpt>
      <trkpt lat="43.52015" lon="3.49295">
        <ele>79.4</ele>
        <time>2019-01-07T08:21:57Z</time>
      </trkpt>
      <trkpt lat="43.52018" lon="3.49298">
        <ele>79.1</ele>
        <time>2019-01-07T08:22:02Z</time>
      </trkpt>
      <trkpt lat="43.5202" lon="3.493">
        <ele>79.1</ele>
        <time>2019-01-07T08:22:05Z</time>
      </trkpt>
      <trkpt lat="43.52022" lon="3.49303">
        <ele>78.8</ele>
        <time>2019-01-07T08:22:12Z</time>
      </trkpt>
      <trkpt lat="43.52023" lon="3.49307">
        <ele>78.8</ele>
        <time>2019-01-07T08:22:17Z</time>
      </trkpt>
      <trkpt lat="43.52026" lon="3.49309">
        <ele>78.6</ele>
        <time>2019-01-07T08:22:21Z</time>
      </trkpt>
      <trkpt lat="43.52029" lon="3.49311">
        <ele>78.3</ele>
        <time>2019-01-07T08:22:28Z</time>
      </trkpt>
      <trkpt lat="43.52029" lon="3.49315">
        <ele>78.3</ele>
        <time>2019-01-07T08:22:32Z</time>
      </trkpt>
      <trkpt lat="43.52031" lon="3.49318">
        <ele>78.1</ele>
        <time>2019-01-07T08:23:23Z</time>
      </trkpt>
      <trkpt lat="43.52033" lon="3.49321">
        <ele>78.1</ele>
        <time>2019-01-07T08:23:25Z</time>
      </trkpt>
      <trkpt lat="43.52033" lon="3.49326">
        <ele>77.8</ele>
        <time>2019-01-07T08:23:29Z</time>
      </trkpt>
      <trkpt lat="43.52032" lon="3.4933">
        <ele>78</ele>
        <time>2019-01-07T08:23:33Z</time>
      </trkpt>
      <trkpt lat="43.52031" lon="3.49334">
        <ele>78</ele>
        <time>2019-01-07T08:23:36Z</time>
      </trkpt>
      <trkpt lat="43.52028" lon="3.49337">
        <ele>78.1</ele>
        <time>2019-01-07T08:23:40Z</time>
      </trkpt>
      <trkpt lat="43.52026" lon="3.49341">
        <ele>78.3</ele>
        <time>2019-01-07T08:23:43Z</time>
      </trkpt>
      <trkpt lat="43.52024" lon="3.49345">
        <ele>78.5</ele>
        <time>2019-01-07T08:23:46Z</time>
      </trkpt>
      <trkpt lat="43.52021" lon="3.49348">
        <ele>78.5</ele>
        <time>2019-01-07T08:24:09Z</time>
      </trkpt>
      <trkpt lat="43.5202" lon="3.49351">
        <ele>78.8</ele>
        <time>2019-01-07T08:24:11Z</time>
      </trkpt>
      <trkpt lat="43.52017" lon="3.49353">
        <ele>79</ele>
        <time>2019-01-07T08:24:13Z</time>
      </trkpt>
      <trkpt lat="43.52015" lon="3.49355">
        <ele>79</ele>
        <time>2019-01-07T08:24:15Z</time>
      </trkpt>
      <trkpt lat="43.52012" lon="3.49358">
        <ele>79.3</ele>
        <time>2019-01-07T08:24:18Z</time>
      </trkpt>
      <trkpt lat="43.5201" lon="3.49362">
        <ele>79.7</ele>
        <time>2019-01-07T08:24:21Z</time>
      </trkpt>
      <trkpt lat="43.52008" lon="3.49367">
        <ele>79.7</ele>
        <time>2019-01-07T08:24:24Z</time>
      </trkpt>
      <trkpt lat="43.52006" lon="3.49371">
        <ele>80.1</ele>
        <time>2019-01-07T08:24:27Z</time>
      </trkpt>
      <trkpt lat="43.52004" lon="3.49375">
        <ele>80.5</ele>
        <time>2019-01-07T08:24:30Z</time>
      </trkpt>
      <trkpt lat="43.52002" lon="3.49378">
        <ele>80.9</ele>
        <time>2019-01-07T08:24:34Z</time>
      </trkpt>
      <trkpt lat="43.51999" lon="3.4938">
        <ele>80.9</ele>
        <time>2019-01-07T08:24:36Z</time>
      </trkpt>
      <trkpt lat="43.51997" lon="3.49383">
        <ele>81.3</ele>
        <time>2019-01-07T08:24:38Z</time>
      </trkpt>
      <trkpt lat="43.51995" lon="3.49387">
        <ele>81.7</ele>
        <time>2019-01-07T08:24:40Z</time>
      </trkpt>
      <trkpt lat="43.51994" lon="3.49391">
        <ele>81.7</ele>
        <time>2019-01-07T08:24:42Z</time>
      </trkpt>
      <trkpt lat="43.51992" lon="3.49394">
        <ele>82</ele>
        <time>2019-01-07T08:24:44Z</time>
      </trkpt>
      <trkpt lat="43.5199" lon="3.49396">
        <ele>81.8</ele>
        <time>2019-01-07T08:24:46Z</time>
      </trkpt>
      <trkpt lat="43.51988" lon="3.494">
        <ele>82.1</ele>
        <time>2019-01-07T08:24:48Z</time>
      </trkpt>
      <trkpt lat="43.51986" lon="3.49403">
        <ele>82.6</ele>
        <time>2019-01-07T08:24:50Z</time>
      </trkpt>
      <trkpt lat="43.51984" lon="3.49407">
        <ele>82.4</ele>
        <time>2019-01-07T08:24:52Z</time>
      </trkpt>
      <trkpt lat="43.51982" lon="3.4941">
        <ele>82.7</ele>
        <time>2019-01-07T08:24:54Z</time>
      </trkpt>
      <trkpt lat="43.5198" lon="3.49412">
        <ele>83.1</ele>
        <time>2019-01-07T08:24:56Z</time>
      </trkpt>
      <trkpt lat="43.51978" lon="3.49417">
        <ele>82.9</ele>
        <time>2019-01-07T08:24:59Z</time>
      </trkpt>
      <trkpt lat="43.51976" lon="3.4942">
        <ele>83.2</ele>
        <time>2019-01-07T08:25:01Z</time>
      </trkpt>
      <trkpt lat="43.51974" lon="3.49423">
        <ele>83.5</ele>
        <time>2019-01-07T08:25:03Z</time>
      </trkpt>
      <trkpt lat="43.51971" lon="3.49425">
        <ele>83.5</ele>
        <time>2019-01-07T08:25:05Z</time>
      </trkpt>
      <trkpt lat="43.51969" lon="3.49428">
        <ele>83.8</ele>
        <time>2019-01-07T08:25:07Z</time>
      </trkpt>
      <trkpt lat="43.51967" lon="3.4943">
        <ele>84.1</ele>
        <time>2019-01-07T08:25:09Z</time>
      </trkpt>
      <trkpt lat="43.51965" lon="3.49434">
        <ele>83.9</ele>
        <time>2019-01-07T08:25:12Z</time>
      </trkpt>
      <trkpt lat="43.51962" lon="3.49437">
        <ele>84.4</ele>
        <time>2019-01-07T08:25:14Z</time>
      </trkpt>
      <trkpt lat="43.5196" lon="3.4944">
        <ele>84.6</ele>
        <time>2019-01-07T08:25:17Z</time>
      </trkpt>
      <trkpt lat="43.51958" lon="3.49444">
        <ele>84.8</ele>
        <time>2019-01-07T08:25:20Z</time>
      </trkpt>
      <trkpt lat="43.51955" lon="3.49446">
        <ele>84.7</ele>
        <time>2019-01-07T08:25:23Z</time>
      </trkpt>
      <trkpt lat="43.51953" lon="3.4945">
        <ele>84.9</ele>
        <time>2019-01-07T08:25:26Z</time>
      </trkpt>
      <trkpt lat="43.5195" lon="3.49453">
        <ele>85</ele>
        <time>2019-01-07T08:25:29Z</time>
      </trkpt>
      <trkpt lat="43.51947" lon="3.49457">
        <ele>85.2</ele>
        <time>2019-01-07T08:25:32Z</time>
      </trkpt>
      <trkpt lat="43.51945" lon="3.4946">
        <ele>85.4</ele>
        <time>2019-01-07T08:25:34Z</time>
      </trkpt>
      <trkpt lat="43.51943" lon="3.49463">
        <ele>85.7</ele>
        <time>2019-01-07T08:25:37Z</time>
      </trkpt>
      <trkpt lat="43.5194" lon="3.49465">
        <ele>85.5</ele>
        <time>2019-01-07T08:25:40Z</time>
      </trkpt>
      <trkpt lat="43.51937" lon="3.49467">
        <ele>85.9</ele>
        <time>2019-01-07T08:25:43Z</time>
      </trkpt>
      <trkpt lat="43.51934" lon="3.4947">
        <ele>86</ele>
        <time>2019-01-07T08:25:46Z</time>
      </trkpt>
      <trkpt lat="43.51932" lon="3.49473">
        <ele>86.1</ele>
        <time>2019-01-07T08:25:49Z</time>
      </trkpt>
      <trkpt lat="43.51929" lon="3.49477">
        <ele>86.2</ele>
        <time>2019-01-07T08:25:52Z</time>
      </trkpt>
      <trkpt lat="43.51926" lon="3.49481">
        <ele>86.5</ele>
        <time>2019-01-07T08:25:55Z</time>
      </trkpt>
      <trkpt lat="43.51923" lon="3.49483">
        <ele>86.6</ele>
        <time>2019-01-07T08:25:58Z</time>
      </trkpt>
      <trkpt lat="43.5192" lon="3.49486">
        <ele>86.8</ele>
        <time>2019-01-07T08:26:01Z</time>
      </trkpt>
      <trkpt lat="43.51918" lon="3.49489">
        <ele>86.8</ele>
        <time>2019-01-07T08:26:04Z</time>
      </trkpt>
      <trkpt lat="43.51916" lon="3.49492">
        <ele>86.9</ele>
        <time>2019-01-07T08:26:06Z</time>
      </trkpt>
      <trkpt lat="43.51913" lon="3.49494">
        <ele>87.1</ele>
        <time>2019-01-07T08:26:08Z</time>
      </trkpt>
      <trkpt lat="43.51911" lon="3.49498">
        <ele>87.5</ele>
        <time>2019-01-07T08:26:12Z</time>
      </trkpt>
      <trkpt lat="43.51909" lon="3.49501">
        <ele>87.3</ele>
        <time>2019-01-07T08:26:15Z</time>
      </trkpt>
      <trkpt lat="43.51907" lon="3.49504">
        <ele>87.4</ele>
        <time>2019-01-07T08:26:18Z</time>
      </trkpt>
      <trkpt lat="43.51906" lon="3.49508">
        <ele>87.2</ele>
        <time>2019-01-07T08:26:21Z</time>
      </trkpt>
      <trkpt lat="43.51903" lon="3.49511">
        <ele>87.6</ele>
        <time>2019-01-07T08:26:24Z</time>
      </trkpt>
      <trkpt lat="43.51901" lon="3.49515">
        <ele>87.8</ele>
        <time>2019-01-07T08:26:28Z</time>
      </trkpt>
      <trkpt lat="43.51899" lon="3.49517">
        <ele>88.1</ele>
        <time>2019-01-07T08:26:31Z</time>
      </trkpt>
      <trkpt lat="43.51897" lon="3.49522">
        <ele>88</ele>
        <time>2019-01-07T08:26:34Z</time>
      </trkpt>
      <trkpt lat="43.51896" lon="3.49527">
        <ele>88.3</ele>
        <time>2019-01-07T08:26:37Z</time>
      </trkpt>
      <trkpt lat="43.51895" lon="3.49531">
        <ele>88.2</ele>
        <time>2019-01-07T08:26:41Z</time>
      </trkpt>
      <trkpt lat="43.51897" lon="3.49534">
        <ele>87.7</ele>
        <time>2019-01-07T08:26:45Z</time>
      </trkpt>
      <trkpt lat="43.519" lon="3.49536">
        <ele>87.3</ele>
        <time>2019-01-07T08:26:52Z</time>
      </trkpt>
      <trkpt lat="43.51902" lon="3.49539">
        <ele>87.2</ele>
        <time>2019-01-07T08:26:55Z</time>
      </trkpt>
      <trkpt lat="43.51905" lon="3.49543">
        <ele>86.7</ele>
        <time>2019-01-07T08:26:59Z</time>
      </trkpt>
      <trkpt lat="43.51908" lon="3.49547">
        <ele>86.3</ele>
        <time>2019-01-07T08:27:02Z</time>
      </trkpt>
      <trkpt lat="43.5191" lon="3.4955">
        <ele>85.8</ele>
        <time>2019-01-07T08:27:05Z</time>
      </trkpt>
      <trkpt lat="43.51914" lon="3.49552">
        <ele>85.2</ele>
        <time>2019-01-07T08:27:10Z</time>
      </trkpt>
      <trkpt lat="43.51917" lon="3.49556">
        <ele>84.5</ele>
        <time>2019-01-07T08:27:13Z</time>
      </trkpt>
      <trkpt lat="43.5192" lon="3.49558">
        <ele>83.8</ele>
        <time>2019-01-07T08:27:16Z</time>
      </trkpt>
      <trkpt lat="43.51922" lon="3.4956">
        <ele>83.3</ele>
        <time>2019-01-07T08:27:18Z</time>
      </trkpt>
      <trkpt lat="43.51926" lon="3.49562">
        <ele>82.8</ele>
        <time>2019-01-07T08:27:20Z</time>
      </trkpt>
      <trkpt lat="43.51928" lon="3.49564">
        <ele>82.3</ele>
        <time>2019-01-07T08:27:24Z</time>
      </trkpt>
      <trkpt lat="43.51931" lon="3.49566">
        <ele>81.9</ele>
        <time>2019-01-07T08:27:27Z</time>
      </trkpt>
      <trkpt lat="43.51936" lon="3.49567">
        <ele>81.6</ele>
        <time>2019-01-07T08:27:30Z</time>
      </trkpt>
      <trkpt lat="43.51939" lon="3.49567">
        <ele>81.2</ele>
        <time>2019-01-07T08:27:32Z</time>
      </trkpt>
      <trkpt lat="43.51942" lon="3.49566">
        <ele>80.9</ele>
        <time>2019-01-07T08:27:34Z</time>
      </trkpt>
      <trkpt lat="43.51945" lon="3.49567">
        <ele>80.5</ele>
        <time>2019-01-07T08:27:36Z</time>
      </trkpt>
      <trkpt lat="43.51949" lon="3.49567">
        <ele>80.1</ele>
        <time>2019-01-07T08:27:38Z</time>
      </trkpt>
      <trkpt lat="43.51953" lon="3.49568">
        <ele>79.6</ele>
        <time>2019-01-07T08:27:40Z</time>
      </trkpt>
      <trkpt lat="43.51957" lon="3.4957">
        <ele>79.3</ele>
        <time>2019-01-07T08:27:42Z</time>
      </trkpt>
      <trkpt lat="43.5196" lon="3.4957">
        <ele>79.1</ele>
        <time>2019-01-07T08:27:44Z</time>
      </trkpt>
      <trkpt lat="43.51963" lon="3.49572">
        <ele>78.8</ele>
        <time>2019-01-07T08:27:46Z</time>
      </trkpt>
      <trkpt lat="43.51966" lon="3.49573">
        <ele>78.5</ele>
        <time>2019-01-07T08:27:48Z</time>
      </trkpt>
      <trkpt lat="43.5197" lon="3.49574">
        <ele>78.1</ele>
        <time>2019-01-07T08:27:51Z</time>
      </trkpt>
      <trkpt lat="43.51972" lon="3.49576">
        <ele>77.7</ele>
        <time>2019-01-07T08:27:53Z</time>
      </trkpt>
      <trkpt lat="43.51974" lon="3.49578">
        <ele>77.3</ele>
        <time>2019-01-07T08:27:55Z</time>
      </trkpt>
      <trkpt lat="43.51976" lon="3.49581">
        <ele>77.2</ele>
        <time>2019-01-07T08:27:57Z</time>
      </trkpt>
      <trkpt lat="43.51978" lon="3.49585">
        <ele>77.2</ele>
        <time>2019-01-07T08:27:59Z</time>
      </trkpt>
      <trkpt lat="43.51978" lon="3.49589">
        <ele>77.2</ele>
        <time>2019-01-07T08:28:01Z</time>
      </trkpt>
      <trkpt lat="43.51979" lon="3.49594">
        <ele>77.1</ele>
        <time>2019-01-07T08:28:03Z</time>
      </trkpt>
      <trkpt lat="43.51979" lon="3.49598">
        <ele>77.1</ele>
        <time>2019-01-07T08:28:05Z</time>
      </trkpt>
      <trkpt lat="43.51979" lon="3.49602">
        <ele>77.1</ele>
        <time>2019-01-07T08:28:07Z</time>
      </trkpt>
      <trkpt lat="43.51978" lon="3.49607">
        <ele>77.1</ele>
        <time>2019-01-07T08:28:09Z</time>
      </trkpt>
      <trkpt lat="43.51977" lon="3.4961">
        <ele>77.2</ele>
        <time>2019-01-07T08:28:11Z</time>
      </trkpt>
      <trkpt lat="43.51976" lon="3.49615">
        <ele>77.2</ele>
        <time>2019-01-07T08:28:13Z</time>
      </trkpt>
      <trkpt lat="43.51976" lon="3.49619">
        <ele>77.3</ele>
        <time>2019-01-07T08:28:15Z</time>
      </trkpt>
      <trkpt lat="43.51976" lon="3.49625">
        <ele>77.3</ele>
        <time>2019-01-07T08:28:17Z</time>
      </trkpt>
      <trkpt lat="43.51975" lon="3.49629">
        <ele>77.3</ele>
        <time>2019-01-07T08:28:19Z</time>
      </trkpt>
      <trkpt lat="43.51975" lon="3.49634">
        <ele>77.2</ele>
        <time>2019-01-07T08:28:21Z</time>
      </trkpt>
      <trkpt lat="43.51973" lon="3.49639">
        <ele>77.1</ele>
        <time>2019-01-07T08:28:24Z</time>
      </trkpt>
      <trkpt lat="43.51972" lon="3.49643">
        <ele>77</ele>
        <time>2019-01-07T08:28:26Z</time>
      </trkpt>
      <trkpt lat="43.51972" lon="3.49647">
        <ele>77.1</ele>
        <time>2019-01-07T08:28:28Z</time>
      </trkpt>
      <trkpt lat="43.51971" lon="3.49652">
        <ele>77.2</ele>
        <time>2019-01-07T08:28:31Z</time>
      </trkpt>
      <trkpt lat="43.5197" lon="3.49657">
        <ele>77.3</ele>
        <time>2019-01-07T08:28:34Z</time>
      </trkpt>
      <trkpt lat="43.51969" lon="3.49661">
        <ele>77.3</ele>
        <time>2019-01-07T08:28:36Z</time>
      </trkpt>
      <trkpt lat="43.51968" lon="3.49665">
        <ele>77.4</ele>
        <time>2019-01-07T08:28:38Z</time>
      </trkpt>
      <trkpt lat="43.51966" lon="3.49671">
        <ele>77.4</ele>
        <time>2019-01-07T08:28:41Z</time>
      </trkpt>
      <trkpt lat="43.51964" lon="3.49675">
        <ele>77.5</ele>
        <time>2019-01-07T08:28:43Z</time>
      </trkpt>
      <trkpt lat="43.51963" lon="3.4968">
        <ele>77.4</ele>
        <time>2019-01-07T08:28:46Z</time>
      </trkpt>
      <trkpt lat="43.51962" lon="3.49683">
        <ele>77.4</ele>
        <time>2019-01-07T08:28:48Z</time>
      </trkpt>
      <trkpt lat="43.51961" lon="3.49687">
        <ele>77.4</ele>
        <time>2019-01-07T08:28:50Z</time>
      </trkpt>
      <trkpt lat="43.5196" lon="3.49692">
        <ele>77.4</ele>
        <time>2019-01-07T08:28:53Z</time>
      </trkpt>
      <trkpt lat="43.51959" lon="3.49697">
        <ele>77.4</ele>
        <time>2019-01-07T08:28:56Z</time>
      </trkpt>
      <trkpt lat="43.5196" lon="3.49702">
        <ele>77.3</ele>
        <time>2019-01-07T08:28:58Z</time>
      </trkpt>
      <trkpt lat="43.51959" lon="3.49706">
        <ele>77.2</ele>
        <time>2019-01-07T08:29:00Z</time>
      </trkpt>
      <trkpt lat="43.51959" lon="3.4971">
        <ele>77.2</ele>
        <time>2019-01-07T08:29:03Z</time>
      </trkpt>
      <trkpt lat="43.51959" lon="3.49715">
        <ele>77.2</ele>
        <time>2019-01-07T08:29:06Z</time>
      </trkpt>
      <trkpt lat="43.51958" lon="3.49718">
        <ele>77.2</ele>
        <time>2019-01-07T08:29:10Z</time>
      </trkpt>
      <trkpt lat="43.51957" lon="3.49723">
        <ele>77.1</ele>
        <time>2019-01-07T08:29:14Z</time>
      </trkpt>
      <trkpt lat="43.51955" lon="3.49727">
        <ele>77</ele>
        <time>2019-01-07T08:29:16Z</time>
      </trkpt>
      <trkpt lat="43.51955" lon="3.49732">
        <ele>76.9</ele>
        <time>2019-01-07T08:29:19Z</time>
      </trkpt>
      <trkpt lat="43.51954" lon="3.49736">
        <ele>76.9</ele>
        <time>2019-01-07T08:29:21Z</time>
      </trkpt>
      <trkpt lat="43.51954" lon="3.4974">
        <ele>77</ele>
        <time>2019-01-07T08:29:23Z</time>
      </trkpt>
      <trkpt lat="43.51954" lon="3.49744">
        <ele>77</ele>
        <time>2019-01-07T08:29:25Z</time>
      </trkpt>
      <trkpt lat="43.51954" lon="3.49748">
        <ele>77</ele>
        <time>2019-01-07T08:29:27Z</time>
      </trkpt>
      <trkpt lat="43.51953" lon="3.49754">
        <ele>76.9</ele>
        <time>2019-01-07T08:29:30Z</time>
      </trkpt>
      <trkpt lat="43.51953" lon="3.49757">
        <ele>76.9</ele>
        <time>2019-01-07T08:29:32Z</time>
      </trkpt>
      <trkpt lat="43.51952" lon="3.49762">
        <ele>77</ele>
        <time>2019-01-07T08:29:35Z</time>
      </trkpt>
      <trkpt lat="43.51952" lon="3.49767">
        <ele>77.1</ele>
        <time>2019-01-07T08:29:38Z</time>
      </trkpt>
      <trkpt lat="43.51951" lon="3.49771">
        <ele>77.2</ele>
        <time>2019-01-07T08:29:40Z</time>
      </trkpt>
      <trkpt lat="43.51951" lon="3.49775">
        <ele>77.2</ele>
        <time>2019-01-07T08:29:43Z</time>
      </trkpt>
      <trkpt lat="43.51953" lon="3.49779">
        <ele>77.3</ele>
        <time>2019-01-07T08:29:45Z</time>
      </trkpt>
      <trkpt lat="43.51955" lon="3.49783">
        <ele>77.4</ele>
        <time>2019-01-07T08:29:48Z</time>
      </trkpt>
      <trkpt lat="43.51956" lon="3.49788">
        <ele>77.4</ele>
        <time>2019-01-07T08:29:51Z</time>
      </trkpt>
      <trkpt lat="43.51957" lon="3.49793">
        <ele>77.5</ele>
        <time>2019-01-07T08:29:53Z</time>
      </trkpt>
      <trkpt lat="43.51957" lon="3.49797">
        <ele>77.6</ele>
        <time>2019-01-07T08:29:55Z</time>
      </trkpt>
      <trkpt lat="43.51959" lon="3.49801">
        <ele>77.5</ele>
        <time>2019-01-07T08:29:57Z</time>
      </trkpt>
      <trkpt lat="43.51961" lon="3.49805">
        <ele>77.6</ele>
        <time>2019-01-07T08:29:59Z</time>
      </trkpt>
      <trkpt lat="43.51964" lon="3.49807">
        <ele>77.5</ele>
        <time>2019-01-07T08:30:01Z</time>
      </trkpt>
      <trkpt lat="43.51968" lon="3.49808">
        <ele>77.4</ele>
        <time>2019-01-07T08:30:03Z</time>
      </trkpt>
      <trkpt lat="43.51971" lon="3.49808">
        <ele>77</ele>
        <time>2019-01-07T08:30:05Z</time>
      </trkpt>
      <trkpt lat="43.51974" lon="3.49809">
        <ele>76.8</ele>
        <time>2019-01-07T08:30:07Z</time>
      </trkpt>
      <trkpt lat="43.51978" lon="3.4981">
        <ele>76.7</ele>
        <time>2019-01-07T08:30:11Z</time>
      </trkpt>
      <trkpt lat="43.51981" lon="3.4981">
        <ele>76.5</ele>
        <time>2019-01-07T08:30:14Z</time>
      </trkpt>
      <trkpt lat="43.51985" lon="3.49812">
        <ele>76.5</ele>
        <time>2019-01-07T08:30:17Z</time>
      </trkpt>
      <trkpt lat="43.51988" lon="3.49813">
        <ele>76.3</ele>
        <time>2019-01-07T08:30:19Z</time>
      </trkpt>
      <trkpt lat="43.51991" lon="3.49816">
        <ele>76.1</ele>
        <time>2019-01-07T08:30:21Z</time>
      </trkpt>
      <trkpt lat="43.51994" lon="3.49819">
        <ele>76.1</ele>
        <time>2019-01-07T08:30:23Z</time>
      </trkpt>
      <trkpt lat="43.51996" lon="3.49822">
        <ele>76.2</ele>
        <time>2019-01-07T08:30:25Z</time>
      </trkpt>
      <trkpt lat="43.51999" lon="3.49824">
        <ele>76</ele>
        <time>2019-01-07T08:30:27Z</time>
      </trkpt>
      <trkpt lat="43.52002" lon="3.49826">
        <ele>75.9</ele>
        <time>2019-01-07T08:30:30Z</time>
      </trkpt>
      <trkpt lat="43.52004" lon="3.49828">
        <ele>75.7</ele>
        <time>2019-01-07T08:30:32Z</time>
      </trkpt>
      <trkpt lat="43.52007" lon="3.49829">
        <ele>75.6</ele>
        <time>2019-01-07T08:30:34Z</time>
      </trkpt>
      <trkpt lat="43.5201" lon="3.4983">
        <ele>75.4</ele>
        <time>2019-01-07T08:30:36Z</time>
      </trkpt>
      <trkpt lat="43.52013" lon="3.49833">
        <ele>75.3</ele>
        <time>2019-01-07T08:30:39Z</time>
      </trkpt>
      <trkpt lat="43.52017" lon="3.49836">
        <ele>75.1</ele>
        <time>2019-01-07T08:30:42Z</time>
      </trkpt>
      <trkpt lat="43.52019" lon="3.49839">
        <ele>75</ele>
        <time>2019-01-07T08:30:45Z</time>
      </trkpt>
      <trkpt lat="43.52023" lon="3.4984">
        <ele>74.8</ele>
        <time>2019-01-07T08:30:47Z</time>
      </trkpt>
      <trkpt lat="43.52026" lon="3.4984">
        <ele>74.6</ele>
        <time>2019-01-07T08:30:49Z</time>
      </trkpt>
      <trkpt lat="43.52029" lon="3.49838">
        <ele>74.4</ele>
        <time>2019-01-07T08:30:51Z</time>
      </trkpt>
      <trkpt lat="43.52031" lon="3.49835">
        <ele>74.2</ele>
        <time>2019-01-07T08:30:54Z</time>
      </trkpt>
      <trkpt lat="43.52034" lon="3.49833">
        <ele>74</ele>
        <time>2019-01-07T08:30:57Z</time>
      </trkpt>
      <trkpt lat="43.52036" lon="3.49831">
        <ele>74</ele>
        <time>2019-01-07T08:30:59Z</time>
      </trkpt>
      <trkpt lat="43.5204" lon="3.49829">
        <ele>73.7</ele>
        <time>2019-01-07T08:31:02Z</time>
      </trkpt>
      <trkpt lat="43.52043" lon="3.49826">
        <ele>73.6</ele>
        <time>2019-01-07T08:31:05Z</time>
      </trkpt>
      <trkpt lat="43.52046" lon="3.49824">
        <ele>73.5</ele>
        <time>2019-01-07T08:31:07Z</time>
      </trkpt>
      <trkpt lat="43.52049" lon="3.49822">
        <ele>73.4</ele>
        <time>2019-01-07T08:31:10Z</time>
      </trkpt>
      <trkpt lat="43.52052" lon="3.4982">
        <ele>73.4</ele>
        <time>2019-01-07T08:31:12Z</time>
      </trkpt>
      <trkpt lat="43.52055" lon="3.49819">
        <ele>73.3</ele>
        <time>2019-01-07T08:31:14Z</time>
      </trkpt>
      <trkpt lat="43.52057" lon="3.49816">
        <ele>73.2</ele>
        <time>2019-01-07T08:31:16Z</time>
      </trkpt>
      <trkpt lat="43.52059" lon="3.49814">
        <ele>73.1</ele>
        <time>2019-01-07T08:31:18Z</time>
      </trkpt>
      <trkpt lat="43.52062" lon="3.49811">
        <ele>72.9</ele>
        <time>2019-01-07T08:31:20Z</time>
      </trkpt>
      <trkpt lat="43.52065" lon="3.4981">
        <ele>72.9</ele>
        <time>2019-01-07T08:31:22Z</time>
      </trkpt>
      <trkpt lat="43.52068" lon="3.49807">
        <ele>72.7</ele>
        <time>2019-01-07T08:31:25Z</time>
      </trkpt>
      <trkpt lat="43.52072" lon="3.49805">
        <ele>72.7</ele>
        <time>2019-01-07T08:31:28Z</time>
      </trkpt>
      <trkpt lat="43.52075" lon="3.49806">
        <ele>72.6</ele>
        <time>2019-01-07T08:31:30Z</time>
      </trkpt>
      <trkpt lat="43.52077" lon="3.49808">
        <ele>72.5</ele>
        <time>2019-01-07T08:31:32Z</time>
      </trkpt>
      <trkpt lat="43.52078" lon="3.49812">
        <ele>72.5</ele>
        <time>2019-01-07T08:31:34Z</time>
      </trkpt>
      <trkpt lat="43.52079" lon="3.49817">
        <ele>72.5</ele>
        <time>2019-01-07T08:31:37Z</time>
      </trkpt>
      <trkpt lat="43.52079" lon="3.49821">
        <ele>72.5</ele>
        <time>2019-01-07T08:31:39Z</time>
      </trkpt>
      <trkpt lat="43.52081" lon="3.49826">
        <ele>72.4</ele>
        <time>2019-01-07T08:31:42Z</time>
      </trkpt>
      <trkpt lat="43.52083" lon="3.49831">
        <ele>72.4</ele>
        <time>2019-01-07T08:31:45Z</time>
      </trkpt>
      <trkpt lat="43.52085" lon="3.49834">
        <ele>72.2</ele>
        <time>2019-01-07T08:31:48Z</time>
      </trkpt>
      <trkpt lat="43.52086" lon="3.49838">
        <ele>72.1</ele>
        <time>2019-01-07T08:31:51Z</time>
      </trkpt>
      <trkpt lat="43.52088" lon="3.49842">
        <ele>72.1</ele>
        <time>2019-01-07T08:31:54Z</time>
      </trkpt>
      <trkpt lat="43.52089" lon="3.49846">
        <ele>71.9</ele>
        <time>2019-01-07T08:31:56Z</time>
      </trkpt>
      <trkpt lat="43.5209" lon="3.4985">
        <ele>71.9</ele>
        <time>2019-01-07T08:31:58Z</time>
      </trkpt>
      <trkpt lat="43.5209" lon="3.49854">
        <ele>71.9</ele>
        <time>2019-01-07T08:32:00Z</time>
      </trkpt>
      <trkpt lat="43.52091" lon="3.49859">
        <ele>71.8</ele>
        <time>2019-01-07T08:32:03Z</time>
      </trkpt>
      <trkpt lat="43.52093" lon="3.49863">
        <ele>71.7</ele>
        <time>2019-01-07T08:32:07Z</time>
      </trkpt>
      <trkpt lat="43.52093" lon="3.49867">
        <ele>71.7</ele>
        <time>2019-01-07T08:32:09Z</time>
      </trkpt>
      <trkpt lat="43.52094" lon="3.49871">
        <ele>71.7</ele>
        <time>2019-01-07T08:32:11Z</time>
      </trkpt>
      <trkpt lat="43.52095" lon="3.49876">
        <ele>71.6</ele>
        <time>2019-01-07T08:32:14Z</time>
      </trkpt>
      <trkpt lat="43.52096" lon="3.4988">
        <ele>71.5</ele>
        <time>2019-01-07T08:32:16Z</time>
      </trkpt>
      <trkpt lat="43.52097" lon="3.49884">
        <ele>71.5</ele>
        <time>2019-01-07T08:32:18Z</time>
      </trkpt>
      <trkpt lat="43.52099" lon="3.49888">
        <ele>71.3</ele>
        <time>2019-01-07T08:32:20Z</time>
      </trkpt>
      <trkpt lat="43.52099" lon="3.49892">
        <ele>71.3</ele>
        <time>2019-01-07T08:32:22Z</time>
      </trkpt>
      <trkpt lat="43.521" lon="3.49896">
        <ele>71.2</ele>
        <time>2019-01-07T08:32:24Z</time>
      </trkpt>
      <trkpt lat="43.52101" lon="3.499">
        <ele>71.2</ele>
        <time>2019-01-07T08:32:27Z</time>
      </trkpt>
      <trkpt lat="43.52104" lon="3.49904">
        <ele>70.9</ele>
        <time>2019-01-07T08:32:30Z</time>
      </trkpt>
      <trkpt lat="43.52105" lon="3.49907">
        <ele>70.5</ele>
        <time>2019-01-07T08:32:32Z</time>
      </trkpt>
      <trkpt lat="43.52107" lon="3.4991">
        <ele>70.4</ele>
        <time>2019-01-07T08:32:34Z</time>
      </trkpt>
      <trkpt lat="43.52109" lon="3.49914">
        <ele>70.1</ele>
        <time>2019-01-07T08:32:36Z</time>
      </trkpt>
      <trkpt lat="43.52111" lon="3.49918">
        <ele>69.9</ele>
        <time>2019-01-07T08:32:38Z</time>
      </trkpt>
      <trkpt lat="43.52112" lon="3.49921">
        <ele>69.4</ele>
        <time>2019-01-07T08:32:40Z</time>
      </trkpt>
      <trkpt lat="43.52115" lon="3.49924">
        <ele>68.8</ele>
        <time>2019-01-07T08:32:43Z</time>
      </trkpt>
      <trkpt lat="43.52119" lon="3.49925">
        <ele>68.4</ele>
        <time>2019-01-07T08:32:46Z</time>
      </trkpt>
      <trkpt lat="43.52122" lon="3.49921">
        <ele>68.2</ele>
        <time>2019-01-07T08:32:49Z</time>
      </trkpt>
      <trkpt lat="43.52125" lon="3.49919">
        <ele>67.8</ele>
        <time>2019-01-07T08:32:52Z</time>
      </trkpt>
      <trkpt lat="43.52129" lon="3.49918">
        <ele>67.6</ele>
        <time>2019-01-07T08:32:55Z</time>
      </trkpt>
      <trkpt lat="43.52132" lon="3.49918">
        <ele>67.2</ele>
        <time>2019-01-07T08:32:57Z</time>
      </trkpt>
      <trkpt lat="43.52136" lon="3.49916">
        <ele>66.9</ele>
        <time>2019-01-07T08:32:59Z</time>
      </trkpt>
      <trkpt lat="43.52139" lon="3.49915">
        <ele>66.5</ele>
        <time>2019-01-07T08:33:01Z</time>
      </trkpt>
      <trkpt lat="43.52142" lon="3.49913">
        <ele>65.9</ele>
        <time>2019-01-07T08:33:04Z</time>
      </trkpt>
      <trkpt lat="43.52145" lon="3.49911">
        <ele>65.9</ele>
        <time>2019-01-07T08:33:06Z</time>
      </trkpt>
      <trkpt lat="43.52147" lon="3.49909">
        <ele>65.7</ele>
        <time>2019-01-07T08:33:08Z</time>
      </trkpt>
      <trkpt lat="43.5215" lon="3.49907">
        <ele>65.4</ele>
        <time>2019-01-07T08:33:11Z</time>
      </trkpt>
      <trkpt lat="43.52154" lon="3.49905">
        <ele>65.3</ele>
        <time>2019-01-07T08:33:15Z</time>
      </trkpt>
      <trkpt lat="43.52156" lon="3.49903">
        <ele>64.9</ele>
        <time>2019-01-07T08:33:17Z</time>
      </trkpt>
      <trkpt lat="43.52158" lon="3.49901">
        <ele>64.8</ele>
        <time>2019-01-07T08:33:19Z</time>
      </trkpt>
      <trkpt lat="43.52161" lon="3.49898">
        <ele>64.5</ele>
        <time>2019-01-07T08:33:22Z</time>
      </trkpt>
      <trkpt lat="43.52164" lon="3.49896">
        <ele>64.4</ele>
        <time>2019-01-07T08:33:25Z</time>
      </trkpt>
      <trkpt lat="43.52167" lon="3.49894">
        <ele>64</ele>
        <time>2019-01-07T08:33:28Z</time>
      </trkpt>
      <trkpt lat="43.5217" lon="3.49892">
        <ele>63.9</ele>
        <time>2019-01-07T08:33:30Z</time>
      </trkpt>
      <trkpt lat="43.52173" lon="3.49889">
        <ele>63.9</ele>
        <time>2019-01-07T08:33:32Z</time>
      </trkpt>
      <trkpt lat="43.52176" lon="3.49887">
        <ele>63.5</ele>
        <time>2019-01-07T08:33:35Z</time>
      </trkpt>
      <trkpt lat="43.5218" lon="3.49885">
        <ele>63.2</ele>
        <time>2019-01-07T08:33:38Z</time>
      </trkpt>
      <trkpt lat="43.52182" lon="3.49883">
        <ele>63.1</ele>
        <time>2019-01-07T08:33:40Z</time>
      </trkpt>
      <trkpt lat="43.52185" lon="3.49881">
        <ele>63.1</ele>
        <time>2019-01-07T08:33:42Z</time>
      </trkpt>
      <trkpt lat="43.52187" lon="3.49879">
        <ele>63</ele>
        <time>2019-01-07T08:33:44Z</time>
      </trkpt>
      <trkpt lat="43.5219" lon="3.49877">
        <ele>62.7</ele>
        <time>2019-01-07T08:33:46Z</time>
      </trkpt>
      <trkpt lat="43.52193" lon="3.49876">
        <ele>62.5</ele>
        <time>2019-01-07T08:33:48Z</time>
      </trkpt>
      <trkpt lat="43.52195" lon="3.49874">
        <ele>62.2</ele>
        <time>2019-01-07T08:33:50Z</time>
      </trkpt>
      <trkpt lat="43.52198" lon="3.49872">
        <ele>61.8</ele>
        <time>2019-01-07T08:33:52Z</time>
      </trkpt>
      <trkpt lat="43.52201" lon="3.49869">
        <ele>62</ele>
        <time>2019-01-07T08:33:54Z</time>
      </trkpt>
      <trkpt lat="43.52203" lon="3.49867">
        <ele>61.9</ele>
        <time>2019-01-07T08:33:56Z</time>
      </trkpt>
      <trkpt lat="43.52206" lon="3.49865">
        <ele>61.6</ele>
        <time>2019-01-07T08:33:59Z</time>
      </trkpt>
      <trkpt lat="43.52209" lon="3.49862">
        <ele>61.4</ele>
        <time>2019-01-07T08:34:02Z</time>
      </trkpt>
      <trkpt lat="43.52212" lon="3.4986">
        <ele>61.1</ele>
        <time>2019-01-07T08:34:05Z</time>
      </trkpt>
      <trkpt lat="43.52215" lon="3.49858">
        <ele>61</ele>
        <time>2019-01-07T08:34:08Z</time>
      </trkpt>
      <trkpt lat="43.52218" lon="3.49855">
        <ele>60.7</ele>
        <time>2019-01-07T08:34:11Z</time>
      </trkpt>
      <trkpt lat="43.52221" lon="3.49853">
        <ele>60.5</ele>
        <time>2019-01-07T08:34:14Z</time>
      </trkpt>
      <trkpt lat="43.52225" lon="3.49851">
        <ele>60.2</ele>
        <time>2019-01-07T08:34:17Z</time>
      </trkpt>
      <trkpt lat="43.52227" lon="3.49849">
        <ele>60.2</ele>
        <time>2019-01-07T08:34:19Z</time>
      </trkpt>
      <trkpt lat="43.5223" lon="3.49847">
        <ele>59.9</ele>
        <time>2019-01-07T08:34:21Z</time>
      </trkpt>
      <trkpt lat="43.52233" lon="3.49844">
        <ele>59.9</ele>
        <time>2019-01-07T08:34:24Z</time>
      </trkpt>
      <trkpt lat="43.52236" lon="3.49842">
        <ele>59.7</ele>
        <time>2019-01-07T08:34:27Z</time>
      </trkpt>
      <trkpt lat="43.52238" lon="3.4984">
        <ele>60</ele>
        <time>2019-01-07T08:34:29Z</time>
      </trkpt>
      <trkpt lat="43.52241" lon="3.49838">
        <ele>59.8</ele>
        <time>2019-01-07T08:34:31Z</time>
      </trkpt>
      <trkpt lat="43.52243" lon="3.49835">
        <ele>59.8</ele>
        <time>2019-01-07T08:34:33Z</time>
      </trkpt>
      <trkpt lat="43.52247" lon="3.49833">
        <ele>59.9</ele>
        <time>2019-01-07T08:34:36Z</time>
      </trkpt>
      <trkpt lat="43.5225" lon="3.49832">
        <ele>59.7</ele>
        <time>2019-01-07T08:34:39Z</time>
      </trkpt>
      <trkpt lat="43.52253" lon="3.49833">
        <ele>59.5</ele>
        <time>2019-01-07T08:34:41Z</time>
      </trkpt>
      <trkpt lat="43.52255" lon="3.49835">
        <ele>59</ele>
        <time>2019-01-07T08:34:43Z</time>
      </trkpt>
      <trkpt lat="43.52259" lon="3.49838">
        <ele>58.5</ele>
        <time>2019-01-07T08:34:46Z</time>
      </trkpt>
      <trkpt lat="43.52261" lon="3.49842">
        <ele>58.3</ele>
        <time>2019-01-07T08:34:49Z</time>
      </trkpt>
      <trkpt lat="43.52264" lon="3.49845">
        <ele>58</ele>
        <time>2019-01-07T08:34:52Z</time>
      </trkpt>
      <trkpt lat="43.52267" lon="3.49848">
        <ele>57.6</ele>
        <time>2019-01-07T08:34:55Z</time>
      </trkpt>
      <trkpt lat="43.52268" lon="3.49852">
        <ele>57.5</ele>
        <time>2019-01-07T08:34:58Z</time>
      </trkpt>
      <trkpt lat="43.52271" lon="3.49855">
        <ele>57.2</ele>
        <time>2019-01-07T08:35:01Z</time>
      </trkpt>
      <trkpt lat="43.52273" lon="3.49859">
        <ele>56.9</ele>
        <time>2019-01-07T08:35:04Z</time>
      </trkpt>
      <trkpt lat="43.52275" lon="3.49862">
        <ele>56.9</ele>
        <time>2019-01-07T08:35:06Z</time>
      </trkpt>
      <trkpt lat="43.52277" lon="3.49866">
        <ele>56.7</ele>
        <time>2019-01-07T08:35:08Z</time>
      </trkpt>
      <trkpt lat="43.52278" lon="3.4987">
        <ele>56.6</ele>
        <time>2019-01-07T08:35:11Z</time>
      </trkpt>
      <trkpt lat="43.52279" lon="3.49874">
        <ele>56.4</ele>
        <time>2019-01-07T08:35:14Z</time>
      </trkpt>
      <trkpt lat="43.52282" lon="3.49878">
        <ele>56.4</ele>
        <time>2019-01-07T08:35:17Z</time>
      </trkpt>
      <trkpt lat="43.52284" lon="3.4988">
        <ele>56.2</ele>
        <time>2019-01-07T08:35:20Z</time>
      </trkpt>
      <trkpt lat="43.52283" lon="3.49884">
        <ele>56.2</ele>
        <time>2019-01-07T08:35:24Z</time>
      </trkpt>
      <trkpt lat="43.52285" lon="3.49888">
        <ele>56.2</ele>
        <time>2019-01-07T08:35:29Z</time>
      </trkpt>
      <trkpt lat="43.52285" lon="3.49884">
        <ele>56.1</ele>
        <time>2019-01-07T08:35:37Z</time>
      </trkpt>
      <trkpt lat="43.52287" lon="3.49881">
        <ele>56.1</ele>
        <time>2019-01-07T08:35:39Z</time>
      </trkpt>
      <trkpt lat="43.52289" lon="3.49879">
        <ele>56</ele>
        <time>2019-01-07T08:35:41Z</time>
      </trkpt>
      <trkpt lat="43.52292" lon="3.49877">
        <ele>55.9</ele>
        <time>2019-01-07T08:35:44Z</time>
      </trkpt>
      <trkpt lat="43.52295" lon="3.49879">
        <ele>55.8</ele>
        <time>2019-01-07T08:35:48Z</time>
      </trkpt>
      <trkpt lat="43.52296" lon="3.49882">
        <ele>55.8</ele>
        <time>2019-01-07T08:36:04Z</time>
      </trkpt>
      <trkpt lat="43.52298" lon="3.49886">
        <ele>55.7</ele>
        <time>2019-01-07T08:36:08Z</time>
      </trkpt>
      <trkpt lat="43.52296" lon="3.4989">
        <ele>55.8</ele>
        <time>2019-01-07T08:36:10Z</time>
      </trkpt>
      <trkpt lat="43.52293" lon="3.49893">
        <ele>55.9</ele>
        <time>2019-01-07T08:36:13Z</time>
      </trkpt>
      <trkpt lat="43.52291" lon="3.49897">
        <ele>55.9</ele>
        <time>2019-01-07T08:36:16Z</time>
      </trkpt>
      <trkpt lat="43.5229" lon="3.49902">
        <ele>56</ele>
        <time>2019-01-07T08:36:19Z</time>
      </trkpt>
      <trkpt lat="43.52289" lon="3.49906">
        <ele>56</ele>
        <time>2019-01-07T08:36:21Z</time>
      </trkpt>
      <trkpt lat="43.52289" lon="3.49911">
        <ele>56.1</ele>
        <time>2019-01-07T08:36:24Z</time>
      </trkpt>
      <trkpt lat="43.5229" lon="3.49916">
        <ele>56.1</ele>
        <time>2019-01-07T08:36:27Z</time>
      </trkpt>
      <trkpt lat="43.52291" lon="3.49921">
        <ele>56.1</ele>
        <time>2019-01-07T08:36:30Z</time>
      </trkpt>
      <trkpt lat="43.52292" lon="3.49926">
        <ele>56</ele>
        <time>2019-01-07T08:36:33Z</time>
      </trkpt>
      <trkpt lat="43.52293" lon="3.49931">
        <ele>56</ele>
        <time>2019-01-07T08:36:36Z</time>
      </trkpt>
      <trkpt lat="43.52294" lon="3.49937">
        <ele>55.9</ele>
        <time>2019-01-07T08:36:39Z</time>
      </trkpt>
      <trkpt lat="43.52295" lon="3.49941">
        <ele>55.7</ele>
        <time>2019-01-07T08:36:42Z</time>
      </trkpt>
      <trkpt lat="43.52296" lon="3.49944">
        <ele>55.7</ele>
        <time>2019-01-07T08:36:44Z</time>
      </trkpt>
      <trkpt lat="43.52298" lon="3.49949">
        <ele>55.4</ele>
        <time>2019-01-07T08:36:47Z</time>
      </trkpt>
      <trkpt lat="43.52299" lon="3.49954">
        <ele>55.3</ele>
        <time>2019-01-07T08:36:50Z</time>
      </trkpt>
      <trkpt lat="43.523" lon="3.49958">
        <ele>55.2</ele>
        <time>2019-01-07T08:36:52Z</time>
      </trkpt>
      <trkpt lat="43.52302" lon="3.49961">
        <ele>55.1</ele>
        <time>2019-01-07T08:36:54Z</time>
      </trkpt>
      <trkpt lat="43.52305" lon="3.49964">
        <ele>54.8</ele>
        <time>2019-01-07T08:36:56Z</time>
      </trkpt>
      <trkpt lat="43.52307" lon="3.49966">
        <ele>54.7</ele>
        <time>2019-01-07T08:36:58Z</time>
      </trkpt>
      <trkpt lat="43.5231" lon="3.49967">
        <ele>54.4</ele>
        <time>2019-01-07T08:37:00Z</time>
      </trkpt>
      <trkpt lat="43.52313" lon="3.49968">
        <ele>54.4</ele>
        <time>2019-01-07T08:37:02Z</time>
      </trkpt>
      <trkpt lat="43.52317" lon="3.49967">
        <ele>54.2</ele>
        <time>2019-01-07T08:37:05Z</time>
      </trkpt>
      <trkpt lat="43.5232" lon="3.49967">
        <ele>54.1</ele>
        <time>2019-01-07T08:37:08Z</time>
      </trkpt>
      <trkpt lat="43.52324" lon="3.49967">
        <ele>54</ele>
        <time>2019-01-07T08:37:11Z</time>
      </trkpt>
      <trkpt lat="43.52327" lon="3.49968">
        <ele>53.9</ele>
        <time>2019-01-07T08:37:13Z</time>
      </trkpt>
      <trkpt lat="43.5233" lon="3.49968">
        <ele>53.8</ele>
        <time>2019-01-07T08:37:15Z</time>
      </trkpt>
      <trkpt lat="43.52333" lon="3.49968">
        <ele>53.7</ele>
        <time>2019-01-07T08:37:17Z</time>
      </trkpt>
      <trkpt lat="43.52347" lon="3.49971">
        <ele>54</ele>
      </trkpt>
      <trkpt lat="43.52353" lon="3.49971">
        <ele>54</ele>
      </trkpt>
      <trkpt lat="43.52359" lon="3.49974">
        <ele>54</ele>
      </trkpt>
      <trkpt lat="43.5236" lon="3.49978">
        <ele>54</ele>
      </trkpt>
      <trkpt lat="43.52361" lon="3.49985">
        <ele>54</ele>
      </trkpt>
      <trkpt lat="43.52361" lon="3.49997">
        <ele>54</ele>
      </trkpt>
      <trkpt lat="43.52361" lon="3.50011">
        <ele>52</ele>
      </trkpt>
      <trkpt lat="43.52362" lon="3.5003">
        <ele>51</ele>
      </trkpt>
      <trkpt lat="43.52366" lon="3.5004">
        <ele>50</ele>
      </trkpt>
      <trkpt lat="43.52374" lon="3.50045">
        <ele>50</ele>
      </trkpt>
      <trkpt lat="43.52385" lon="3.50048">
        <ele>49</ele>
      </trkpt>
      <trkpt lat="43.52403" lon="3.50049">
        <ele>49</ele>
      </trkpt>
      <trkpt lat="43.52417" lon="3.50049">
        <ele>45</ele>
      </trkpt>
      <trkpt lat="43.52433" lon="3.50049">
        <ele>45</ele>
      </trkpt>
      <trkpt lat="43.52438" lon="3.50045">
        <ele>45</ele>
      </trkpt>
      <trkpt lat="43.52445" lon="3.50035">
        <ele>45</ele>
      </trkpt>
      <trkpt lat="43.52452" lon="3.50018">
        <ele>46</ele>
      </trkpt>
      <trkpt lat="43.52457" lon="3.50007">
        <ele>46</ele>
      </trkpt>
      <trkpt lat="43.52462" lon="3.49989">
        <ele>48</ele>
      </trkpt>
      <trkpt lat="43.52465" lon="3.49981">
        <ele>48</ele>
      </trkpt>
      <trkpt lat="43.52471" lon="3.49978">
        <ele>48</ele>
      </trkpt>
      <trkpt lat="43.52481" lon="3.49979">
        <ele>48</ele>
      </trkpt>
      <trkpt lat="43.52488" lon="3.49976">
        <ele>48</ele>
      </trkpt>
      <trkpt lat="43.52495" lon="3.49966">
        <ele>48</ele>
      </trkpt>
      <trkpt lat="43.52503" lon="3.49956">
        <ele>44</ele>
      </trkpt>
      <trkpt lat="43.52513" lon="3.49948">
        <ele>45</ele>
      </trkpt>
      <trkpt lat="43.52523" lon="3.49937">
        <ele>45</ele>
      </trkpt>
      <trkpt lat="43.52534" lon="3.49924">
        <ele>44</ele>
      </trkpt>
      <trkpt lat="43.5254" lon="3.49912">
        <ele>46.1</ele>
      </trkpt>
      <trkpt lat="43.52553" lon="3.49907">
        <ele>45</ele>
      </trkpt>
      <trkpt lat="43.52561" lon="3.49901">
        <ele>44</ele>
      </trkpt>
      <trkpt lat="43.52569" lon="3.49894">
        <ele>44</ele>
      </trkpt>
      <trkpt lat="43.52581" lon="3.49882">
        <ele>45</ele>
      </trkpt>
      <trkpt lat="43.52588" lon="3.49883">
        <ele>41</ele>
      </trkpt>
      <trkpt lat="43.52602" lon="3.49897">
        <ele>40</ele>
      </trkpt>
      <trkpt lat="43.52617" lon="3.49914">
        <ele>40</ele>
      </trkpt>
      <trkpt lat="43.52628" lon="3.49923">
        <ele>38</ele>
      </trkpt>
      <trkpt lat="43.52639" lon="3.49934">
        <ele>38</ele>
      </trkpt>
      <trkpt lat="43.52655" lon="3.49947">
        <ele>38</ele>
      </trkpt>
      <trkpt lat="43.52666" lon="3.49958">
        <ele>38</ele>
      </trkpt>
      <trkpt lat="43.52673" lon="3.49967">
        <ele>38</ele>
      </trkpt>
      <trkpt lat="43.52685" lon="3.49974">
        <ele>38</ele>
      </trkpt>
      <trkpt lat="43.52688" lon="3.4998">
        <ele>38</ele>
      </trkpt>
      <trkpt lat="43.52686" lon="3.49986">
        <ele>38</ele>
      </trkpt>
      <trkpt lat="43.52683" lon="3.49995">
        <ele>38</ele>
      </trkpt>
      <trkpt lat="43.52678" lon="3.50005">
        <ele>39</ele>
      </trkpt>
      <trkpt lat="43.52671" lon="3.50015">
        <ele>39</ele>
      </trkpt>
      <trkpt lat="43.52664" lon="3.50023">
        <ele>39</ele>
      </trkpt>
      <trkpt lat="43.5266" lon="3.50029">
        <ele>38</ele>
      </trkpt>
      <trkpt lat="43.52655" lon="3.50037">
        <ele>38</ele>
      </trkpt>
      <trkpt lat="43.52656" lon="3.50044">
        <ele>38</ele>
      </trkpt>
      <trkpt lat="43.52661" lon="3.50048">
        <ele>38</ele>
      </trkpt>
      <trkpt lat="43.52668" lon="3.50049">
        <ele>38</ele>
      </trkpt>
      <trkpt lat="43.52678" lon="3.50048">
        <ele>38</ele>
      </trkpt>
      <trkpt lat="43.52685" lon="3.5005">
        <ele>38</ele>
      </trkpt>
      <trkpt lat="43.52694" lon="3.50055">
        <ele>39</ele>
      </trkpt>
      <trkpt lat="43.52703" lon="3.50057">
        <ele>39</ele>
      </trkpt>
      <trkpt lat="43.52712" lon="3.50061">
        <ele>39</ele>
      </trkpt>
      <trkpt lat="43.5272" lon="3.50063">
        <ele>39</ele>
      </trkpt>
      <trkpt lat="43.52728" lon="3.5006">
        <ele>39</ele>
      </trkpt>
      <trkpt lat="43.52739" lon="3.50052">
        <ele>39</ele>
      </trkpt>
      <trkpt lat="43.52747" lon="3.50048">
        <ele>39</ele>
      </trkpt>
      <trkpt lat="43.52759" lon="3.50044">
        <ele>39</ele>
      </trkpt>
      <trkpt lat="43.52767" lon="3.50044">
        <ele>39</ele>
      </trkpt>
      <trkpt lat="43.52776" lon="3.50043">
        <ele>39</ele>
      </trkpt>
      <trkpt lat="43.52787" lon="3.50041">
        <ele>38</ele>
      </trkpt>
      <trkpt lat="43.52797" lon="3.50036">
        <ele>38</ele>
      </trkpt>
      <trkpt lat="43.52806" lon="3.50034">
        <ele>38</ele>
      </trkpt>
      <trkpt lat="43.52819" lon="3.50034">
        <ele>38</ele>
      </trkpt>
      <trkpt lat="43.52829" lon="3.50036">
        <ele>38</ele>
      </trkpt>
      <trkpt lat="43.52838" lon="3.50039">
        <ele>39</ele>
      </trkpt>
      <trkpt lat="43.5285" lon="3.50042">
        <ele>39</ele>
      </trkpt>
      <trkpt lat="43.52857" lon="3.50047">
        <ele>40</ele>
      </trkpt>
      <trkpt lat="43.52864" lon="3.50054">
        <ele>40</ele>
      </trkpt>
      <trkpt lat="43.52869" lon="3.50061">
        <ele>40</ele>
      </trkpt>
      <trkpt lat="43.52879" lon="3.50061">
        <ele>40</ele>
      </trkpt>
      <trkpt lat="43.52897" lon="3.50058">
        <ele>40.6</ele>
        <time>2019-01-07T08:46:48Z</time>
      </trkpt>
      <trkpt lat="43.529" lon="3.50057">
        <ele>40.6</ele>
        <time>2019-01-07T08:46:50Z</time>
      </trkpt>
      <trkpt lat="43.52903" lon="3.50055">
        <ele>40.6</ele>
        <time>2019-01-07T08:46:53Z</time>
      </trkpt>
      <trkpt lat="43.52907" lon="3.50055">
        <ele>40.6</ele>
        <time>2019-01-07T08:46:56Z</time>
      </trkpt>
      <trkpt lat="43.5291" lon="3.50054">
        <ele>40.5</ele>
        <time>2019-01-07T08:46:59Z</time>
      </trkpt>
      <trkpt lat="43.52913" lon="3.50052">
        <ele>40.5</ele>
        <time>2019-01-07T08:47:01Z</time>
      </trkpt>
      <trkpt lat="43.52916" lon="3.50051">
        <ele>40.5</ele>
        <time>2019-01-07T08:47:03Z</time>
      </trkpt>
      <trkpt lat="43.52919" lon="3.50051">
        <ele>40.4</ele>
        <time>2019-01-07T08:47:05Z</time>
      </trkpt>
      <trkpt lat="43.52922" lon="3.5005">
        <ele>40.4</ele>
        <time>2019-01-07T08:47:07Z</time>
      </trkpt>
      <trkpt lat="43.52926" lon="3.50049">
        <ele>40.4</ele>
        <time>2019-01-07T08:47:10Z</time>
      </trkpt>
      <trkpt lat="43.52929" lon="3.50048">
        <ele>40.4</ele>
        <time>2019-01-07T08:47:12Z</time>
      </trkpt>
      <trkpt lat="43.52932" lon="3.50047">
        <ele>40.3</ele>
        <time>2019-01-07T08:47:14Z</time>
      </trkpt>
      <trkpt lat="43.52935" lon="3.50046">
        <ele>40.3</ele>
        <time>2019-01-07T08:47:16Z</time>
      </trkpt>
      <trkpt lat="43.52938" lon="3.50045">
        <ele>40.3</ele>
        <time>2019-01-07T08:47:18Z</time>
      </trkpt>
      <trkpt lat="43.52941" lon="3.50043">
        <ele>40.2</ele>
        <time>2019-01-07T08:47:21Z</time>
      </trkpt>
      <trkpt lat="43.52944" lon="3.50042">
        <ele>40.2</ele>
        <time>2019-01-07T08:47:23Z</time>
      </trkpt>
      <trkpt lat="43.52947" lon="3.50042">
        <ele>40.1</ele>
        <time>2019-01-07T08:47:26Z</time>
      </trkpt>
      <trkpt lat="43.5295" lon="3.50041">
        <ele>40.1</ele>
        <time>2019-01-07T08:47:28Z</time>
      </trkpt>
      <trkpt lat="43.52954" lon="3.50041">
        <ele>40</ele>
        <time>2019-01-07T08:47:30Z</time>
      </trkpt>
      <trkpt lat="43.52958" lon="3.50041">
        <ele>39.9</ele>
        <time>2019-01-07T08:47:32Z</time>
      </trkpt>
      <trkpt lat="43.52962" lon="3.50041">
        <ele>39.9</ele>
        <time>2019-01-07T08:47:34Z</time>
      </trkpt>
      <trkpt lat="43.52965" lon="3.50041">
        <ele>39.8</ele>
        <time>2019-01-07T08:47:36Z</time>
      </trkpt>
      <trkpt lat="43.52968" lon="3.50042">
        <ele>39.7</ele>
        <time>2019-01-07T08:47:38Z</time>
      </trkpt>
      <trkpt lat="43.52971" lon="3.50044">
        <ele>39.7</ele>
        <time>2019-01-07T08:47:40Z</time>
      </trkpt>
      <trkpt lat="43.52974" lon="3.50046">
        <ele>39.6</ele>
        <time>2019-01-07T08:47:42Z</time>
      </trkpt>
      <trkpt lat="43.52977" lon="3.50047">
        <ele>39.5</ele>
        <time>2019-01-07T08:47:44Z</time>
      </trkpt>
      <trkpt lat="43.52981" lon="3.50049">
        <ele>39.4</ele>
        <time>2019-01-07T08:47:46Z</time>
      </trkpt>
      <trkpt lat="43.52983" lon="3.50051">
        <ele>39.3</ele>
        <time>2019-01-07T08:47:48Z</time>
      </trkpt>
      <trkpt lat="43.52986" lon="3.50052">
        <ele>39.3</ele>
        <time>2019-01-07T08:47:50Z</time>
      </trkpt>
      <trkpt lat="43.52989" lon="3.50054">
        <ele>39.2</ele>
        <time>2019-01-07T08:47:52Z</time>
      </trkpt>
      <trkpt lat="43.52993" lon="3.50056">
        <ele>39.1</ele>
        <time>2019-01-07T08:47:54Z</time>
      </trkpt>
      <trkpt lat="43.52995" lon="3.50056">
        <ele>39.1</ele>
        <time>2019-01-07T08:47:56Z</time>
      </trkpt>
      <trkpt lat="43.52999" lon="3.50057">
        <ele>39.1</ele>
        <time>2019-01-07T08:47:59Z</time>
      </trkpt>
      <trkpt lat="43.53002" lon="3.50057">
        <ele>39</ele>
        <time>2019-01-07T08:48:02Z</time>
      </trkpt>
      <trkpt lat="43.53006" lon="3.50058">
        <ele>39</ele>
        <time>2019-01-07T08:48:04Z</time>
      </trkpt>
      <trkpt lat="43.53009" lon="3.50059">
        <ele>38.9</ele>
        <time>2019-01-07T08:48:06Z</time>
      </trkpt>
      <trkpt lat="43.53012" lon="3.5006">
        <ele>38.9</ele>
        <time>2019-01-07T08:48:09Z</time>
      </trkpt>
      <trkpt lat="43.53015" lon="3.5006">
        <ele>38.9</ele>
        <time>2019-01-07T08:48:12Z</time>
      </trkpt>
      <trkpt lat="43.53018" lon="3.50061">
        <ele>38.9</ele>
        <time>2019-01-07T08:48:14Z</time>
      </trkpt>
      <trkpt lat="43.53021" lon="3.50062">
        <ele>38.9</ele>
        <time>2019-01-07T08:48:16Z</time>
      </trkpt>
      <trkpt lat="43.53025" lon="3.50064">
        <ele>38.8</ele>
        <time>2019-01-07T08:48:19Z</time>
      </trkpt>
      <trkpt lat="43.53028" lon="3.50067">
        <ele>38.8</ele>
        <time>2019-01-07T08:48:22Z</time>
      </trkpt>
      <trkpt lat="43.53032" lon="3.50068">
        <ele>38.8</ele>
        <time>2019-01-07T08:48:24Z</time>
      </trkpt>
      <trkpt lat="43.53035" lon="3.5007">
        <ele>38.8</ele>
        <time>2019-01-07T08:48:26Z</time>
      </trkpt>
      <trkpt lat="43.53038" lon="3.50071">
        <ele>38.8</ele>
        <time>2019-01-07T08:48:28Z</time>
      </trkpt>
      <trkpt lat="43.53041" lon="3.50072">
        <ele>38.9</ele>
        <time>2019-01-07T08:48:31Z</time>
      </trkpt>
      <trkpt lat="43.53044" lon="3.50074">
        <ele>38.9</ele>
        <time>2019-01-07T08:48:33Z</time>
      </trkpt>
      <trkpt lat="43.53047" lon="3.50075">
        <ele>38.9</ele>
        <time>2019-01-07T08:48:35Z</time>
      </trkpt>
      <trkpt lat="43.53051" lon="3.50075">
        <ele>38.9</ele>
        <time>2019-01-07T08:48:37Z</time>
      </trkpt>
      <trkpt lat="43.53055" lon="3.50075">
        <ele>39</ele>
        <time>2019-01-07T08:48:39Z</time>
      </trkpt>
      <trkpt lat="43.53058" lon="3.50075">
        <ele>39</ele>
        <time>2019-01-07T08:48:42Z</time>
      </trkpt>
      <trkpt lat="43.53062" lon="3.50078">
        <ele>39</ele>
        <time>2019-01-07T08:48:45Z</time>
      </trkpt>
      <trkpt lat="43.53064" lon="3.50079">
        <ele>39.1</ele>
        <time>2019-01-07T08:48:47Z</time>
      </trkpt>
      <trkpt lat="43.53068" lon="3.50082">
        <ele>39.1</ele>
        <time>2019-01-07T08:48:50Z</time>
      </trkpt>
      <trkpt lat="43.5307" lon="3.50085">
        <ele>39.1</ele>
        <time>2019-01-07T08:48:53Z</time>
      </trkpt>
      <trkpt lat="43.53072" lon="3.50088">
        <ele>39.2</ele>
        <time>2019-01-07T08:48:55Z</time>
      </trkpt>
      <trkpt lat="43.53074" lon="3.50091">
        <ele>39.2</ele>
        <time>2019-01-07T08:48:57Z</time>
      </trkpt>
      <trkpt lat="43.53076" lon="3.50094">
        <ele>39.3</ele>
        <time>2019-01-07T08:48:59Z</time>
      </trkpt>
      <trkpt lat="43.53079" lon="3.50097">
        <ele>39.3</ele>
        <time>2019-01-07T08:49:02Z</time>
      </trkpt>
      <trkpt lat="43.53081" lon="3.50101">
        <ele>39.4</ele>
        <time>2019-01-07T08:49:05Z</time>
      </trkpt>
      <trkpt lat="43.53084" lon="3.50106">
        <ele>39.4</ele>
        <time>2019-01-07T08:49:07Z</time>
      </trkpt>
      <trkpt lat="43.53086" lon="3.50109">
        <ele>39.4</ele>
        <time>2019-01-07T08:49:09Z</time>
      </trkpt>
      <trkpt lat="43.53088" lon="3.50113">
        <ele>39.4</ele>
        <time>2019-01-07T08:49:12Z</time>
      </trkpt>
      <trkpt lat="43.5309" lon="3.50117">
        <ele>39.5</ele>
        <time>2019-01-07T08:49:14Z</time>
      </trkpt>
      <trkpt lat="43.53093" lon="3.5012">
        <ele>39.5</ele>
        <time>2019-01-07T08:49:16Z</time>
      </trkpt>
      <trkpt lat="43.53095" lon="3.50123">
        <ele>39.5</ele>
        <time>2019-01-07T08:49:18Z</time>
      </trkpt>
      <trkpt lat="43.53098" lon="3.50126">
        <ele>39.5</ele>
        <time>2019-01-07T08:49:21Z</time>
      </trkpt>
      <trkpt lat="43.531" lon="3.50129">
        <ele>39.5</ele>
        <time>2019-01-07T08:49:23Z</time>
      </trkpt>
      <trkpt lat="43.53102" lon="3.50132">
        <ele>39.5</ele>
        <time>2019-01-07T08:49:25Z</time>
      </trkpt>
      <trkpt lat="43.53104" lon="3.50135">
        <ele>39.5</ele>
        <time>2019-01-07T08:49:27Z</time>
      </trkpt>
      <trkpt lat="43.53106" lon="3.50138">
        <ele>39.5</ele>
        <time>2019-01-07T08:49:29Z</time>
      </trkpt>
      <trkpt lat="43.53109" lon="3.50142">
        <ele>39.5</ele>
        <time>2019-01-07T08:49:32Z</time>
      </trkpt>
      <trkpt lat="43.53112" lon="3.50144">
        <ele>39.5</ele>
        <time>2019-01-07T08:49:35Z</time>
      </trkpt>
      <trkpt lat="43.53115" lon="3.50145">
        <ele>39.5</ele>
        <time>2019-01-07T08:49:37Z</time>
      </trkpt>
      <trkpt lat="43.53118" lon="3.50144">
        <ele>39.5</ele>
        <time>2019-01-07T08:49:39Z</time>
      </trkpt>
      <trkpt lat="43.53121" lon="3.50144">
        <ele>39.5</ele>
        <time>2019-01-07T08:49:42Z</time>
      </trkpt>
      <trkpt lat="43.53125" lon="3.50142">
        <ele>39.4</ele>
        <time>2019-01-07T08:49:45Z</time>
      </trkpt>
      <trkpt lat="43.53128" lon="3.5014">
        <ele>39.4</ele>
        <time>2019-01-07T08:49:47Z</time>
      </trkpt>
      <trkpt lat="43.53131" lon="3.50139">
        <ele>39.4</ele>
        <time>2019-01-07T08:49:49Z</time>
      </trkpt>
      <trkpt lat="43.53134" lon="3.50138">
        <ele>39.4</ele>
        <time>2019-01-07T08:49:51Z</time>
      </trkpt>
      <trkpt lat="43.53137" lon="3.50136">
        <ele>39.4</ele>
        <time>2019-01-07T08:49:53Z</time>
      </trkpt>
      <trkpt lat="43.5314" lon="3.50134">
        <ele>39.3</ele>
        <time>2019-01-07T08:49:55Z</time>
      </trkpt>
      <trkpt lat="43.53143" lon="3.50132">
        <ele>39.3</ele>
        <time>2019-01-07T08:49:57Z</time>
      </trkpt>
      <trkpt lat="43.53145" lon="3.50131">
        <ele>39.3</ele>
        <time>2019-01-07T08:49:59Z</time>
      </trkpt>
      <trkpt lat="43.53148" lon="3.50128">
        <ele>39.3</ele>
        <time>2019-01-07T08:50:01Z</time>
      </trkpt>
      <trkpt lat="43.5315" lon="3.50126">
        <ele>39.3</ele>
        <time>2019-01-07T08:50:03Z</time>
      </trkpt>
      <trkpt lat="43.53152" lon="3.50124">
        <ele>39.3</ele>
        <time>2019-01-07T08:50:05Z</time>
      </trkpt>
      <trkpt lat="43.53154" lon="3.50121">
        <ele>39.2</ele>
        <time>2019-01-07T08:50:07Z</time>
      </trkpt>
      <trkpt lat="43.53157" lon="3.50119">
        <ele>39.2</ele>
        <time>2019-01-07T08:50:09Z</time>
      </trkpt>
      <trkpt lat="43.53159" lon="3.50116">
        <ele>39.2</ele>
        <time>2019-01-07T08:50:11Z</time>
      </trkpt>
      <trkpt lat="43.53161" lon="3.50115">
        <ele>39.2</ele>
        <time>2019-01-07T08:50:13Z</time>
      </trkpt>
      <trkpt lat="43.53164" lon="3.50113">
        <ele>39.2</ele>
        <time>2019-01-07T08:50:15Z</time>
      </trkpt>
      <trkpt lat="43.53167" lon="3.50111">
        <ele>39.2</ele>
        <time>2019-01-07T08:50:17Z</time>
      </trkpt>
      <trkpt lat="43.53169" lon="3.50107">
        <ele>39.2</ele>
        <time>2019-01-07T08:50:20Z</time>
      </trkpt>
      <trkpt lat="43.53173" lon="3.50103">
        <ele>39.1</ele>
        <time>2019-01-07T08:50:23Z</time>
      </trkpt>
      <trkpt lat="43.53175" lon="3.501">
        <ele>39.1</ele>
        <time>2019-01-07T08:50:25Z</time>
      </trkpt>
      <trkpt lat="43.53178" lon="3.50097">
        <ele>39.1</ele>
        <time>2019-01-07T08:50:27Z</time>
      </trkpt>
      <trkpt lat="43.5318" lon="3.50095">
        <ele>39.1</ele>
        <time>2019-01-07T08:50:29Z</time>
      </trkpt>
      <trkpt lat="43.53183" lon="3.50092">
        <ele>39.1</ele>
        <time>2019-01-07T08:50:32Z</time>
      </trkpt>
      <trkpt lat="43.53186" lon="3.50088">
        <ele>39</ele>
        <time>2019-01-07T08:50:35Z</time>
      </trkpt>
      <trkpt lat="43.53189" lon="3.50085">
        <ele>39</ele>
        <time>2019-01-07T08:50:37Z</time>
      </trkpt>
      <trkpt lat="43.53192" lon="3.50081">
        <ele>39</ele>
        <time>2019-01-07T08:50:39Z</time>
      </trkpt>
      <trkpt lat="43.53194" lon="3.50079">
        <ele>39</ele>
        <time>2019-01-07T08:50:41Z</time>
      </trkpt>
      <trkpt lat="43.53197" lon="3.50077">
        <ele>39</ele>
        <time>2019-01-07T08:50:43Z</time>
      </trkpt>
      <trkpt lat="43.532" lon="3.50075">
        <ele>39</ele>
        <time>2019-01-07T08:50:46Z</time>
      </trkpt>
      <trkpt lat="43.53203" lon="3.50073">
        <ele>38.9</ele>
        <time>2019-01-07T08:50:48Z</time>
      </trkpt>
      <trkpt lat="43.53206" lon="3.50069">
        <ele>38.9</ele>
        <time>2019-01-07T08:50:50Z</time>
      </trkpt>
      <trkpt lat="43.53209" lon="3.50066">
        <ele>38.9</ele>
        <time>2019-01-07T08:50:52Z</time>
      </trkpt>
      <trkpt lat="43.53213" lon="3.50064">
        <ele>38.9</ele>
        <time>2019-01-07T08:50:54Z</time>
      </trkpt>
      <trkpt lat="43.53215" lon="3.50062">
        <ele>38.8</ele>
        <time>2019-01-07T08:50:56Z</time>
      </trkpt>
      <trkpt lat="43.53219" lon="3.50059">
        <ele>38.8</ele>
        <time>2019-01-07T08:50:59Z</time>
      </trkpt>
      <trkpt lat="43.53221" lon="3.50057">
        <ele>38.8</ele>
        <time>2019-01-07T08:51:01Z</time>
      </trkpt>
      <trkpt lat="43.53224" lon="3.50053">
        <ele>38.8</ele>
        <time>2019-01-07T08:51:03Z</time>
      </trkpt>
      <trkpt lat="43.53226" lon="3.50051">
        <ele>38.7</ele>
        <time>2019-01-07T08:51:05Z</time>
      </trkpt>
      <trkpt lat="43.53228" lon="3.50048">
        <ele>38.7</ele>
        <time>2019-01-07T08:51:07Z</time>
      </trkpt>
      <trkpt lat="43.5323" lon="3.50044">
        <ele>38.7</ele>
        <time>2019-01-07T08:51:10Z</time>
      </trkpt>
      <trkpt lat="43.53233" lon="3.5004">
        <ele>38.6</ele>
        <time>2019-01-07T08:51:13Z</time>
      </trkpt>
      <trkpt lat="43.53235" lon="3.50036">
        <ele>38.6</ele>
        <time>2019-01-07T08:51:15Z</time>
      </trkpt>
      <trkpt lat="43.53236" lon="3.50033">
        <ele>38.6</ele>
        <time>2019-01-07T08:51:17Z</time>
      </trkpt>
      <trkpt lat="43.53236" lon="3.50028">
        <ele>38.5</ele>
        <time>2019-01-07T08:51:20Z</time>
      </trkpt>
      <trkpt lat="43.53237" lon="3.50025">
        <ele>38.5</ele>
        <time>2019-01-07T08:51:22Z</time>
      </trkpt>
      <trkpt lat="43.53237" lon="3.50021">
        <ele>38.5</ele>
        <time>2019-01-07T08:51:24Z</time>
      </trkpt>
      <trkpt lat="43.53238" lon="3.50016">
        <ele>38.4</ele>
        <time>2019-01-07T08:51:26Z</time>
      </trkpt>
      <trkpt lat="43.53238" lon="3.50012">
        <ele>38.4</ele>
        <time>2019-01-07T08:51:28Z</time>
      </trkpt>
      <trkpt lat="43.5324" lon="3.50007">
        <ele>38.4</ele>
        <time>2019-01-07T08:51:31Z</time>
      </trkpt>
      <trkpt lat="43.53243" lon="3.50002">
        <ele>38.3</ele>
        <time>2019-01-07T08:51:34Z</time>
      </trkpt>
      <trkpt lat="43.53246" lon="3.5">
        <ele>38.3</ele>
        <time>2019-01-07T08:51:36Z</time>
      </trkpt>
      <trkpt lat="43.53249" lon="3.49997">
        <ele>38.3</ele>
        <time>2019-01-07T08:51:38Z</time>
      </trkpt>
      <trkpt lat="43.53252" lon="3.49995">
        <ele>38.2</ele>
        <time>2019-01-07T08:51:40Z</time>
      </trkpt>
      <trkpt lat="43.53256" lon="3.49993">
        <ele>38.2</ele>
        <time>2019-01-07T08:51:42Z</time>
      </trkpt>
      <trkpt lat="43.53259" lon="3.49991">
        <ele>38.2</ele>
        <time>2019-01-07T08:51:44Z</time>
      </trkpt>
      <trkpt lat="43.53263" lon="3.49989">
        <ele>38.1</ele>
        <time>2019-01-07T08:51:47Z</time>
      </trkpt>
      <trkpt lat="43.53265" lon="3.49988">
        <ele>38.1</ele>
        <time>2019-01-07T08:51:50Z</time>
      </trkpt>
      <trkpt lat="43.53269" lon="3.49986">
        <ele>38.1</ele>
        <time>2019-01-07T08:51:53Z</time>
      </trkpt>
      <trkpt lat="43.53272" lon="3.49984">
        <ele>38.1</ele>
        <time>2019-01-07T08:51:55Z</time>
      </trkpt>
      <trkpt lat="43.53276" lon="3.49982">
        <ele>38.1</ele>
        <time>2019-01-07T08:51:57Z</time>
      </trkpt>
      <trkpt lat="43.53278" lon="3.4998">
        <ele>38.1</ele>
        <time>2019-01-07T08:51:59Z</time>
      </trkpt>
      <trkpt lat="43.53282" lon="3.49978">
        <ele>38</ele>
        <time>2019-01-07T08:52:02Z</time>
      </trkpt>
      <trkpt lat="43.53285" lon="3.49976">
        <ele>38</ele>
        <time>2019-01-07T08:52:04Z</time>
      </trkpt>
      <trkpt lat="43.53288" lon="3.49975">
        <ele>38</ele>
        <time>2019-01-07T08:52:06Z</time>
      </trkpt>
      <trkpt lat="43.53291" lon="3.49973">
        <ele>38</ele>
        <time>2019-01-07T08:52:08Z</time>
      </trkpt>
      <trkpt lat="43.53295" lon="3.49972">
        <ele>38</ele>
        <time>2019-01-07T08:52:10Z</time>
      </trkpt>
      <trkpt lat="43.53298" lon="3.4997">
        <ele>38</ele>
        <time>2019-01-07T08:52:12Z</time>
      </trkpt>
      <trkpt lat="43.53301" lon="3.49969">
        <ele>38</ele>
        <time>2019-01-07T08:52:15Z</time>
      </trkpt>
      <trkpt lat="43.53304" lon="3.49968">
        <ele>38</ele>
        <time>2019-01-07T08:52:17Z</time>
      </trkpt>
      <trkpt lat="43.53308" lon="3.49967">
        <ele>38</ele>
        <time>2019-01-07T08:52:19Z</time>
      </trkpt>
      <trkpt lat="43.5331" lon="3.49966">
        <ele>38</ele>
        <time>2019-01-07T08:52:21Z</time>
      </trkpt>
      <trkpt lat="43.53314" lon="3.49965">
        <ele>38</ele>
        <time>2019-01-07T08:52:24Z</time>
      </trkpt>
      <trkpt lat="43.53317" lon="3.49965">
        <ele>38</ele>
        <time>2019-01-07T08:52:26Z</time>
      </trkpt>
      <trkpt lat="43.5332" lon="3.49965">
        <ele>38</ele>
        <time>2019-01-07T08:52:28Z</time>
      </trkpt>
      <trkpt lat="43.53324" lon="3.49964">
        <ele>38</ele>
        <time>2019-01-07T08:52:30Z</time>
      </trkpt>
      <trkpt lat="43.53327" lon="3.49963">
        <ele>38</ele>
        <time>2019-01-07T08:52:32Z</time>
      </trkpt>
      <trkpt lat="43.5333" lon="3.49963">
        <ele>38</ele>
        <time>2019-01-07T08:52:34Z</time>
      </trkpt>
      <trkpt lat="43.53333" lon="3.49961">
        <ele>38</ele>
        <time>2019-01-07T08:52:36Z</time>
      </trkpt>
      <trkpt lat="43.53337" lon="3.49959">
        <ele>38.1</ele>
        <time>2019-01-07T08:52:39Z</time>
      </trkpt>
      <trkpt lat="43.5334" lon="3.49957">
        <ele>38.1</ele>
        <time>2019-01-07T08:52:41Z</time>
      </trkpt>
      <trkpt lat="43.53343" lon="3.49957">
        <ele>38.1</ele>
        <time>2019-01-07T08:52:43Z</time>
      </trkpt>
      <trkpt lat="43.53346" lon="3.49957">
        <ele>38.1</ele>
        <time>2019-01-07T08:52:45Z</time>
      </trkpt>
      <trkpt lat="43.53349" lon="3.49956">
        <ele>38.1</ele>
        <time>2019-01-07T08:52:47Z</time>
      </trkpt>
      <trkpt lat="43.53353" lon="3.49956">
        <ele>38.1</ele>
        <time>2019-01-07T08:52:49Z</time>
      </trkpt>
      <trkpt lat="43.53356" lon="3.49957">
        <ele>38.1</ele>
        <time>2019-01-07T08:52:51Z</time>
      </trkpt>
      <trkpt lat="43.53359" lon="3.49958">
        <ele>38.1</ele>
        <time>2019-01-07T08:52:53Z</time>
      </trkpt>
      <trkpt lat="43.53362" lon="3.49958">
        <ele>38.1</ele>
        <time>2019-01-07T08:52:55Z</time>
      </trkpt>
      <trkpt lat="43.53365" lon="3.49958">
        <ele>38</ele>
        <time>2019-01-07T08:52:57Z</time>
      </trkpt>
      <trkpt lat="43.53368" lon="3.49958">
        <ele>38</ele>
        <time>2019-01-07T08:52:59Z</time>
      </trkpt>
      <trkpt lat="43.53372" lon="3.49957">
        <ele>38</ele>
        <time>2019-01-07T08:53:01Z</time>
      </trkpt>
      <trkpt lat="43.53375" lon="3.49955">
        <ele>38</ele>
        <time>2019-01-07T08:53:03Z</time>
      </trkpt>
      <trkpt lat="43.53378" lon="3.49954">
        <ele>37.9</ele>
        <time>2019-01-07T08:53:05Z</time>
      </trkpt>
      <trkpt lat="43.53381" lon="3.49952">
        <ele>37.9</ele>
        <time>2019-01-07T08:53:07Z</time>
      </trkpt>
      <trkpt lat="43.53384" lon="3.4995">
        <ele>37.9</ele>
        <time>2019-01-07T08:53:09Z</time>
      </trkpt>
      <trkpt lat="43.53387" lon="3.49948">
        <ele>37.9</ele>
        <time>2019-01-07T08:53:12Z</time>
      </trkpt>
      <trkpt lat="43.5339" lon="3.49945">
        <ele>37.8</ele>
        <time>2019-01-07T08:53:15Z</time>
      </trkpt>
      <trkpt lat="43.53393" lon="3.49942">
        <ele>37.8</ele>
        <time>2019-01-07T08:53:17Z</time>
      </trkpt>
      <trkpt lat="43.53395" lon="3.49939">
        <ele>37.8</ele>
        <time>2019-01-07T08:53:19Z</time>
      </trkpt>
      <trkpt lat="43.53398" lon="3.49936">
        <ele>37.8</ele>
        <time>2019-01-07T08:53:22Z</time>
      </trkpt>
      <trkpt lat="43.53401" lon="3.49933">
        <ele>37.7</ele>
        <time>2019-01-07T08:53:24Z</time>
      </trkpt>
      <trkpt lat="43.53403" lon="3.49931">
        <ele>37.7</ele>
        <time>2019-01-07T08:53:26Z</time>
      </trkpt>
      <trkpt lat="43.53406" lon="3.49927">
        <ele>37.7</ele>
        <time>2019-01-07T08:53:29Z</time>
      </trkpt>
      <trkpt lat="43.53409" lon="3.49925">
        <ele>37.7</ele>
        <time>2019-01-07T08:53:31Z</time>
      </trkpt>
      <trkpt lat="43.53412" lon="3.49922">
        <ele>37.6</ele>
        <time>2019-01-07T08:53:33Z</time>
      </trkpt>
      <trkpt lat="43.53414" lon="3.49919">
        <ele>37.6</ele>
        <time>2019-01-07T08:53:35Z</time>
      </trkpt>
      <trkpt lat="43.53417" lon="3.49915">
        <ele>37.6</ele>
        <time>2019-01-07T08:53:38Z</time>
      </trkpt>
      <trkpt lat="43.53419" lon="3.49913">
        <ele>37.6</ele>
        <time>2019-01-07T08:53:40Z</time>
      </trkpt>
      <trkpt lat="43.53421" lon="3.4991">
        <ele>37.6</ele>
        <time>2019-01-07T08:53:42Z</time>
      </trkpt>
      <trkpt lat="43.53424" lon="3.49908">
        <ele>37.6</ele>
        <time>2019-01-07T08:53:44Z</time>
      </trkpt>
      <trkpt lat="43.53426" lon="3.49905">
        <ele>37.6</ele>
        <time>2019-01-07T08:53:46Z</time>
      </trkpt>
      <trkpt lat="43.53429" lon="3.49903">
        <ele>37.6</ele>
        <time>2019-01-07T08:53:48Z</time>
      </trkpt>
      <trkpt lat="43.53432" lon="3.49901">
        <ele>37.5</ele>
        <time>2019-01-07T08:53:50Z</time>
      </trkpt>
      <trkpt lat="43.53435" lon="3.49898">
        <ele>37.5</ele>
        <time>2019-01-07T08:53:53Z</time>
      </trkpt>
      <trkpt lat="43.53438" lon="3.49896">
        <ele>37.5</ele>
        <time>2019-01-07T08:53:55Z</time>
      </trkpt>
      <trkpt lat="43.5344" lon="3.49892">
        <ele>37.5</ele>
        <time>2019-01-07T08:53:57Z</time>
      </trkpt>
      <trkpt lat="43.53443" lon="3.4989">
        <ele>37.5</ele>
        <time>2019-01-07T08:53:59Z</time>
      </trkpt>
      <trkpt lat="43.53445" lon="3.49887">
        <ele>37.5</ele>
        <time>2019-01-07T08:54:01Z</time>
      </trkpt>
      <trkpt lat="43.53447" lon="3.49885">
        <ele>37.5</ele>
        <time>2019-01-07T08:54:03Z</time>
      </trkpt>
      <trkpt lat="43.5345" lon="3.49882">
        <ele>37.4</ele>
        <time>2019-01-07T08:54:05Z</time>
      </trkpt>
      <trkpt lat="43.53453" lon="3.49878">
        <ele>37.4</ele>
        <time>2019-01-07T08:54:07Z</time>
      </trkpt>
      <trkpt lat="43.53456" lon="3.49875">
        <ele>37.4</ele>
        <time>2019-01-07T08:54:09Z</time>
      </trkpt>
      <trkpt lat="43.53458" lon="3.49872">
        <ele>37.3</ele>
        <time>2019-01-07T08:54:11Z</time>
      </trkpt>
      <trkpt lat="43.53461" lon="3.49869">
        <ele>37.3</ele>
        <time>2019-01-07T08:54:14Z</time>
      </trkpt>
      <trkpt lat="43.53464" lon="3.49866">
        <ele>37.3</ele>
        <time>2019-01-07T08:54:17Z</time>
      </trkpt>
      <trkpt lat="43.53467" lon="3.49863">
        <ele>37.4</ele>
        <time>2019-01-07T08:54:19Z</time>
      </trkpt>
      <trkpt lat="43.5347" lon="3.49863">
        <ele>37.6</ele>
        <time>2019-01-07T08:54:21Z</time>
      </trkpt>
      <trkpt lat="43.53473" lon="3.49865">
        <ele>37.8</ele>
        <time>2019-01-07T08:54:23Z</time>
      </trkpt>
      <trkpt lat="43.53475" lon="3.49868">
        <ele>38</ele>
        <time>2019-01-07T08:54:25Z</time>
      </trkpt>
      <trkpt lat="43.53477" lon="3.49872">
        <ele>38.2</ele>
        <time>2019-01-07T08:54:28Z</time>
      </trkpt>
      <trkpt lat="43.53479" lon="3.49876">
        <ele>38.5</ele>
        <time>2019-01-07T08:54:30Z</time>
      </trkpt>
      <trkpt lat="43.53481" lon="3.49879">
        <ele>38.7</ele>
        <time>2019-01-07T08:54:32Z</time>
      </trkpt>
      <trkpt lat="43.53484" lon="3.49882">
        <ele>38.9</ele>
        <time>2019-01-07T08:54:35Z</time>
      </trkpt>
      <trkpt lat="43.53486" lon="3.49886">
        <ele>39.1</ele>
        <time>2019-01-07T08:54:38Z</time>
      </trkpt>
      <trkpt lat="43.53488" lon="3.4989">
        <ele>39.3</ele>
        <time>2019-01-07T08:54:41Z</time>
      </trkpt>
      <trkpt lat="43.53491" lon="3.49894">
        <ele>39.5</ele>
        <time>2019-01-07T08:54:44Z</time>
      </trkpt>
      <trkpt lat="43.53493" lon="3.49898">
        <ele>39.7</ele>
        <time>2019-01-07T08:54:47Z</time>
      </trkpt>
      <trkpt lat="43.53495" lon="3.49901">
        <ele>39.8</ele>
        <time>2019-01-07T08:54:49Z</time>
      </trkpt>
      <trkpt lat="43.53496" lon="3.49905">
        <ele>39.9</ele>
        <time>2019-01-07T08:54:51Z</time>
      </trkpt>
      <trkpt lat="43.53498" lon="3.49909">
        <ele>40</ele>
        <time>2019-01-07T08:54:53Z</time>
      </trkpt>
      <trkpt lat="43.53499" lon="3.49912">
        <ele>40.1</ele>
        <time>2019-01-07T08:54:55Z</time>
      </trkpt>
      <trkpt lat="43.53499" lon="3.49916">
        <ele>40.3</ele>
        <time>2019-01-07T08:54:57Z</time>
      </trkpt>
      <trkpt lat="43.53499" lon="3.4992">
        <ele>40.3</ele>
        <time>2019-01-07T08:54:59Z</time>
      </trkpt>
      <trkpt lat="43.53497" lon="3.49924">
        <ele>40.2</ele>
        <time>2019-01-07T08:55:01Z</time>
      </trkpt>
      <trkpt lat="43.53496" lon="3.49928">
        <ele>40.1</ele>
        <time>2019-01-07T08:55:03Z</time>
      </trkpt>
      <trkpt lat="43.53495" lon="3.49932">
        <ele>40.1</ele>
        <time>2019-01-07T08:55:05Z</time>
      </trkpt>
      <trkpt lat="43.53493" lon="3.49937">
        <ele>40</ele>
        <time>2019-01-07T08:55:08Z</time>
      </trkpt>
      <trkpt lat="43.5349" lon="3.4994">
        <ele>40</ele>
        <time>2019-01-07T08:55:11Z</time>
      </trkpt>
      <trkpt lat="43.53487" lon="3.49943">
        <ele>39.9</ele>
        <time>2019-01-07T08:55:14Z</time>
      </trkpt>
      <trkpt lat="43.53484" lon="3.49946">
        <ele>39.9</ele>
        <time>2019-01-07T08:55:17Z</time>
      </trkpt>
      <trkpt lat="43.53481" lon="3.49948">
        <ele>39.9</ele>
        <time>2019-01-07T08:55:20Z</time>
      </trkpt>
      <trkpt lat="43.53479" lon="3.49951">
        <ele>39.8</ele>
        <time>2019-01-07T08:55:22Z</time>
      </trkpt>
      <trkpt lat="43.53477" lon="3.49954">
        <ele>39.8</ele>
        <time>2019-01-07T08:55:24Z</time>
      </trkpt>
      <trkpt lat="43.53475" lon="3.49958">
        <ele>39.7</ele>
        <time>2019-01-07T08:55:26Z</time>
      </trkpt>
      <trkpt lat="43.53473" lon="3.49962">
        <ele>39.7</ele>
        <time>2019-01-07T08:55:28Z</time>
      </trkpt>
      <trkpt lat="43.5347" lon="3.49966">
        <ele>39.6</ele>
        <time>2019-01-07T08:55:30Z</time>
      </trkpt>
      <trkpt lat="43.53468" lon="3.49969">
        <ele>39.6</ele>
        <time>2019-01-07T08:55:32Z</time>
      </trkpt>
      <trkpt lat="43.53466" lon="3.49972">
        <ele>39.5</ele>
        <time>2019-01-07T08:55:34Z</time>
      </trkpt>
      <trkpt lat="43.53464" lon="3.49975">
        <ele>39.5</ele>
        <time>2019-01-07T08:55:36Z</time>
      </trkpt>
      <trkpt lat="43.53461" lon="3.49979">
        <ele>39.4</ele>
        <time>2019-01-07T08:55:38Z</time>
      </trkpt>
      <trkpt lat="43.53459" lon="3.49983">
        <ele>39.4</ele>
        <time>2019-01-07T08:55:40Z</time>
      </trkpt>
      <trkpt lat="43.53457" lon="3.49987">
        <ele>39.3</ele>
        <time>2019-01-07T08:55:42Z</time>
      </trkpt>
      <trkpt lat="43.53455" lon="3.4999">
        <ele>39.3</ele>
        <time>2019-01-07T08:55:44Z</time>
      </trkpt>
      <trkpt lat="43.53453" lon="3.49994">
        <ele>39.3</ele>
        <time>2019-01-07T08:55:46Z</time>
      </trkpt>
      <trkpt lat="43.53451" lon="3.49997">
        <ele>39.3</ele>
        <time>2019-01-07T08:55:49Z</time>
      </trkpt>
      <trkpt lat="43.53448" lon="3.50001">
        <ele>39.3</ele>
        <time>2019-01-07T08:55:52Z</time>
      </trkpt>
      <trkpt lat="43.53445" lon="3.50005">
        <ele>39.3</ele>
        <time>2019-01-07T08:55:55Z</time>
      </trkpt>
      <trkpt lat="43.53443" lon="3.50008">
        <ele>39.3</ele>
        <time>2019-01-07T08:55:57Z</time>
      </trkpt>
      <trkpt lat="43.53441" lon="3.50011">
        <ele>39.3</ele>
        <time>2019-01-07T08:55:59Z</time>
      </trkpt>
      <trkpt lat="43.53439" lon="3.50015">
        <ele>39.3</ele>
        <time>2019-01-07T08:56:01Z</time>
      </trkpt>
      <trkpt lat="43.53436" lon="3.50018">
        <ele>39.3</ele>
        <time>2019-01-07T08:56:03Z</time>
      </trkpt>
      <trkpt lat="43.53434" lon="3.50021">
        <ele>39.3</ele>
        <time>2019-01-07T08:56:05Z</time>
      </trkpt>
      <trkpt lat="43.53431" lon="3.50024">
        <ele>39.3</ele>
        <time>2019-01-07T08:56:08Z</time>
      </trkpt>
      <trkpt lat="43.53429" lon="3.50027">
        <ele>39.3</ele>
        <time>2019-01-07T08:56:10Z</time>
      </trkpt>
      <trkpt lat="43.53427" lon="3.50029">
        <ele>39.3</ele>
        <time>2019-01-07T08:56:12Z</time>
      </trkpt>
      <trkpt lat="43.53424" lon="3.50032">
        <ele>39.3</ele>
        <time>2019-01-07T08:56:15Z</time>
      </trkpt>
      <trkpt lat="43.53421" lon="3.50036">
        <ele>39.3</ele>
        <time>2019-01-07T08:56:18Z</time>
      </trkpt>
      <trkpt lat="43.53418" lon="3.5004">
        <ele>39.3</ele>
        <time>2019-01-07T08:56:21Z</time>
      </trkpt>
      <trkpt lat="43.53416" lon="3.50043">
        <ele>39.3</ele>
        <time>2019-01-07T08:56:23Z</time>
      </trkpt>
      <trkpt lat="43.53413" lon="3.50047">
        <ele>39.3</ele>
        <time>2019-01-07T08:56:25Z</time>
      </trkpt>
      <trkpt lat="43.53411" lon="3.5005">
        <ele>39.3</ele>
        <time>2019-01-07T08:56:27Z</time>
      </trkpt>
      <trkpt lat="43.53408" lon="3.50054">
        <ele>39.3</ele>
        <time>2019-01-07T08:56:30Z</time>
      </trkpt>
      <trkpt lat="43.53406" lon="3.50057">
        <ele>39.3</ele>
        <time>2019-01-07T08:56:32Z</time>
      </trkpt>
      <trkpt lat="43.53404" lon="3.50062">
        <ele>39.3</ele>
        <time>2019-01-07T08:56:35Z</time>
      </trkpt>
      <trkpt lat="43.53402" lon="3.50065">
        <ele>39.4</ele>
        <time>2019-01-07T08:56:38Z</time>
      </trkpt>
      <trkpt lat="43.534" lon="3.50068">
        <ele>39.4</ele>
        <time>2019-01-07T08:56:40Z</time>
      </trkpt>
      <trkpt lat="43.53398" lon="3.50071">
        <ele>39.4</ele>
        <time>2019-01-07T08:56:42Z</time>
      </trkpt>
      <trkpt lat="43.53396" lon="3.50074">
        <ele>39.5</ele>
        <time>2019-01-07T08:56:44Z</time>
      </trkpt>
      <trkpt lat="43.53393" lon="3.50077">
        <ele>39.5</ele>
        <time>2019-01-07T08:56:46Z</time>
      </trkpt>
      <trkpt lat="43.53391" lon="3.50081">
        <ele>39.6</ele>
        <time>2019-01-07T08:56:48Z</time>
      </trkpt>
      <trkpt lat="43.53387" lon="3.50083">
        <ele>39.7</ele>
        <time>2019-01-07T08:56:51Z</time>
      </trkpt>
      <trkpt lat="43.53385" lon="3.50086">
        <ele>39.8</ele>
        <time>2019-01-07T08:56:54Z</time>
      </trkpt>
      <trkpt lat="43.53382" lon="3.50088">
        <ele>39.9</ele>
        <time>2019-01-07T08:56:56Z</time>
      </trkpt>
      <trkpt lat="43.5338" lon="3.50092">
        <ele>40</ele>
        <time>2019-01-07T08:56:59Z</time>
      </trkpt>
      <trkpt lat="43.53378" lon="3.50096">
        <ele>40.1</ele>
        <time>2019-01-07T08:57:02Z</time>
      </trkpt>
      <trkpt lat="43.53376" lon="3.50099">
        <ele>40.2</ele>
        <time>2019-01-07T08:57:04Z</time>
      </trkpt>
      <trkpt lat="43.53373" lon="3.50101">
        <ele>40.3</ele>
        <time>2019-01-07T08:57:06Z</time>
      </trkpt>
      <trkpt lat="43.5337" lon="3.50105">
        <ele>40.5</ele>
        <time>2019-01-07T08:57:08Z</time>
      </trkpt>
      <trkpt lat="43.53367" lon="3.50108">
        <ele>40.6</ele>
        <time>2019-01-07T08:57:10Z</time>
      </trkpt>
      <trkpt lat="43.53364" lon="3.5011">
        <ele>40.7</ele>
        <time>2019-01-07T08:57:12Z</time>
      </trkpt>
      <trkpt lat="43.53362" lon="3.50112">
        <ele>40.8</ele>
        <time>2019-01-07T08:57:14Z</time>
      </trkpt>
      <trkpt lat="43.5336" lon="3.50115">
        <ele>40.9</ele>
        <time>2019-01-07T08:57:16Z</time>
      </trkpt>
      <trkpt lat="43.53358" lon="3.50119">
        <ele>41</ele>
        <time>2019-01-07T08:57:18Z</time>
      </trkpt>
      <trkpt lat="43.53356" lon="3.50122">
        <ele>41</ele>
        <time>2019-01-07T08:57:20Z</time>
      </trkpt>
      <trkpt lat="43.53353" lon="3.50125">
        <ele>41.1</ele>
        <time>2019-01-07T08:57:22Z</time>
      </trkpt>
      <trkpt lat="43.53351" lon="3.50129">
        <ele>41.2</ele>
        <time>2019-01-07T08:57:24Z</time>
      </trkpt>
      <trkpt lat="43.53349" lon="3.50133">
        <ele>41.2</ele>
        <time>2019-01-07T08:57:26Z</time>
      </trkpt>
      <trkpt lat="43.53347" lon="3.50137">
        <ele>41.2</ele>
        <time>2019-01-07T08:57:29Z</time>
      </trkpt>
      <trkpt lat="43.53344" lon="3.5014">
        <ele>41.3</ele>
        <time>2019-01-07T08:57:31Z</time>
      </trkpt>
      <trkpt lat="43.53342" lon="3.50143">
        <ele>41.3</ele>
        <time>2019-01-07T08:57:33Z</time>
      </trkpt>
      <trkpt lat="43.5334" lon="3.50146">
        <ele>41.3</ele>
        <time>2019-01-07T08:57:36Z</time>
      </trkpt>
      <trkpt lat="43.53338" lon="3.5015">
        <ele>41.3</ele>
        <time>2019-01-07T08:57:38Z</time>
      </trkpt>
      <trkpt lat="43.53339" lon="3.50154">
        <ele>41.5</ele>
        <time>2019-01-07T08:57:41Z</time>
      </trkpt>
      <trkpt lat="43.5334" lon="3.50159">
        <ele>41.6</ele>
        <time>2019-01-07T08:57:43Z</time>
      </trkpt>
      <trkpt lat="43.53341" lon="3.50163">
        <ele>41.7</ele>
        <time>2019-01-07T08:57:45Z</time>
      </trkpt>
      <trkpt lat="43.53342" lon="3.50167">
        <ele>41.8</ele>
        <time>2019-01-07T08:57:47Z</time>
      </trkpt>
      <trkpt lat="43.53342" lon="3.50171">
        <ele>41.8</ele>
        <time>2019-01-07T08:57:49Z</time>
      </trkpt>
      <trkpt lat="43.53342" lon="3.50175">
        <ele>42</ele>
        <time>2019-01-07T08:57:51Z</time>
      </trkpt>
      <trkpt lat="43.53343" lon="3.5018">
        <ele>42.2</ele>
        <time>2019-01-07T08:57:53Z</time>
      </trkpt>
      <trkpt lat="43.53344" lon="3.50184">
        <ele>42.3</ele>
        <time>2019-01-07T08:57:55Z</time>
      </trkpt>
      <trkpt lat="43.53345" lon="3.50188">
        <ele>42.4</ele>
        <time>2019-01-07T08:57:57Z</time>
      </trkpt>
      <trkpt lat="43.53346" lon="3.50194">
        <ele>42.6</ele>
        <time>2019-01-07T08:58:00Z</time>
      </trkpt>
      <trkpt lat="43.53347" lon="3.50197">
        <ele>42.7</ele>
        <time>2019-01-07T08:58:02Z</time>
      </trkpt>
      <trkpt lat="43.53348" lon="3.50202">
        <ele>42.8</ele>
        <time>2019-01-07T08:58:04Z</time>
      </trkpt>
      <trkpt lat="43.53349" lon="3.50207">
        <ele>43</ele>
        <time>2019-01-07T08:58:06Z</time>
      </trkpt>
      <trkpt lat="43.5335" lon="3.50211">
        <ele>43.1</ele>
        <time>2019-01-07T08:58:08Z</time>
      </trkpt>
      <trkpt lat="43.53352" lon="3.50215">
        <ele>43.2</ele>
        <time>2019-01-07T08:58:11Z</time>
      </trkpt>
      <trkpt lat="43.53353" lon="3.50219">
        <ele>43.4</ele>
        <time>2019-01-07T08:58:13Z</time>
      </trkpt>
      <trkpt lat="43.53355" lon="3.50223">
        <ele>43.5</ele>
        <time>2019-01-07T08:58:15Z</time>
      </trkpt>
      <trkpt lat="43.53357" lon="3.50227">
        <ele>43.7</ele>
        <time>2019-01-07T08:58:17Z</time>
      </trkpt>
      <trkpt lat="43.53359" lon="3.5023">
        <ele>43.8</ele>
        <time>2019-01-07T08:58:19Z</time>
      </trkpt>
      <trkpt lat="43.53361" lon="3.50234">
        <ele>44</ele>
        <time>2019-01-07T08:58:22Z</time>
      </trkpt>
      <trkpt lat="43.53362" lon="3.50238">
        <ele>44.1</ele>
        <time>2019-01-07T08:58:24Z</time>
      </trkpt>
      <trkpt lat="43.53364" lon="3.50242">
        <ele>44.2</ele>
        <time>2019-01-07T08:58:26Z</time>
      </trkpt>
      <trkpt lat="43.53365" lon="3.50245">
        <ele>44.4</ele>
        <time>2019-01-07T08:58:28Z</time>
      </trkpt>
      <trkpt lat="43.53367" lon="3.5025">
        <ele>44.6</ele>
        <time>2019-01-07T08:58:31Z</time>
      </trkpt>
      <trkpt lat="43.53368" lon="3.50254">
        <ele>44.8</ele>
        <time>2019-01-07T08:58:33Z</time>
      </trkpt>
      <trkpt lat="43.53369" lon="3.50257">
        <ele>44.9</ele>
        <time>2019-01-07T08:58:35Z</time>
      </trkpt>
      <trkpt lat="43.53371" lon="3.50261">
        <ele>45.1</ele>
        <time>2019-01-07T08:58:37Z</time>
      </trkpt>
      <trkpt lat="43.53372" lon="3.50265">
        <ele>45.2</ele>
        <time>2019-01-07T08:58:39Z</time>
      </trkpt>
      <trkpt lat="43.53375" lon="3.5027">
        <ele>45.4</ele>
        <time>2019-01-07T08:58:42Z</time>
      </trkpt>
      <trkpt lat="43.53377" lon="3.50275">
        <ele>45.7</ele>
        <time>2019-01-07T08:58:45Z</time>
      </trkpt>
      <trkpt lat="43.53378" lon="3.50278">
        <ele>45.8</ele>
        <time>2019-01-07T08:58:47Z</time>
      </trkpt>
      <trkpt lat="43.5338" lon="3.50283">
        <ele>45.9</ele>
        <time>2019-01-07T08:58:50Z</time>
      </trkpt>
      <trkpt lat="43.53381" lon="3.50286">
        <ele>46</ele>
        <time>2019-01-07T08:58:52Z</time>
      </trkpt>
      <trkpt lat="43.53383" lon="3.5029">
        <ele>46.3</ele>
        <time>2019-01-07T08:58:54Z</time>
      </trkpt>
      <trkpt lat="43.53384" lon="3.50294">
        <ele>46.5</ele>
        <time>2019-01-07T08:58:56Z</time>
      </trkpt>
      <trkpt lat="43.53386" lon="3.50298">
        <ele>46.7</ele>
        <time>2019-01-07T08:58:59Z</time>
      </trkpt>
      <trkpt lat="43.53387" lon="3.50302">
        <ele>46.9</ele>
        <time>2019-01-07T08:59:01Z</time>
      </trkpt>
      <trkpt lat="43.53389" lon="3.50306">
        <ele>47.1</ele>
        <time>2019-01-07T08:59:03Z</time>
      </trkpt>
      <trkpt lat="43.53391" lon="3.5031">
        <ele>47.2</ele>
        <time>2019-01-07T08:59:06Z</time>
      </trkpt>
      <trkpt lat="43.53393" lon="3.50307">
        <ele>47.2</ele>
        <time>2019-01-07T08:59:09Z</time>
      </trkpt>
      <trkpt lat="43.53397" lon="3.50305">
        <ele>47.1</ele>
        <time>2019-01-07T08:59:11Z</time>
      </trkpt>
      <trkpt lat="43.534" lon="3.50303">
        <ele>47.1</ele>
        <time>2019-01-07T08:59:13Z</time>
      </trkpt>
      <trkpt lat="43.53403" lon="3.50301">
        <ele>47.1</ele>
        <time>2019-01-07T08:59:15Z</time>
      </trkpt>
      <trkpt lat="43.53406" lon="3.50299">
        <ele>47.1</ele>
        <time>2019-01-07T08:59:17Z</time>
      </trkpt>
      <trkpt lat="43.53409" lon="3.50298">
        <ele>47.1</ele>
        <time>2019-01-07T08:59:19Z</time>
      </trkpt>
      <trkpt lat="43.53412" lon="3.50295">
        <ele>47.1</ele>
        <time>2019-01-07T08:59:21Z</time>
      </trkpt>
      <trkpt lat="43.53414" lon="3.50293">
        <ele>47.1</ele>
        <time>2019-01-07T08:59:23Z</time>
      </trkpt>
      <trkpt lat="43.53416" lon="3.50289">
        <ele>47.1</ele>
        <time>2019-01-07T08:59:26Z</time>
      </trkpt>
      <trkpt lat="43.53418" lon="3.50285">
        <ele>47</ele>
        <time>2019-01-07T08:59:29Z</time>
      </trkpt>
      <trkpt lat="43.53419" lon="3.5028">
        <ele>46.6</ele>
        <time>2019-01-07T08:59:32Z</time>
      </trkpt>
      <trkpt lat="43.53419" lon="3.50276">
        <ele>46.4</ele>
        <time>2019-01-07T08:59:34Z</time>
      </trkpt>
      <trkpt lat="43.53418" lon="3.5027">
        <ele>46.1</ele>
        <time>2019-01-07T08:59:37Z</time>
      </trkpt>
      <trkpt lat="43.53416" lon="3.50266">
        <ele>45.9</ele>
        <time>2019-01-07T08:59:39Z</time>
      </trkpt>
      <trkpt lat="43.53415" lon="3.50262">
        <ele>45.7</ele>
        <time>2019-01-07T08:59:41Z</time>
      </trkpt>
      <trkpt lat="43.53412" lon="3.50258">
        <ele>45.5</ele>
        <time>2019-01-07T08:59:44Z</time>
      </trkpt>
      <trkpt lat="43.53411" lon="3.50254">
        <ele>45.4</ele>
        <time>2019-01-07T08:59:46Z</time>
      </trkpt>
      <trkpt lat="43.53409" lon="3.50248">
        <ele>45.2</ele>
        <time>2019-01-07T08:59:48Z</time>
      </trkpt>
      <trkpt lat="43.53407" lon="3.50243">
        <ele>45.1</ele>
        <time>2019-01-07T08:59:50Z</time>
      </trkpt>
      <trkpt lat="43.53406" lon="3.50238">
        <ele>44.9</ele>
        <time>2019-01-07T08:59:52Z</time>
      </trkpt>
      <trkpt lat="43.53405" lon="3.50234">
        <ele>44.8</ele>
        <time>2019-01-07T08:59:54Z</time>
      </trkpt>
      <trkpt lat="43.53403" lon="3.5023">
        <ele>44.7</ele>
        <time>2019-01-07T08:59:56Z</time>
      </trkpt>
      <trkpt lat="43.53401" lon="3.50227">
        <ele>44.6</ele>
        <time>2019-01-07T08:59:58Z</time>
      </trkpt>
      <trkpt lat="43.534" lon="3.50223">
        <ele>44.4</ele>
        <time>2019-01-07T09:00:00Z</time>
      </trkpt>
      <trkpt lat="43.53398" lon="3.50219">
        <ele>44.3</ele>
        <time>2019-01-07T09:00:03Z</time>
      </trkpt>
      <trkpt lat="43.53397" lon="3.50216">
        <ele>44.2</ele>
        <time>2019-01-07T09:00:05Z</time>
      </trkpt>
      <trkpt lat="43.53396" lon="3.50211">
        <ele>44</ele>
        <time>2019-01-07T09:00:08Z</time>
      </trkpt>
      <trkpt lat="43.53395" lon="3.50206">
        <ele>43.8</ele>
        <time>2019-01-07T09:00:11Z</time>
      </trkpt>
      <trkpt lat="43.53392" lon="3.50203">
        <ele>43.7</ele>
        <time>2019-01-07T09:00:14Z</time>
      </trkpt>
      <trkpt lat="43.5339" lon="3.50201">
        <ele>43.7</ele>
        <time>2019-01-07T09:00:17Z</time>
      </trkpt>
      <trkpt lat="43.53387" lon="3.50201">
        <ele>43.7</ele>
        <time>2019-01-07T09:00:20Z</time>
      </trkpt>
      <trkpt lat="43.53384" lon="3.502">
        <ele>43.7</ele>
        <time>2019-01-07T09:00:22Z</time>
      </trkpt>
      <trkpt lat="43.5338" lon="3.50201">
        <ele>43.7</ele>
        <time>2019-01-07T09:00:25Z</time>
      </trkpt>
    </trkseg>
  </trk>
</gpx>